<?xml version="1.0" encoding="UTF-8" standalone="no" ?>
<gpx xmlns="http://www.topografix.com/GPX/1/1" xmlns:xsi="http://www.w3.org/2001/XMLSchema-instance" xsi:schemaLocation="http://www.topografix.com/GPX/1/1 http://www.topografix.com/GPX/1/1/gpx.xsd" version="1.1" creator="VisuGPX - https://www.visugpx.com">
  <metadata>
    <name>ronde des fruits</name>
    <desc><![CDATA[ronde des fruits]]></desc>
  </metadata>
  <trk>
    <name><![CDATA[2011-09-04T06:02:09Z]]></name>
    <trkseg>
      <trkpt lat="45.59654" lon="5.87634">
        <ele>273.6324463</ele>
        <time>2011-09-04T06:02:09Z</time>
      </trkpt>
      <trkpt lat="45.5964" lon="5.87625">
        <ele>272.1904297</ele>
        <time>2011-09-04T06:02:17Z</time>
      </trkpt>
      <trkpt lat="45.59621" lon="5.87612">
        <ele>271.229126</ele>
        <time>2011-09-04T06:02:25Z</time>
      </trkpt>
      <trkpt lat="45.59603" lon="5.876">
        <ele>270.7484131</ele>
        <time>2011-09-04T06:02:33Z</time>
      </trkpt>
      <trkpt lat="45.59584" lon="5.87587">
        <ele>270.7484131</ele>
        <time>2011-09-04T06:02:41Z</time>
      </trkpt>
      <trkpt lat="45.59564" lon="5.87571">
        <ele>271.229126</ele>
        <time>2011-09-04T06:02:50Z</time>
      </trkpt>
      <trkpt lat="45.59551" lon="5.8755">
        <ele>272.1904297</ele>
        <time>2011-09-04T06:02:57Z</time>
      </trkpt>
      <trkpt lat="45.59529" lon="5.87523">
        <ele>272.1904297</ele>
        <time>2011-09-04T06:03:07Z</time>
      </trkpt>
      <trkpt lat="45.59524" lon="5.87519">
        <ele>272.1904297</ele>
        <time>2011-09-04T06:03:09Z</time>
      </trkpt>
      <trkpt lat="45.5952" lon="5.87502">
        <ele>272.1904297</ele>
        <time>2011-09-04T06:03:14Z</time>
      </trkpt>
      <trkpt lat="45.59521" lon="5.87499">
        <ele>272.1904297</ele>
        <time>2011-09-04T06:03:15Z</time>
      </trkpt>
      <trkpt lat="45.59527" lon="5.87462">
        <ele>275.0744629</ele>
        <time>2011-09-04T06:03:24Z</time>
      </trkpt>
      <trkpt lat="45.59531" lon="5.8743">
        <ele>276.9970703</ele>
        <time>2011-09-04T06:03:32Z</time>
      </trkpt>
      <trkpt lat="45.59533" lon="5.87407">
        <ele>276.9970703</ele>
        <time>2011-09-04T06:03:37Z</time>
      </trkpt>
      <trkpt lat="45.59535" lon="5.87368">
        <ele>277.4776611</ele>
        <time>2011-09-04T06:03:46Z</time>
      </trkpt>
      <trkpt lat="45.59536" lon="5.87327">
        <ele>277.4776611</ele>
        <time>2011-09-04T06:03:55Z</time>
      </trkpt>
      <trkpt lat="45.59529" lon="5.87276">
        <ele>279.4002686</ele>
        <time>2011-09-04T06:04:06Z</time>
      </trkpt>
      <trkpt lat="45.59524" lon="5.87232">
        <ele>280.8424072</ele>
        <time>2011-09-04T06:04:15Z</time>
      </trkpt>
      <trkpt lat="45.5952" lon="5.8721">
        <ele>281.322998</ele>
        <time>2011-09-04T06:04:20Z</time>
      </trkpt>
      <trkpt lat="45.59518" lon="5.87192">
        <ele>281.322998</ele>
        <time>2011-09-04T06:04:24Z</time>
      </trkpt>
      <trkpt lat="45.59514" lon="5.87147">
        <ele>281.322998</ele>
        <time>2011-09-04T06:04:34Z</time>
      </trkpt>
      <trkpt lat="45.59512" lon="5.87101">
        <ele>281.8035889</ele>
        <time>2011-09-04T06:04:44Z</time>
      </trkpt>
      <trkpt lat="45.59511" lon="5.87066">
        <ele>282.2843018</ele>
        <time>2011-09-04T06:04:52Z</time>
      </trkpt>
      <trkpt lat="45.59506" lon="5.8702">
        <ele>286.6102295</ele>
        <time>2011-09-04T06:05:02Z</time>
      </trkpt>
      <trkpt lat="45.59504" lon="5.86984">
        <ele>289.0135498</ele>
        <time>2011-09-04T06:05:10Z</time>
      </trkpt>
      <trkpt lat="45.59499" lon="5.86957">
        <ele>291.8974609</ele>
        <time>2011-09-04T06:05:16Z</time>
      </trkpt>
      <trkpt lat="45.59496" lon="5.86929">
        <ele>292.3781738</ele>
        <time>2011-09-04T06:05:23Z</time>
      </trkpt>
      <trkpt lat="45.59489" lon="5.86894">
        <ele>294.7813721</ele>
        <time>2011-09-04T06:05:31Z</time>
      </trkpt>
      <trkpt lat="45.59478" lon="5.86868">
        <ele>293.3393555</ele>
        <time>2011-09-04T06:05:38Z</time>
      </trkpt>
      <trkpt lat="45.59466" lon="5.86838">
        <ele>291.416748</ele>
        <time>2011-09-04T06:05:44Z</time>
      </trkpt>
      <trkpt lat="45.59461" lon="5.86819">
        <ele>291.416748</ele>
        <time>2011-09-04T06:05:47Z</time>
      </trkpt>
      <trkpt lat="45.59449" lon="5.8682">
        <ele>291.416748</ele>
        <time>2011-09-04T06:05:51Z</time>
      </trkpt>
      <trkpt lat="45.59442" lon="5.86826">
        <ele>291.416748</ele>
        <time>2011-09-04T06:05:54Z</time>
      </trkpt>
      <trkpt lat="45.59441" lon="5.86822">
        <ele>290.9361572</ele>
        <time>2011-09-04T06:05:57Z</time>
      </trkpt>
      <trkpt lat="45.59443" lon="5.8682">
        <ele>290.9361572</ele>
        <time>2011-09-04T06:05:58Z</time>
      </trkpt>
      <trkpt lat="45.59453" lon="5.86806">
        <ele>290.9361572</ele>
        <time>2011-09-04T06:06:05Z</time>
      </trkpt>
      <trkpt lat="45.59457" lon="5.8679">
        <ele>291.416748</ele>
        <time>2011-09-04T06:06:10Z</time>
      </trkpt>
      <trkpt lat="45.5946" lon="5.86763">
        <ele>292.8587646</ele>
        <time>2011-09-04T06:06:17Z</time>
      </trkpt>
      <trkpt lat="45.59461" lon="5.86729">
        <ele>293.3393555</ele>
        <time>2011-09-04T06:06:26Z</time>
      </trkpt>
      <trkpt lat="45.59461" lon="5.86703">
        <ele>294.7813721</ele>
        <time>2011-09-04T06:06:32Z</time>
      </trkpt>
      <trkpt lat="45.59456" lon="5.8667">
        <ele>294.7813721</ele>
        <time>2011-09-04T06:06:40Z</time>
      </trkpt>
      <trkpt lat="45.5945" lon="5.86639">
        <ele>295.2619629</ele>
        <time>2011-09-04T06:06:47Z</time>
      </trkpt>
      <trkpt lat="45.59439" lon="5.86618">
        <ele>296.2235107</ele>
        <time>2011-09-04T06:06:53Z</time>
      </trkpt>
      <trkpt lat="45.59436" lon="5.86611">
        <ele>296.7041016</ele>
        <time>2011-09-04T06:06:55Z</time>
      </trkpt>
      <trkpt lat="45.59427" lon="5.8661">
        <ele>297.1846924</ele>
        <time>2011-09-04T06:06:59Z</time>
      </trkpt>
      <trkpt lat="45.59424" lon="5.86612">
        <ele>297.1846924</ele>
        <time>2011-09-04T06:07:00Z</time>
      </trkpt>
      <trkpt lat="45.59395" lon="5.86629">
        <ele>295.7426758</ele>
        <time>2011-09-04T06:07:09Z</time>
      </trkpt>
      <trkpt lat="45.59359" lon="5.86644">
        <ele>294.7813721</ele>
        <time>2011-09-04T06:07:18Z</time>
      </trkpt>
      <trkpt lat="45.59331" lon="5.86652">
        <ele>294.3007813</ele>
        <time>2011-09-04T06:07:25Z</time>
      </trkpt>
      <trkpt lat="45.59309" lon="5.86659">
        <ele>294.3007813</ele>
        <time>2011-09-04T06:07:31Z</time>
      </trkpt>
      <trkpt lat="45.59287" lon="5.86676">
        <ele>294.7813721</ele>
        <time>2011-09-04T06:07:37Z</time>
      </trkpt>
      <trkpt lat="45.59262" lon="5.86699">
        <ele>293.8200684</ele>
        <time>2011-09-04T06:07:45Z</time>
      </trkpt>
      <trkpt lat="45.59246" lon="5.86717">
        <ele>291.416748</ele>
        <time>2011-09-04T06:07:51Z</time>
      </trkpt>
      <trkpt lat="45.59236" lon="5.86729">
        <ele>291.416748</ele>
        <time>2011-09-04T06:07:55Z</time>
      </trkpt>
      <trkpt lat="45.59218" lon="5.86744">
        <ele>293.8200684</ele>
        <time>2011-09-04T06:08:00Z</time>
      </trkpt>
      <trkpt lat="45.59199" lon="5.86757">
        <ele>292.8587646</ele>
        <time>2011-09-04T06:08:06Z</time>
      </trkpt>
      <trkpt lat="45.59185" lon="5.86759">
        <ele>290.9361572</ele>
        <time>2011-09-04T06:08:10Z</time>
      </trkpt>
      <trkpt lat="45.59169" lon="5.86766">
        <ele>289.4941406</ele>
        <time>2011-09-04T06:08:14Z</time>
      </trkpt>
      <trkpt lat="45.59135" lon="5.86789">
        <ele>286.6102295</ele>
        <time>2011-09-04T06:08:21Z</time>
      </trkpt>
      <trkpt lat="45.59114" lon="5.86804">
        <ele>286.1295166</ele>
        <time>2011-09-04T06:08:25Z</time>
      </trkpt>
      <trkpt lat="45.59099" lon="5.86819">
        <ele>286.1295166</ele>
        <time>2011-09-04T06:08:28Z</time>
      </trkpt>
      <trkpt lat="45.59067" lon="5.86844">
        <ele>286.1295166</ele>
        <time>2011-09-04T06:08:34Z</time>
      </trkpt>
      <trkpt lat="45.59026" lon="5.86871">
        <ele>290.4555664</ele>
        <time>2011-09-04T06:08:43Z</time>
      </trkpt>
      <trkpt lat="45.59022" lon="5.86874">
        <ele>290.9361572</ele>
        <time>2011-09-04T06:08:44Z</time>
      </trkpt>
      <trkpt lat="45.59011" lon="5.86892">
        <ele>291.416748</ele>
        <time>2011-09-04T06:08:48Z</time>
      </trkpt>
      <trkpt lat="45.59006" lon="5.86903">
        <ele>291.416748</ele>
        <time>2011-09-04T06:08:50Z</time>
      </trkpt>
      <trkpt lat="45.58995" lon="5.86933">
        <ele>289.0135498</ele>
        <time>2011-09-04T06:08:55Z</time>
      </trkpt>
      <trkpt lat="45.58991" lon="5.86937">
        <ele>288.532959</ele>
        <time>2011-09-04T06:08:56Z</time>
      </trkpt>
      <trkpt lat="45.58973" lon="5.86955">
        <ele>288.0522461</ele>
        <time>2011-09-04T06:09:00Z</time>
      </trkpt>
      <trkpt lat="45.58963" lon="5.86963">
        <ele>288.532959</ele>
        <time>2011-09-04T06:09:03Z</time>
      </trkpt>
      <trkpt lat="45.5894" lon="5.86969">
        <ele>288.0522461</ele>
        <time>2011-09-04T06:09:08Z</time>
      </trkpt>
      <trkpt lat="45.58901" lon="5.86975">
        <ele>289.0135498</ele>
        <time>2011-09-04T06:09:16Z</time>
      </trkpt>
      <trkpt lat="45.58879" lon="5.86983">
        <ele>289.4941406</ele>
        <time>2011-09-04T06:09:21Z</time>
      </trkpt>
      <trkpt lat="45.58868" lon="5.86985">
        <ele>288.532959</ele>
        <time>2011-09-04T06:09:25Z</time>
      </trkpt>
      <trkpt lat="45.58863" lon="5.86987">
        <ele>288.532959</ele>
        <time>2011-09-04T06:09:27Z</time>
      </trkpt>
      <trkpt lat="45.58846" lon="5.86991">
        <ele>289.4941406</ele>
        <time>2011-09-04T06:09:33Z</time>
      </trkpt>
      <trkpt lat="45.58827" lon="5.86996">
        <ele>288.532959</ele>
        <time>2011-09-04T06:09:38Z</time>
      </trkpt>
      <trkpt lat="45.58814" lon="5.87003">
        <ele>287.5714111</ele>
        <time>2011-09-04T06:09:42Z</time>
      </trkpt>
      <trkpt lat="45.58796" lon="5.87002">
        <ele>287.5714111</ele>
        <time>2011-09-04T06:09:47Z</time>
      </trkpt>
      <trkpt lat="45.58776" lon="5.86992">
        <ele>287.0908203</ele>
        <time>2011-09-04T06:09:53Z</time>
      </trkpt>
      <trkpt lat="45.58755" lon="5.86983">
        <ele>288.532959</ele>
        <time>2011-09-04T06:10:00Z</time>
      </trkpt>
      <trkpt lat="45.5874" lon="5.86976">
        <ele>289.4941406</ele>
        <time>2011-09-04T06:10:05Z</time>
      </trkpt>
      <trkpt lat="45.58723" lon="5.86969">
        <ele>289.0135498</ele>
        <time>2011-09-04T06:10:10Z</time>
      </trkpt>
      <trkpt lat="45.587" lon="5.86969">
        <ele>290.4555664</ele>
        <time>2011-09-04T06:10:15Z</time>
      </trkpt>
      <trkpt lat="45.58687" lon="5.86972">
        <ele>290.4555664</ele>
        <time>2011-09-04T06:10:19Z</time>
      </trkpt>
      <trkpt lat="45.5867" lon="5.86977">
        <ele>290.4555664</ele>
        <time>2011-09-04T06:10:23Z</time>
      </trkpt>
      <trkpt lat="45.58652" lon="5.86985">
        <ele>293.3393555</ele>
        <time>2011-09-04T06:10:28Z</time>
      </trkpt>
      <trkpt lat="45.58639" lon="5.86987">
        <ele>294.3007813</ele>
        <time>2011-09-04T06:10:32Z</time>
      </trkpt>
      <trkpt lat="45.58623" lon="5.86992">
        <ele>298.1461182</ele>
        <time>2011-09-04T06:10:37Z</time>
      </trkpt>
      <trkpt lat="45.5861" lon="5.86991">
        <ele>299.5880127</ele>
        <time>2011-09-04T06:10:41Z</time>
      </trkpt>
      <trkpt lat="45.58586" lon="5.8698">
        <ele>301.0299072</ele>
        <time>2011-09-04T06:10:48Z</time>
      </trkpt>
      <trkpt lat="45.58567" lon="5.86972">
        <ele>301.991333</ele>
        <time>2011-09-04T06:10:54Z</time>
      </trkpt>
      <trkpt lat="45.58548" lon="5.86964">
        <ele>302.4719238</ele>
        <time>2011-09-04T06:11:00Z</time>
      </trkpt>
      <trkpt lat="45.58546" lon="5.86962">
        <ele>302.4719238</ele>
        <time>2011-09-04T06:11:01Z</time>
      </trkpt>
      <trkpt lat="45.58539" lon="5.86969">
        <ele>303.4332275</ele>
        <time>2011-09-04T06:11:05Z</time>
      </trkpt>
      <trkpt lat="45.58538" lon="5.86978">
        <ele>303.4332275</ele>
        <time>2011-09-04T06:11:07Z</time>
      </trkpt>
      <trkpt lat="45.58535" lon="5.87012">
        <ele>302.9525146</ele>
        <time>2011-09-04T06:11:14Z</time>
      </trkpt>
      <trkpt lat="45.58539" lon="5.87037">
        <ele>302.9525146</ele>
        <time>2011-09-04T06:11:20Z</time>
      </trkpt>
      <trkpt lat="45.58554" lon="5.87066">
        <ele>304.8752441</ele>
        <time>2011-09-04T06:11:29Z</time>
      </trkpt>
      <trkpt lat="45.58565" lon="5.87093">
        <ele>306.7978516</ele>
        <time>2011-09-04T06:11:37Z</time>
      </trkpt>
      <trkpt lat="45.58572" lon="5.87122">
        <ele>308.2398682</ele>
        <time>2011-09-04T06:11:45Z</time>
      </trkpt>
      <trkpt lat="45.58579" lon="5.87159">
        <ele>309.2011719</ele>
        <time>2011-09-04T06:11:54Z</time>
      </trkpt>
      <trkpt lat="45.58583" lon="5.87197">
        <ele>310.1624756</ele>
        <time>2011-09-04T06:12:03Z</time>
      </trkpt>
      <trkpt lat="45.58575" lon="5.87205">
        <ele>310.1624756</ele>
        <time>2011-09-04T06:12:07Z</time>
      </trkpt>
      <trkpt lat="45.58567" lon="5.87196">
        <ele>310.1624756</ele>
        <time>2011-09-04T06:12:11Z</time>
      </trkpt>
      <trkpt lat="45.58566" lon="5.87188">
        <ele>309.6818848</ele>
        <time>2011-09-04T06:12:13Z</time>
      </trkpt>
      <trkpt lat="45.58555" lon="5.87167">
        <ele>309.6818848</ele>
        <time>2011-09-04T06:12:19Z</time>
      </trkpt>
      <trkpt lat="45.58541" lon="5.87156">
        <ele>311.1237793</ele>
        <time>2011-09-04T06:12:24Z</time>
      </trkpt>
      <trkpt lat="45.58529" lon="5.87147">
        <ele>312.0852051</ele>
        <time>2011-09-04T06:12:28Z</time>
      </trkpt>
      <trkpt lat="45.58503" lon="5.8713">
        <ele>314.0078125</ele>
        <time>2011-09-04T06:12:37Z</time>
      </trkpt>
      <trkpt lat="45.58479" lon="5.87113">
        <ele>314.4884033</ele>
        <time>2011-09-04T06:12:46Z</time>
      </trkpt>
      <trkpt lat="45.58461" lon="5.87101">
        <ele>315.9304199</ele>
        <time>2011-09-04T06:12:53Z</time>
      </trkpt>
      <trkpt lat="45.58447" lon="5.87102">
        <ele>316.8917236</ele>
        <time>2011-09-04T06:12:59Z</time>
      </trkpt>
      <trkpt lat="45.58437" lon="5.87118">
        <ele>318.3336182</ele>
        <time>2011-09-04T06:13:05Z</time>
      </trkpt>
      <trkpt lat="45.58426" lon="5.87135">
        <ele>319.2950439</ele>
        <time>2011-09-04T06:13:11Z</time>
      </trkpt>
      <trkpt lat="45.58409" lon="5.87161">
        <ele>322.659668</ele>
        <time>2011-09-04T06:13:21Z</time>
      </trkpt>
      <trkpt lat="45.584" lon="5.87175">
        <ele>325.5435791</ele>
        <time>2011-09-04T06:13:26Z</time>
      </trkpt>
      <trkpt lat="45.58403" lon="5.87182">
        <ele>326.5048828</ele>
        <time>2011-09-04T06:13:30Z</time>
      </trkpt>
      <trkpt lat="45.58422" lon="5.87198">
        <ele>327.4661865</ele>
        <time>2011-09-04T06:13:37Z</time>
      </trkpt>
      <trkpt lat="45.58445" lon="5.8721">
        <ele>326.9855957</ele>
        <time>2011-09-04T06:13:42Z</time>
      </trkpt>
      <trkpt lat="45.58474" lon="5.87236">
        <ele>326.5048828</ele>
        <time>2011-09-04T06:13:49Z</time>
      </trkpt>
      <trkpt lat="45.58505" lon="5.87266">
        <ele>326.0241699</ele>
        <time>2011-09-04T06:13:57Z</time>
      </trkpt>
      <trkpt lat="45.58512" lon="5.87273">
        <ele>326.0241699</ele>
        <time>2011-09-04T06:13:59Z</time>
      </trkpt>
      <trkpt lat="45.58542" lon="5.873">
        <ele>326.5048828</ele>
        <time>2011-09-04T06:14:08Z</time>
      </trkpt>
      <trkpt lat="45.58563" lon="5.87321">
        <ele>327.4661865</ele>
        <time>2011-09-04T06:14:15Z</time>
      </trkpt>
      <trkpt lat="45.58573" lon="5.87342">
        <ele>328.4276123</ele>
        <time>2011-09-04T06:14:21Z</time>
      </trkpt>
      <trkpt lat="45.5857" lon="5.8736">
        <ele>328.9083252</ele>
        <time>2011-09-04T06:14:25Z</time>
      </trkpt>
      <trkpt lat="45.58562" lon="5.87387">
        <ele>330.8309326</ele>
        <time>2011-09-04T06:14:32Z</time>
      </trkpt>
      <trkpt lat="45.58567" lon="5.87414">
        <ele>332.2728271</ele>
        <time>2011-09-04T06:14:38Z</time>
      </trkpt>
      <trkpt lat="45.58574" lon="5.8744">
        <ele>333.2341309</ele>
        <time>2011-09-04T06:14:44Z</time>
      </trkpt>
      <trkpt lat="45.5858" lon="5.87465">
        <ele>333.7147217</ele>
        <time>2011-09-04T06:14:50Z</time>
      </trkpt>
      <trkpt lat="45.58587" lon="5.87484">
        <ele>334.6761475</ele>
        <time>2011-09-04T06:14:56Z</time>
      </trkpt>
      <trkpt lat="45.58584" lon="5.8749">
        <ele>335.1567383</ele>
        <time>2011-09-04T06:15:00Z</time>
      </trkpt>
      <trkpt lat="45.58579" lon="5.87479">
        <ele>335.6373291</ele>
        <time>2011-09-04T06:15:04Z</time>
      </trkpt>
      <trkpt lat="45.58566" lon="5.87459">
        <ele>336.598877</ele>
        <time>2011-09-04T06:15:12Z</time>
      </trkpt>
      <trkpt lat="45.58564" lon="5.87458">
        <ele>336.598877</ele>
        <time>2011-09-04T06:15:13Z</time>
      </trkpt>
      <trkpt lat="45.58558" lon="5.87469">
        <ele>336.598877</ele>
        <time>2011-09-04T06:15:18Z</time>
      </trkpt>
      <trkpt lat="45.58561" lon="5.87475">
        <ele>336.598877</ele>
        <time>2011-09-04T06:15:20Z</time>
      </trkpt>
      <trkpt lat="45.58572" lon="5.87501">
        <ele>337.5600586</ele>
        <time>2011-09-04T06:15:28Z</time>
      </trkpt>
      <trkpt lat="45.58575" lon="5.87524">
        <ele>338.5214844</ele>
        <time>2011-09-04T06:15:34Z</time>
      </trkpt>
      <trkpt lat="45.58571" lon="5.87545">
        <ele>339.9633789</ele>
        <time>2011-09-04T06:15:40Z</time>
      </trkpt>
      <trkpt lat="45.58559" lon="5.87563">
        <ele>341.8859863</ele>
        <time>2011-09-04T06:15:46Z</time>
      </trkpt>
      <trkpt lat="45.58539" lon="5.87577">
        <ele>344.7700195</ele>
        <time>2011-09-04T06:15:54Z</time>
      </trkpt>
      <trkpt lat="45.58516" lon="5.8758">
        <ele>347.6539307</ele>
        <time>2011-09-04T06:16:02Z</time>
      </trkpt>
      <trkpt lat="45.58497" lon="5.87576">
        <ele>348.6152344</ele>
        <time>2011-09-04T06:16:09Z</time>
      </trkpt>
      <trkpt lat="45.58495" lon="5.87562">
        <ele>348.1346436</ele>
        <time>2011-09-04T06:16:13Z</time>
      </trkpt>
      <trkpt lat="45.58506" lon="5.87556">
        <ele>347.6539307</ele>
        <time>2011-09-04T06:16:17Z</time>
      </trkpt>
      <trkpt lat="45.58522" lon="5.87551">
        <ele>348.1346436</ele>
        <time>2011-09-04T06:16:22Z</time>
      </trkpt>
      <trkpt lat="45.58526" lon="5.87534">
        <ele>348.6152344</ele>
        <time>2011-09-04T06:16:27Z</time>
      </trkpt>
      <trkpt lat="45.58518" lon="5.87528">
        <ele>349.5765381</ele>
        <time>2011-09-04T06:16:30Z</time>
      </trkpt>
      <trkpt lat="45.5849" lon="5.87517">
        <ele>352.4605713</ele>
        <time>2011-09-04T06:16:40Z</time>
      </trkpt>
      <trkpt lat="45.58464" lon="5.87506">
        <ele>355.3444824</ele>
        <time>2011-09-04T06:16:50Z</time>
      </trkpt>
      <trkpt lat="45.58448" lon="5.87498">
        <ele>357.2670898</ele>
        <time>2011-09-04T06:16:56Z</time>
      </trkpt>
      <trkpt lat="45.5842" lon="5.87483">
        <ele>359.1896973</ele>
        <time>2011-09-04T06:17:06Z</time>
      </trkpt>
      <trkpt lat="45.58406" lon="5.87472">
        <ele>361.1124268</ele>
        <time>2011-09-04T06:17:12Z</time>
      </trkpt>
      <trkpt lat="45.58385" lon="5.87454">
        <ele>364.4769287</ele>
        <time>2011-09-04T06:17:21Z</time>
      </trkpt>
      <trkpt lat="45.5837" lon="5.87442">
        <ele>364.9576416</ele>
        <time>2011-09-04T06:17:27Z</time>
      </trkpt>
      <trkpt lat="45.58357" lon="5.87431">
        <ele>365.9189453</ele>
        <time>2011-09-04T06:17:33Z</time>
      </trkpt>
      <trkpt lat="45.58339" lon="5.87418">
        <ele>369.2836914</ele>
        <time>2011-09-04T06:17:40Z</time>
      </trkpt>
      <trkpt lat="45.58332" lon="5.87413">
        <ele>369.7642822</ele>
        <time>2011-09-04T06:17:43Z</time>
      </trkpt>
      <trkpt lat="45.58326" lon="5.87423">
        <ele>369.2836914</ele>
        <time>2011-09-04T06:17:47Z</time>
      </trkpt>
      <trkpt lat="45.58326" lon="5.87427">
        <ele>369.2836914</ele>
        <time>2011-09-04T06:17:48Z</time>
      </trkpt>
      <trkpt lat="45.58323" lon="5.87444">
        <ele>370.244873</ele>
        <time>2011-09-04T06:17:53Z</time>
      </trkpt>
      <trkpt lat="45.58314" lon="5.87445">
        <ele>371.2062988</ele>
        <time>2011-09-04T06:17:57Z</time>
      </trkpt>
      <trkpt lat="45.58311" lon="5.87441">
        <ele>372.1674805</ele>
        <time>2011-09-04T06:17:59Z</time>
      </trkpt>
      <trkpt lat="45.58293" lon="5.87433">
        <ele>375.0515137</ele>
        <time>2011-09-04T06:18:06Z</time>
      </trkpt>
      <trkpt lat="45.58281" lon="5.87428">
        <ele>375.5321045</ele>
        <time>2011-09-04T06:18:11Z</time>
      </trkpt>
      <trkpt lat="45.58269" lon="5.87422">
        <ele>376.4935303</ele>
        <time>2011-09-04T06:18:16Z</time>
      </trkpt>
      <trkpt lat="45.58256" lon="5.87414">
        <ele>377.454834</ele>
        <time>2011-09-04T06:18:22Z</time>
      </trkpt>
      <trkpt lat="45.58245" lon="5.87403">
        <ele>379.3774414</ele>
        <time>2011-09-04T06:18:27Z</time>
      </trkpt>
      <trkpt lat="45.58233" lon="5.87391">
        <ele>380.819458</ele>
        <time>2011-09-04T06:18:31Z</time>
      </trkpt>
      <trkpt lat="45.58218" lon="5.87381">
        <ele>381.7806396</ele>
        <time>2011-09-04T06:18:36Z</time>
      </trkpt>
      <trkpt lat="45.58196" lon="5.87366">
        <ele>381.7806396</ele>
        <time>2011-09-04T06:18:43Z</time>
      </trkpt>
      <trkpt lat="45.58182" lon="5.87349">
        <ele>380.819458</ele>
        <time>2011-09-04T06:18:48Z</time>
      </trkpt>
      <trkpt lat="45.58167" lon="5.87334">
        <ele>379.3774414</ele>
        <time>2011-09-04T06:18:52Z</time>
      </trkpt>
      <trkpt lat="45.5815" lon="5.8733">
        <ele>379.8580322</ele>
        <time>2011-09-04T06:18:57Z</time>
      </trkpt>
      <trkpt lat="45.58123" lon="5.87323">
        <ele>382.7420654</ele>
        <time>2011-09-04T06:19:05Z</time>
      </trkpt>
      <trkpt lat="45.58099" lon="5.87317">
        <ele>386.5874023</ele>
        <time>2011-09-04T06:19:13Z</time>
      </trkpt>
      <trkpt lat="45.58075" lon="5.87312">
        <ele>390.4326172</ele>
        <time>2011-09-04T06:19:21Z</time>
      </trkpt>
      <trkpt lat="45.58055" lon="5.87305">
        <ele>393.7972412</ele>
        <time>2011-09-04T06:19:28Z</time>
      </trkpt>
      <trkpt lat="45.58038" lon="5.87294">
        <ele>394.2779541</ele>
        <time>2011-09-04T06:19:34Z</time>
      </trkpt>
      <trkpt lat="45.58027" lon="5.87289">
        <ele>394.7585449</ele>
        <time>2011-09-04T06:19:38Z</time>
      </trkpt>
      <trkpt lat="45.58004" lon="5.87279">
        <ele>397.6424561</ele>
        <time>2011-09-04T06:19:46Z</time>
      </trkpt>
      <trkpt lat="45.57988" lon="5.87273">
        <ele>397.1617432</ele>
        <time>2011-09-04T06:19:51Z</time>
      </trkpt>
      <trkpt lat="45.57972" lon="5.87264">
        <ele>397.1617432</ele>
        <time>2011-09-04T06:19:57Z</time>
      </trkpt>
      <trkpt lat="45.57963" lon="5.87267">
        <ele>397.6424561</ele>
        <time>2011-09-04T06:20:01Z</time>
      </trkpt>
      <trkpt lat="45.57963" lon="5.87278">
        <ele>398.1231689</ele>
        <time>2011-09-04T06:20:05Z</time>
      </trkpt>
      <trkpt lat="45.57972" lon="5.87285">
        <ele>398.6037598</ele>
        <time>2011-09-04T06:20:09Z</time>
      </trkpt>
      <trkpt lat="45.57979" lon="5.87292">
        <ele>399.0843506</ele>
        <time>2011-09-04T06:20:12Z</time>
      </trkpt>
      <trkpt lat="45.5799" lon="5.87308">
        <ele>400.5264893</ele>
        <time>2011-09-04T06:20:17Z</time>
      </trkpt>
      <trkpt lat="45.58002" lon="5.87326">
        <ele>403.8911133</ele>
        <time>2011-09-04T06:20:23Z</time>
      </trkpt>
      <trkpt lat="45.58012" lon="5.87341">
        <ele>409.6590576</ele>
        <time>2011-09-04T06:20:28Z</time>
      </trkpt>
      <trkpt lat="45.58025" lon="5.87358">
        <ele>413.0235596</ele>
        <time>2011-09-04T06:20:33Z</time>
      </trkpt>
      <trkpt lat="45.58038" lon="5.87372">
        <ele>412.5428467</ele>
        <time>2011-09-04T06:20:38Z</time>
      </trkpt>
      <trkpt lat="45.58055" lon="5.8739">
        <ele>412.5428467</ele>
        <time>2011-09-04T06:20:44Z</time>
      </trkpt>
      <trkpt lat="45.58072" lon="5.87408">
        <ele>411.1009521</ele>
        <time>2011-09-04T06:20:50Z</time>
      </trkpt>
      <trkpt lat="45.58084" lon="5.87421">
        <ele>409.1783447</ele>
        <time>2011-09-04T06:20:55Z</time>
      </trkpt>
      <trkpt lat="45.58099" lon="5.87439">
        <ele>406.2943115</ele>
        <time>2011-09-04T06:21:01Z</time>
      </trkpt>
      <trkpt lat="45.58094" lon="5.8745">
        <ele>405.8137207</ele>
        <time>2011-09-04T06:21:06Z</time>
      </trkpt>
      <trkpt lat="45.58092" lon="5.87451">
        <ele>405.8137207</ele>
        <time>2011-09-04T06:21:11Z</time>
      </trkpt>
      <trkpt lat="45.58088" lon="5.87455">
        <ele>406.2943115</ele>
        <time>2011-09-04T06:21:18Z</time>
      </trkpt>
      <trkpt lat="45.58088" lon="5.87454">
        <ele>405.3330078</ele>
        <time>2011-09-04T06:21:19Z</time>
      </trkpt>
      <trkpt lat="45.58087" lon="5.87455">
        <ele>406.2943115</ele>
        <time>2011-09-04T06:21:29Z</time>
      </trkpt>
      <trkpt lat="45.58087" lon="5.87456">
        <ele>407.7363281</ele>
        <time>2011-09-04T06:21:34Z</time>
      </trkpt>
      <trkpt lat="45.58089" lon="5.87459">
        <ele>411.1009521</ele>
        <time>2011-09-04T06:21:43Z</time>
      </trkpt>
      <trkpt lat="45.58087" lon="5.87459">
        <ele>413.5042725</ele>
        <time>2011-09-04T06:21:53Z</time>
      </trkpt>
      <trkpt lat="45.58088" lon="5.8746">
        <ele>414.946167</ele>
        <time>2011-09-04T06:22:02Z</time>
      </trkpt>
      <trkpt lat="45.58087" lon="5.87459">
        <ele>413.9848633</ele>
        <time>2011-09-04T06:22:17Z</time>
      </trkpt>
      <trkpt lat="45.58087" lon="5.87458">
        <ele>413.9848633</ele>
        <time>2011-09-04T06:22:23Z</time>
      </trkpt>
      <trkpt lat="45.58086" lon="5.87464">
        <ele>413.0235596</ele>
        <time>2011-09-04T06:22:28Z</time>
      </trkpt>
      <trkpt lat="45.58079" lon="5.87477">
        <ele>413.9848633</ele>
        <time>2011-09-04T06:22:34Z</time>
      </trkpt>
      <trkpt lat="45.5807" lon="5.87491">
        <ele>415.4268799</ele>
        <time>2011-09-04T06:22:41Z</time>
      </trkpt>
      <trkpt lat="45.58053" lon="5.87499">
        <ele>417.3496094</ele>
        <time>2011-09-04T06:22:50Z</time>
      </trkpt>
      <trkpt lat="45.58035" lon="5.87504">
        <ele>417.8302002</ele>
        <time>2011-09-04T06:22:59Z</time>
      </trkpt>
      <trkpt lat="45.58019" lon="5.8751">
        <ele>419.7528076</ele>
        <time>2011-09-04T06:23:07Z</time>
      </trkpt>
      <trkpt lat="45.57999" lon="5.87517">
        <ele>421.1948242</ele>
        <time>2011-09-04T06:23:17Z</time>
      </trkpt>
      <trkpt lat="45.57976" lon="5.87521">
        <ele>424.0787354</ele>
        <time>2011-09-04T06:23:28Z</time>
      </trkpt>
      <trkpt lat="45.57959" lon="5.87522">
        <ele>425.520752</ele>
        <time>2011-09-04T06:23:37Z</time>
      </trkpt>
      <trkpt lat="45.57937" lon="5.8752">
        <ele>428.4046631</ele>
        <time>2011-09-04T06:23:48Z</time>
      </trkpt>
      <trkpt lat="45.57917" lon="5.8752">
        <ele>430.8079834</ele>
        <time>2011-09-04T06:23:59Z</time>
      </trkpt>
      <trkpt lat="45.57902" lon="5.87519">
        <ele>432.25</ele>
        <time>2011-09-04T06:24:07Z</time>
      </trkpt>
      <trkpt lat="45.57882" lon="5.87514">
        <ele>433.6918945</ele>
        <time>2011-09-04T06:24:17Z</time>
      </trkpt>
      <trkpt lat="45.5786" lon="5.87513">
        <ele>436.0952148</ele>
        <time>2011-09-04T06:24:27Z</time>
      </trkpt>
      <trkpt lat="45.57837" lon="5.87508">
        <ele>438.979126</ele>
        <time>2011-09-04T06:24:38Z</time>
      </trkpt>
      <trkpt lat="45.57823" lon="5.87505">
        <ele>439.4597168</ele>
        <time>2011-09-04T06:24:45Z</time>
      </trkpt>
      <trkpt lat="45.57801" lon="5.875">
        <ele>441.8631592</ele>
        <time>2011-09-04T06:24:55Z</time>
      </trkpt>
      <trkpt lat="45.57785" lon="5.87496">
        <ele>443.7857666</ele>
        <time>2011-09-04T06:25:03Z</time>
      </trkpt>
      <trkpt lat="45.57763" lon="5.87492">
        <ele>447.6309814</ele>
        <time>2011-09-04T06:25:14Z</time>
      </trkpt>
      <trkpt lat="45.57753" lon="5.87488">
        <ele>450.0344238</ele>
        <time>2011-09-04T06:25:21Z</time>
      </trkpt>
      <trkpt lat="45.5774" lon="5.87484">
        <ele>452.9182129</ele>
        <time>2011-09-04T06:25:29Z</time>
      </trkpt>
      <trkpt lat="45.57722" lon="5.87479">
        <ele>455.8022461</ele>
        <time>2011-09-04T06:25:39Z</time>
      </trkpt>
      <trkpt lat="45.57705" lon="5.87475">
        <ele>458.6861572</ele>
        <time>2011-09-04T06:25:49Z</time>
      </trkpt>
      <trkpt lat="45.5769" lon="5.87471">
        <ele>463.012085</ele>
        <time>2011-09-04T06:25:58Z</time>
      </trkpt>
      <trkpt lat="45.57677" lon="5.87468">
        <ele>464.9348145</ele>
        <time>2011-09-04T06:26:06Z</time>
      </trkpt>
      <trkpt lat="45.57664" lon="5.87462">
        <ele>466.8574219</ele>
        <time>2011-09-04T06:26:14Z</time>
      </trkpt>
      <trkpt lat="45.57662" lon="5.87451">
        <ele>466.8574219</ele>
        <time>2011-09-04T06:26:19Z</time>
      </trkpt>
      <trkpt lat="45.5766" lon="5.87434">
        <ele>464.4541016</ele>
        <time>2011-09-04T06:26:26Z</time>
      </trkpt>
      <trkpt lat="45.57661" lon="5.87427">
        <ele>463.4927979</ele>
        <time>2011-09-04T06:26:29Z</time>
      </trkpt>
      <trkpt lat="45.57654" lon="5.87416">
        <ele>461.0894775</ele>
        <time>2011-09-04T06:26:34Z</time>
      </trkpt>
      <trkpt lat="45.57639" lon="5.87399">
        <ele>456.7635498</ele>
        <time>2011-09-04T06:26:40Z</time>
      </trkpt>
      <trkpt lat="45.57624" lon="5.87381">
        <ele>452.4376221</ele>
        <time>2011-09-04T06:26:45Z</time>
      </trkpt>
      <trkpt lat="45.57613" lon="5.87362">
        <ele>449.5537109</ele>
        <time>2011-09-04T06:26:49Z</time>
      </trkpt>
      <trkpt lat="45.57598" lon="5.87349">
        <ele>452.4376221</ele>
        <time>2011-09-04T06:26:53Z</time>
      </trkpt>
      <trkpt lat="45.57567" lon="5.87331">
        <ele>456.282959</ele>
        <time>2011-09-04T06:26:59Z</time>
      </trkpt>
      <trkpt lat="45.57544" lon="5.87316">
        <ele>459.1668701</ele>
        <time>2011-09-04T06:27:03Z</time>
      </trkpt>
      <trkpt lat="45.57534" lon="5.8731">
        <ele>460.6087646</ele>
        <time>2011-09-04T06:27:05Z</time>
      </trkpt>
      <trkpt lat="45.57506" lon="5.87293">
        <ele>463.012085</ele>
        <time>2011-09-04T06:27:11Z</time>
      </trkpt>
      <trkpt lat="45.57496" lon="5.87287">
        <ele>462.5313721</ele>
        <time>2011-09-04T06:27:13Z</time>
      </trkpt>
      <trkpt lat="45.57473" lon="5.87271">
        <ele>462.0507813</ele>
        <time>2011-09-04T06:27:18Z</time>
      </trkpt>
      <trkpt lat="45.57467" lon="5.87267">
        <ele>462.5313721</ele>
        <time>2011-09-04T06:27:19Z</time>
      </trkpt>
      <trkpt lat="45.57434" lon="5.87251">
        <ele>460.6087646</ele>
        <time>2011-09-04T06:27:24Z</time>
      </trkpt>
      <trkpt lat="45.57409" lon="5.87237">
        <ele>458.2055664</ele>
        <time>2011-09-04T06:27:28Z</time>
      </trkpt>
      <trkpt lat="45.57379" lon="5.8722">
        <ele>455.8022461</ele>
        <time>2011-09-04T06:27:33Z</time>
      </trkpt>
      <trkpt lat="45.5735" lon="5.87204">
        <ele>455.3215332</ele>
        <time>2011-09-04T06:27:38Z</time>
      </trkpt>
      <trkpt lat="45.57314" lon="5.87183">
        <ele>455.8022461</ele>
        <time>2011-09-04T06:27:44Z</time>
      </trkpt>
      <trkpt lat="45.57298" lon="5.87175">
        <ele>455.3215332</ele>
        <time>2011-09-04T06:27:47Z</time>
      </trkpt>
      <trkpt lat="45.57279" lon="5.87172">
        <ele>453.8796387</ele>
        <time>2011-09-04T06:27:51Z</time>
      </trkpt>
      <trkpt lat="45.57259" lon="5.87153">
        <ele>454.3602295</ele>
        <time>2011-09-04T06:27:57Z</time>
      </trkpt>
      <trkpt lat="45.57237" lon="5.8713">
        <ele>454.3602295</ele>
        <time>2011-09-04T06:28:01Z</time>
      </trkpt>
      <trkpt lat="45.57195" lon="5.87113">
        <ele>452.9182129</ele>
        <time>2011-09-04T06:28:06Z</time>
      </trkpt>
      <trkpt lat="45.57178" lon="5.87111">
        <ele>451.9570313</ele>
        <time>2011-09-04T06:28:08Z</time>
      </trkpt>
      <trkpt lat="45.57144" lon="5.87111">
        <ele>450.5150146</ele>
        <time>2011-09-04T06:28:13Z</time>
      </trkpt>
      <trkpt lat="45.57138" lon="5.87112">
        <ele>449.5537109</ele>
        <time>2011-09-04T06:28:14Z</time>
      </trkpt>
      <trkpt lat="45.57104" lon="5.87122">
        <ele>442.8244629</ele>
        <time>2011-09-04T06:28:19Z</time>
      </trkpt>
      <trkpt lat="45.57086" lon="5.87126">
        <ele>440.4212646</ele>
        <time>2011-09-04T06:28:22Z</time>
      </trkpt>
      <trkpt lat="45.57079" lon="5.87128">
        <ele>438.0178223</ele>
        <time>2011-09-04T06:28:26Z</time>
      </trkpt>
      <trkpt lat="45.57078" lon="5.87129">
        <ele>437.5371094</ele>
        <time>2011-09-04T06:28:31Z</time>
      </trkpt>
      <trkpt lat="45.57078" lon="5.8713">
        <ele>438.0178223</ele>
        <time>2011-09-04T06:28:36Z</time>
      </trkpt>
      <trkpt lat="45.57079" lon="5.87131">
        <ele>437.0565186</ele>
        <time>2011-09-04T06:28:42Z</time>
      </trkpt>
      <trkpt lat="45.57078" lon="5.87132">
        <ele>437.0565186</ele>
        <time>2011-09-04T06:28:52Z</time>
      </trkpt>
      <trkpt lat="45.57077" lon="5.87132">
        <ele>437.0565186</ele>
        <time>2011-09-04T06:28:59Z</time>
      </trkpt>
      <trkpt lat="45.57078" lon="5.87132">
        <ele>436.0952148</ele>
        <time>2011-09-04T06:29:16Z</time>
      </trkpt>
      <trkpt lat="45.57079" lon="5.87134">
        <ele>435.614502</ele>
        <time>2011-09-04T06:29:29Z</time>
      </trkpt>
      <trkpt lat="45.57078" lon="5.87127">
        <ele>435.1339111</ele>
        <time>2011-09-04T06:29:35Z</time>
      </trkpt>
      <trkpt lat="45.57075" lon="5.87103">
        <ele>433.2113037</ele>
        <time>2011-09-04T06:29:39Z</time>
      </trkpt>
      <trkpt lat="45.57075" lon="5.87065">
        <ele>430.3272705</ele>
        <time>2011-09-04T06:29:43Z</time>
      </trkpt>
      <trkpt lat="45.57083" lon="5.87024">
        <ele>426.9627686</ele>
        <time>2011-09-04T06:29:47Z</time>
      </trkpt>
      <trkpt lat="45.57085" lon="5.87016">
        <ele>426.0013428</ele>
        <time>2011-09-04T06:29:48Z</time>
      </trkpt>
      <trkpt lat="45.571" lon="5.86968">
        <ele>419.7528076</ele>
        <time>2011-09-04T06:29:54Z</time>
      </trkpt>
      <trkpt lat="45.57107" lon="5.86937">
        <ele>415.9074707</ele>
        <time>2011-09-04T06:29:59Z</time>
      </trkpt>
      <trkpt lat="45.57102" lon="5.86919">
        <ele>415.4268799</ele>
        <time>2011-09-04T06:30:03Z</time>
      </trkpt>
      <trkpt lat="45.57082" lon="5.86896">
        <ele>417.8302002</ele>
        <time>2011-09-04T06:30:11Z</time>
      </trkpt>
      <trkpt lat="45.57054" lon="5.86864">
        <ele>418.310791</ele>
        <time>2011-09-04T06:30:20Z</time>
      </trkpt>
      <trkpt lat="45.57041" lon="5.86848">
        <ele>418.7915039</ele>
        <time>2011-09-04T06:30:24Z</time>
      </trkpt>
      <trkpt lat="45.57027" lon="5.86816">
        <ele>421.1948242</ele>
        <time>2011-09-04T06:30:32Z</time>
      </trkpt>
      <trkpt lat="45.57014" lon="5.8679">
        <ele>422.6367188</ele>
        <time>2011-09-04T06:30:39Z</time>
      </trkpt>
      <trkpt lat="45.56997" lon="5.86775">
        <ele>423.1174316</ele>
        <time>2011-09-04T06:30:45Z</time>
      </trkpt>
      <trkpt lat="45.56982" lon="5.8677">
        <ele>425.0401611</ele>
        <time>2011-09-04T06:30:50Z</time>
      </trkpt>
      <trkpt lat="45.56969" lon="5.86771">
        <ele>423.5980225</ele>
        <time>2011-09-04T06:30:55Z</time>
      </trkpt>
      <trkpt lat="45.5695" lon="5.86772">
        <ele>424.0787354</ele>
        <time>2011-09-04T06:31:00Z</time>
      </trkpt>
      <trkpt lat="45.56932" lon="5.86772">
        <ele>426.0013428</ele>
        <time>2011-09-04T06:31:04Z</time>
      </trkpt>
      <trkpt lat="45.56911" lon="5.86776">
        <ele>426.4820557</ele>
        <time>2011-09-04T06:31:08Z</time>
      </trkpt>
      <trkpt lat="45.56885" lon="5.86782">
        <ele>426.0013428</ele>
        <time>2011-09-04T06:31:12Z</time>
      </trkpt>
      <trkpt lat="45.56879" lon="5.86781">
        <ele>425.520752</ele>
        <time>2011-09-04T06:31:13Z</time>
      </trkpt>
      <trkpt lat="45.56844" lon="5.86764">
        <ele>426.9627686</ele>
        <time>2011-09-04T06:31:20Z</time>
      </trkpt>
      <trkpt lat="45.56827" lon="5.86757">
        <ele>426.4820557</ele>
        <time>2011-09-04T06:31:24Z</time>
      </trkpt>
      <trkpt lat="45.56808" lon="5.86751">
        <ele>425.520752</ele>
        <time>2011-09-04T06:31:29Z</time>
      </trkpt>
      <trkpt lat="45.56801" lon="5.86744">
        <ele>425.0401611</ele>
        <time>2011-09-04T06:31:33Z</time>
      </trkpt>
      <trkpt lat="45.56808" lon="5.86739">
        <ele>424.0787354</ele>
        <time>2011-09-04T06:31:36Z</time>
      </trkpt>
      <trkpt lat="45.56831" lon="5.86728">
        <ele>423.5980225</ele>
        <time>2011-09-04T06:31:42Z</time>
      </trkpt>
      <trkpt lat="45.56846" lon="5.86715">
        <ele>424.5594482</ele>
        <time>2011-09-04T06:31:47Z</time>
      </trkpt>
      <trkpt lat="45.56856" lon="5.86705">
        <ele>423.5980225</ele>
        <time>2011-09-04T06:31:51Z</time>
      </trkpt>
      <trkpt lat="45.56873" lon="5.86692">
        <ele>420.7141113</ele>
        <time>2011-09-04T06:31:56Z</time>
      </trkpt>
      <trkpt lat="45.56886" lon="5.86678">
        <ele>417.8302002</ele>
        <time>2011-09-04T06:31:59Z</time>
      </trkpt>
      <trkpt lat="45.56907" lon="5.86654">
        <ele>413.0235596</ele>
        <time>2011-09-04T06:32:03Z</time>
      </trkpt>
      <trkpt lat="45.56928" lon="5.86639">
        <ele>408.6976318</ele>
        <time>2011-09-04T06:32:07Z</time>
      </trkpt>
      <trkpt lat="45.56953" lon="5.86629">
        <ele>417.8302002</ele>
        <time>2011-09-04T06:32:12Z</time>
      </trkpt>
      <trkpt lat="45.56956" lon="5.86628">
        <ele>417.8302002</ele>
        <time>2011-09-04T06:32:13Z</time>
      </trkpt>
      <trkpt lat="45.56972" lon="5.86623">
        <ele>417.8302002</ele>
        <time>2011-09-04T06:32:18Z</time>
      </trkpt>
      <trkpt lat="45.56991" lon="5.86626">
        <ele>416.8688965</ele>
        <time>2011-09-04T06:32:22Z</time>
      </trkpt>
      <trkpt lat="45.57021" lon="5.86632">
        <ele>414.4654541</ele>
        <time>2011-09-04T06:32:28Z</time>
      </trkpt>
      <trkpt lat="45.57033" lon="5.86634">
        <ele>413.0235596</ele>
        <time>2011-09-04T06:32:30Z</time>
      </trkpt>
      <trkpt lat="45.57053" lon="5.86636">
        <ele>409.1783447</ele>
        <time>2011-09-04T06:32:34Z</time>
      </trkpt>
      <trkpt lat="45.57081" lon="5.8665">
        <ele>408.217041</ele>
        <time>2011-09-04T06:32:40Z</time>
      </trkpt>
      <trkpt lat="45.57088" lon="5.86652">
        <ele>409.1783447</ele>
        <time>2011-09-04T06:32:42Z</time>
      </trkpt>
      <trkpt lat="45.57098" lon="5.86652">
        <ele>409.6590576</ele>
        <time>2011-09-04T06:32:46Z</time>
      </trkpt>
      <trkpt lat="45.57103" lon="5.86648">
        <ele>404.3717041</ele>
        <time>2011-09-04T06:32:49Z</time>
      </trkpt>
      <trkpt lat="45.57103" lon="5.86628">
        <ele>391.8745117</ele>
        <time>2011-09-04T06:32:56Z</time>
      </trkpt>
      <trkpt lat="45.57103" lon="5.86624">
        <ele>389.4711914</ele>
        <time>2011-09-04T06:33:01Z</time>
      </trkpt>
      <trkpt lat="45.5711" lon="5.8662">
        <ele>393.3165283</ele>
        <time>2011-09-04T06:33:09Z</time>
      </trkpt>
      <trkpt lat="45.5711" lon="5.86619">
        <ele>392.3553467</ele>
        <time>2011-09-04T06:33:10Z</time>
      </trkpt>
      <trkpt lat="45.57098" lon="5.86609">
        <ele>393.7972412</ele>
        <time>2011-09-04T06:33:17Z</time>
      </trkpt>
      <trkpt lat="45.57095" lon="5.86606">
        <ele>397.6424561</ele>
        <time>2011-09-04T06:33:19Z</time>
      </trkpt>
      <trkpt lat="45.57089" lon="5.86596">
        <ele>398.1231689</ele>
        <time>2011-09-04T06:33:23Z</time>
      </trkpt>
      <trkpt lat="45.57087" lon="5.86576">
        <ele>398.6037598</ele>
        <time>2011-09-04T06:33:29Z</time>
      </trkpt>
      <trkpt lat="45.57083" lon="5.86566">
        <ele>393.7972412</ele>
        <time>2011-09-04T06:33:34Z</time>
      </trkpt>
      <trkpt lat="45.57074" lon="5.86557">
        <ele>389.4711914</ele>
        <time>2011-09-04T06:33:39Z</time>
      </trkpt>
      <trkpt lat="45.57059" lon="5.86542">
        <ele>387.0679932</ele>
        <time>2011-09-04T06:33:43Z</time>
      </trkpt>
      <trkpt lat="45.57046" lon="5.8652">
        <ele>384.6647949</ele>
        <time>2011-09-04T06:33:47Z</time>
      </trkpt>
      <trkpt lat="45.57052" lon="5.86514">
        <ele>382.2613525</ele>
        <time>2011-09-04T06:33:50Z</time>
      </trkpt>
      <trkpt lat="45.57068" lon="5.86519">
        <ele>384.6647949</ele>
        <time>2011-09-04T06:33:54Z</time>
      </trkpt>
      <trkpt lat="45.57075" lon="5.86524">
        <ele>383.2226563</ele>
        <time>2011-09-04T06:33:56Z</time>
      </trkpt>
      <trkpt lat="45.57091" lon="5.86527">
        <ele>385.1453857</ele>
        <time>2011-09-04T06:34:03Z</time>
      </trkpt>
      <trkpt lat="45.57102" lon="5.86524">
        <ele>388.0292969</ele>
        <time>2011-09-04T06:34:10Z</time>
      </trkpt>
      <trkpt lat="45.57111" lon="5.86513">
        <ele>387.0679932</ele>
        <time>2011-09-04T06:34:16Z</time>
      </trkpt>
      <trkpt lat="45.57114" lon="5.86497">
        <ele>388.5100098</ele>
        <time>2011-09-04T06:34:23Z</time>
      </trkpt>
      <trkpt lat="45.57118" lon="5.86484">
        <ele>390.4326172</ele>
        <time>2011-09-04T06:34:29Z</time>
      </trkpt>
      <trkpt lat="45.57122" lon="5.86471">
        <ele>393.3165283</ele>
        <time>2011-09-04T06:34:36Z</time>
      </trkpt>
      <trkpt lat="45.57129" lon="5.86456">
        <ele>395.2391357</ele>
        <time>2011-09-04T06:34:44Z</time>
      </trkpt>
      <trkpt lat="45.57136" lon="5.8644">
        <ele>397.1617432</ele>
        <time>2011-09-04T06:34:52Z</time>
      </trkpt>
      <trkpt lat="45.57144" lon="5.86422">
        <ele>398.1231689</ele>
        <time>2011-09-04T06:35:00Z</time>
      </trkpt>
      <trkpt lat="45.57149" lon="5.86408">
        <ele>398.1231689</ele>
        <time>2011-09-04T06:35:06Z</time>
      </trkpt>
      <trkpt lat="45.57157" lon="5.86391">
        <ele>400.0458984</ele>
        <time>2011-09-04T06:35:14Z</time>
      </trkpt>
      <trkpt lat="45.57165" lon="5.86373">
        <ele>404.8522949</ele>
        <time>2011-09-04T06:35:23Z</time>
      </trkpt>
      <trkpt lat="45.57177" lon="5.86355">
        <ele>407.2556152</ele>
        <time>2011-09-04T06:35:33Z</time>
      </trkpt>
      <trkpt lat="45.57188" lon="5.86343">
        <ele>407.7363281</ele>
        <time>2011-09-04T06:35:40Z</time>
      </trkpt>
      <trkpt lat="45.57205" lon="5.8633">
        <ele>408.6976318</ele>
        <time>2011-09-04T06:35:48Z</time>
      </trkpt>
      <trkpt lat="45.57224" lon="5.86315">
        <ele>409.6590576</ele>
        <time>2011-09-04T06:35:57Z</time>
      </trkpt>
      <trkpt lat="45.57233" lon="5.86303">
        <ele>410.6202393</ele>
        <time>2011-09-04T06:36:02Z</time>
      </trkpt>
      <trkpt lat="45.57244" lon="5.86283">
        <ele>411.581665</ele>
        <time>2011-09-04T06:36:10Z</time>
      </trkpt>
      <trkpt lat="45.5725" lon="5.86258">
        <ele>413.0235596</ele>
        <time>2011-09-04T06:36:17Z</time>
      </trkpt>
      <trkpt lat="45.57259" lon="5.86212">
        <ele>415.4268799</ele>
        <time>2011-09-04T06:36:28Z</time>
      </trkpt>
      <trkpt lat="45.57266" lon="5.86183">
        <ele>416.8688965</ele>
        <time>2011-09-04T06:36:36Z</time>
      </trkpt>
      <trkpt lat="45.5727" lon="5.86161">
        <ele>418.7915039</ele>
        <time>2011-09-04T06:36:43Z</time>
      </trkpt>
      <trkpt lat="45.57267" lon="5.86137">
        <ele>419.2722168</ele>
        <time>2011-09-04T06:36:50Z</time>
      </trkpt>
      <trkpt lat="45.5726" lon="5.86108">
        <ele>420.7141113</ele>
        <time>2011-09-04T06:36:58Z</time>
      </trkpt>
      <trkpt lat="45.57251" lon="5.86075">
        <ele>422.1560059</ele>
        <time>2011-09-04T06:37:07Z</time>
      </trkpt>
      <trkpt lat="45.57246" lon="5.86045">
        <ele>423.1174316</ele>
        <time>2011-09-04T06:37:15Z</time>
      </trkpt>
      <trkpt lat="45.57241" lon="5.86022">
        <ele>424.5594482</ele>
        <time>2011-09-04T06:37:22Z</time>
      </trkpt>
      <trkpt lat="45.57239" lon="5.86004">
        <ele>425.0401611</ele>
        <time>2011-09-04T06:37:27Z</time>
      </trkpt>
      <trkpt lat="45.57236" lon="5.85979">
        <ele>426.4820557</ele>
        <time>2011-09-04T06:37:34Z</time>
      </trkpt>
      <trkpt lat="45.57228" lon="5.85952">
        <ele>427.4433594</ele>
        <time>2011-09-04T06:37:42Z</time>
      </trkpt>
      <trkpt lat="45.57219" lon="5.85926">
        <ele>427.9239502</ele>
        <time>2011-09-04T06:37:49Z</time>
      </trkpt>
      <trkpt lat="45.57213" lon="5.85911">
        <ele>429.3659668</ele>
        <time>2011-09-04T06:37:54Z</time>
      </trkpt>
      <trkpt lat="45.57203" lon="5.85894">
        <ele>431.769165</ele>
        <time>2011-09-04T06:38:00Z</time>
      </trkpt>
      <trkpt lat="45.57192" lon="5.85892">
        <ele>433.2113037</ele>
        <time>2011-09-04T06:38:04Z</time>
      </trkpt>
      <trkpt lat="45.57166" lon="5.85884">
        <ele>435.614502</ele>
        <time>2011-09-04T06:38:12Z</time>
      </trkpt>
      <trkpt lat="45.57151" lon="5.85867">
        <ele>437.5371094</ele>
        <time>2011-09-04T06:38:18Z</time>
      </trkpt>
      <trkpt lat="45.57139" lon="5.85845">
        <ele>438.979126</ele>
        <time>2011-09-04T06:38:25Z</time>
      </trkpt>
      <trkpt lat="45.57124" lon="5.8582">
        <ele>437.5371094</ele>
        <time>2011-09-04T06:38:33Z</time>
      </trkpt>
      <trkpt lat="45.57112" lon="5.85814">
        <ele>437.5371094</ele>
        <time>2011-09-04T06:38:37Z</time>
      </trkpt>
      <trkpt lat="45.57097" lon="5.85811">
        <ele>438.979126</ele>
        <time>2011-09-04T06:38:43Z</time>
      </trkpt>
      <trkpt lat="45.57087" lon="5.85811">
        <ele>440.9018555</ele>
        <time>2011-09-04T06:38:48Z</time>
      </trkpt>
      <trkpt lat="45.57073" lon="5.85812">
        <ele>441.8631592</ele>
        <time>2011-09-04T06:38:55Z</time>
      </trkpt>
      <trkpt lat="45.57056" lon="5.85807">
        <ele>441.8631592</ele>
        <time>2011-09-04T06:39:01Z</time>
      </trkpt>
      <trkpt lat="45.57038" lon="5.85796">
        <ele>441.3824463</ele>
        <time>2011-09-04T06:39:06Z</time>
      </trkpt>
      <trkpt lat="45.5703" lon="5.85784">
        <ele>441.3824463</ele>
        <time>2011-09-04T06:39:10Z</time>
      </trkpt>
      <trkpt lat="45.5702" lon="5.85773">
        <ele>440.9018555</ele>
        <time>2011-09-04T06:39:14Z</time>
      </trkpt>
      <trkpt lat="45.57006" lon="5.85761">
        <ele>438.979126</ele>
        <time>2011-09-04T06:39:19Z</time>
      </trkpt>
      <trkpt lat="45.56986" lon="5.85746">
        <ele>439.9404297</ele>
        <time>2011-09-04T06:39:25Z</time>
      </trkpt>
      <trkpt lat="45.56968" lon="5.85732">
        <ele>443.3050537</ele>
        <time>2011-09-04T06:39:31Z</time>
      </trkpt>
      <trkpt lat="45.56951" lon="5.85717">
        <ele>444.7470703</ele>
        <time>2011-09-04T06:39:37Z</time>
      </trkpt>
      <trkpt lat="45.56937" lon="5.85695">
        <ele>445.2276611</ele>
        <time>2011-09-04T06:39:43Z</time>
      </trkpt>
      <trkpt lat="45.56924" lon="5.85668">
        <ele>446.6696777</ele>
        <time>2011-09-04T06:39:51Z</time>
      </trkpt>
      <trkpt lat="45.56912" lon="5.85641">
        <ele>449.072998</ele>
        <time>2011-09-04T06:40:00Z</time>
      </trkpt>
      <trkpt lat="45.56901" lon="5.85618">
        <ele>451.9570313</ele>
        <time>2011-09-04T06:40:09Z</time>
      </trkpt>
      <trkpt lat="45.56893" lon="5.85605">
        <ele>453.8796387</ele>
        <time>2011-09-04T06:40:15Z</time>
      </trkpt>
      <trkpt lat="45.56882" lon="5.85584">
        <ele>456.282959</ele>
        <time>2011-09-04T06:40:24Z</time>
      </trkpt>
      <trkpt lat="45.56872" lon="5.85565">
        <ele>458.2055664</ele>
        <time>2011-09-04T06:40:32Z</time>
      </trkpt>
      <trkpt lat="45.56864" lon="5.85548">
        <ele>460.6087646</ele>
        <time>2011-09-04T06:40:39Z</time>
      </trkpt>
      <trkpt lat="45.56855" lon="5.85529">
        <ele>462.5313721</ele>
        <time>2011-09-04T06:40:47Z</time>
      </trkpt>
      <trkpt lat="45.5685" lon="5.85511">
        <ele>464.9348145</ele>
        <time>2011-09-04T06:40:54Z</time>
      </trkpt>
      <trkpt lat="45.56849" lon="5.85509">
        <ele>464.9348145</ele>
        <time>2011-09-04T06:40:55Z</time>
      </trkpt>
      <trkpt lat="45.56849" lon="5.85492">
        <ele>466.376709</ele>
        <time>2011-09-04T06:41:01Z</time>
      </trkpt>
      <trkpt lat="45.56852" lon="5.85482">
        <ele>466.376709</ele>
        <time>2011-09-04T06:41:05Z</time>
      </trkpt>
      <trkpt lat="45.56857" lon="5.85466">
        <ele>463.4927979</ele>
        <time>2011-09-04T06:41:11Z</time>
      </trkpt>
      <trkpt lat="45.56859" lon="5.85455">
        <ele>461.5701904</ele>
        <time>2011-09-04T06:41:15Z</time>
      </trkpt>
      <trkpt lat="45.56859" lon="5.85436">
        <ele>458.2055664</ele>
        <time>2011-09-04T06:41:20Z</time>
      </trkpt>
      <trkpt lat="45.5686" lon="5.85433">
        <ele>458.6861572</ele>
        <time>2011-09-04T06:41:21Z</time>
      </trkpt>
      <trkpt lat="45.5686" lon="5.85404">
        <ele>461.0894775</ele>
        <time>2011-09-04T06:41:27Z</time>
      </trkpt>
      <trkpt lat="45.56856" lon="5.85383">
        <ele>466.376709</ele>
        <time>2011-09-04T06:41:32Z</time>
      </trkpt>
      <trkpt lat="45.56846" lon="5.85358">
        <ele>464.9348145</ele>
        <time>2011-09-04T06:41:38Z</time>
      </trkpt>
      <trkpt lat="45.5684" lon="5.85345">
        <ele>465.8961182</ele>
        <time>2011-09-04T06:41:43Z</time>
      </trkpt>
      <trkpt lat="45.56833" lon="5.85329">
        <ele>467.3381348</ele>
        <time>2011-09-04T06:41:50Z</time>
      </trkpt>
      <trkpt lat="45.56824" lon="5.85308">
        <ele>468.7800293</ele>
        <time>2011-09-04T06:41:59Z</time>
      </trkpt>
      <trkpt lat="45.56818" lon="5.85291">
        <ele>469.741333</ele>
        <time>2011-09-04T06:42:06Z</time>
      </trkpt>
      <trkpt lat="45.56809" lon="5.85277">
        <ele>471.1833496</ele>
        <time>2011-09-04T06:42:13Z</time>
      </trkpt>
      <trkpt lat="45.568" lon="5.85266">
        <ele>473.5866699</ele>
        <time>2011-09-04T06:42:20Z</time>
      </trkpt>
      <trkpt lat="45.5679" lon="5.85256">
        <ele>475.5092773</ele>
        <time>2011-09-04T06:42:27Z</time>
      </trkpt>
      <trkpt lat="45.56784" lon="5.85241">
        <ele>478.8739014</ele>
        <time>2011-09-04T06:42:34Z</time>
      </trkpt>
      <trkpt lat="45.5678" lon="5.85228">
        <ele>480.7966309</ele>
        <time>2011-09-04T06:42:40Z</time>
      </trkpt>
      <trkpt lat="45.56776" lon="5.85216">
        <ele>483.6804199</ele>
        <time>2011-09-04T06:42:46Z</time>
      </trkpt>
      <trkpt lat="45.56776" lon="5.85215">
        <ele>484.1611328</ele>
        <time>2011-09-04T06:42:47Z</time>
      </trkpt>
      <trkpt lat="45.56774" lon="5.85209">
        <ele>486.0837402</ele>
        <time>2011-09-04T06:42:53Z</time>
      </trkpt>
      <trkpt lat="45.56771" lon="5.85199">
        <ele>487.5256348</ele>
        <time>2011-09-04T06:43:02Z</time>
      </trkpt>
      <trkpt lat="45.56769" lon="5.85189">
        <ele>488.4871826</ele>
        <time>2011-09-04T06:43:10Z</time>
      </trkpt>
      <trkpt lat="45.56766" lon="5.85179">
        <ele>488.0064697</ele>
        <time>2011-09-04T06:43:19Z</time>
      </trkpt>
      <trkpt lat="45.56762" lon="5.85169">
        <ele>488.9677734</ele>
        <time>2011-09-04T06:43:27Z</time>
      </trkpt>
      <trkpt lat="45.56759" lon="5.8516">
        <ele>490.40979</ele>
        <time>2011-09-04T06:43:35Z</time>
      </trkpt>
      <trkpt lat="45.56754" lon="5.85146">
        <ele>492.8129883</ele>
        <time>2011-09-04T06:43:47Z</time>
      </trkpt>
      <trkpt lat="45.5675" lon="5.85135">
        <ele>496.1777344</ele>
        <time>2011-09-04T06:43:56Z</time>
      </trkpt>
      <trkpt lat="45.56745" lon="5.85126">
        <ele>496.1777344</ele>
        <time>2011-09-04T06:44:04Z</time>
      </trkpt>
      <trkpt lat="45.56744" lon="5.85117">
        <ele>498.1003418</ele>
        <time>2011-09-04T06:44:12Z</time>
      </trkpt>
      <trkpt lat="45.56745" lon="5.85115">
        <ele>498.1003418</ele>
        <time>2011-09-04T06:44:18Z</time>
      </trkpt>
      <trkpt lat="45.56746" lon="5.85111">
        <ele>498.1003418</ele>
        <time>2011-09-04T06:44:23Z</time>
      </trkpt>
      <trkpt lat="45.56745" lon="5.85102">
        <ele>499.0615234</ele>
        <time>2011-09-04T06:44:29Z</time>
      </trkpt>
      <trkpt lat="45.56745" lon="5.8509">
        <ele>500.50354</ele>
        <time>2011-09-04T06:44:36Z</time>
      </trkpt>
      <trkpt lat="45.56745" lon="5.85075">
        <ele>502.9067383</ele>
        <time>2011-09-04T06:44:43Z</time>
      </trkpt>
      <trkpt lat="45.56746" lon="5.85061">
        <ele>504.8294678</ele>
        <time>2011-09-04T06:44:50Z</time>
      </trkpt>
      <trkpt lat="45.56746" lon="5.85045">
        <ele>507.713501</ele>
        <time>2011-09-04T06:44:58Z</time>
      </trkpt>
      <trkpt lat="45.56743" lon="5.85035">
        <ele>509.1553955</ele>
        <time>2011-09-04T06:45:03Z</time>
      </trkpt>
      <trkpt lat="45.56746" lon="5.85032">
        <ele>509.6361084</ele>
        <time>2011-09-04T06:45:09Z</time>
      </trkpt>
      <trkpt lat="45.56744" lon="5.85026">
        <ele>510.1166992</ele>
        <time>2011-09-04T06:45:15Z</time>
      </trkpt>
      <trkpt lat="45.56744" lon="5.85015">
        <ele>512.0394287</ele>
        <time>2011-09-04T06:45:23Z</time>
      </trkpt>
      <trkpt lat="45.56745" lon="5.85006">
        <ele>512.5200195</ele>
        <time>2011-09-04T06:45:30Z</time>
      </trkpt>
      <trkpt lat="45.56744" lon="5.84995">
        <ele>512.5200195</ele>
        <time>2011-09-04T06:45:35Z</time>
      </trkpt>
      <trkpt lat="45.56741" lon="5.84976">
        <ele>511.5587158</ele>
        <time>2011-09-04T06:45:40Z</time>
      </trkpt>
      <trkpt lat="45.56731" lon="5.84956">
        <ele>510.1166992</ele>
        <time>2011-09-04T06:45:44Z</time>
      </trkpt>
      <trkpt lat="45.56714" lon="5.84939">
        <ele>509.6361084</ele>
        <time>2011-09-04T06:45:48Z</time>
      </trkpt>
      <trkpt lat="45.56692" lon="5.84919">
        <ele>510.1166992</ele>
        <time>2011-09-04T06:45:55Z</time>
      </trkpt>
      <trkpt lat="45.56676" lon="5.84903">
        <ele>512.5200195</ele>
        <time>2011-09-04T06:46:02Z</time>
      </trkpt>
      <trkpt lat="45.56668" lon="5.84888">
        <ele>513.9620361</ele>
        <time>2011-09-04T06:46:08Z</time>
      </trkpt>
      <trkpt lat="45.56663" lon="5.8487">
        <ele>515.4040527</ele>
        <time>2011-09-04T06:46:14Z</time>
      </trkpt>
      <trkpt lat="45.56657" lon="5.84849">
        <ele>515.4040527</ele>
        <time>2011-09-04T06:46:21Z</time>
      </trkpt>
      <trkpt lat="45.5665" lon="5.84831">
        <ele>515.8846436</ele>
        <time>2011-09-04T06:46:27Z</time>
      </trkpt>
      <trkpt lat="45.56646" lon="5.84812">
        <ele>517.3266602</ele>
        <time>2011-09-04T06:46:33Z</time>
      </trkpt>
      <trkpt lat="45.5664" lon="5.84797">
        <ele>520.2105713</ele>
        <time>2011-09-04T06:46:40Z</time>
      </trkpt>
      <trkpt lat="45.56631" lon="5.84785">
        <ele>523.0946045</ele>
        <time>2011-09-04T06:46:47Z</time>
      </trkpt>
      <trkpt lat="45.56621" lon="5.84772">
        <ele>525.4978027</ele>
        <time>2011-09-04T06:46:54Z</time>
      </trkpt>
      <trkpt lat="45.56618" lon="5.84756">
        <ele>526.4591064</ele>
        <time>2011-09-04T06:47:00Z</time>
      </trkpt>
      <trkpt lat="45.56619" lon="5.84736">
        <ele>526.4591064</ele>
        <time>2011-09-04T06:47:08Z</time>
      </trkpt>
      <trkpt lat="45.5662" lon="5.84716">
        <ele>527.4204102</ele>
        <time>2011-09-04T06:47:16Z</time>
      </trkpt>
      <trkpt lat="45.56618" lon="5.84705">
        <ele>528.3818359</ele>
        <time>2011-09-04T06:47:21Z</time>
      </trkpt>
      <trkpt lat="45.5662" lon="5.84696">
        <ele>528.8625488</ele>
        <time>2011-09-04T06:47:25Z</time>
      </trkpt>
      <trkpt lat="45.56629" lon="5.84676">
        <ele>528.3818359</ele>
        <time>2011-09-04T06:47:33Z</time>
      </trkpt>
      <trkpt lat="45.56634" lon="5.84665">
        <ele>528.8625488</ele>
        <time>2011-09-04T06:47:39Z</time>
      </trkpt>
      <trkpt lat="45.56642" lon="5.84644">
        <ele>529.3431396</ele>
        <time>2011-09-04T06:47:48Z</time>
      </trkpt>
      <trkpt lat="45.56648" lon="5.84631">
        <ele>530.3044434</ele>
        <time>2011-09-04T06:47:55Z</time>
      </trkpt>
      <trkpt lat="45.56649" lon="5.84629">
        <ele>530.3044434</ele>
        <time>2011-09-04T06:47:56Z</time>
      </trkpt>
      <trkpt lat="45.56653" lon="5.84621">
        <ele>531.2657471</ele>
        <time>2011-09-04T06:48:01Z</time>
      </trkpt>
      <trkpt lat="45.56659" lon="5.84622">
        <ele>532.7077637</ele>
        <time>2011-09-04T06:48:05Z</time>
      </trkpt>
      <trkpt lat="45.56672" lon="5.84622">
        <ele>535.5915527</ele>
        <time>2011-09-04T06:48:13Z</time>
      </trkpt>
      <trkpt lat="45.56684" lon="5.84618">
        <ele>538.9562988</ele>
        <time>2011-09-04T06:48:21Z</time>
      </trkpt>
      <trkpt lat="45.5669" lon="5.84609">
        <ele>539.9176025</ele>
        <time>2011-09-04T06:48:27Z</time>
      </trkpt>
      <trkpt lat="45.56693" lon="5.84592">
        <ele>541.84021</ele>
        <time>2011-09-04T06:48:36Z</time>
      </trkpt>
      <trkpt lat="45.56692" lon="5.84573">
        <ele>544.2436523</ele>
        <time>2011-09-04T06:48:45Z</time>
      </trkpt>
      <trkpt lat="45.56694" lon="5.84564">
        <ele>546.1662598</ele>
        <time>2011-09-04T06:48:50Z</time>
      </trkpt>
      <trkpt lat="45.567" lon="5.84566">
        <ele>547.1274414</ele>
        <time>2011-09-04T06:48:55Z</time>
      </trkpt>
      <trkpt lat="45.56702" lon="5.84562">
        <ele>548.0888672</ele>
        <time>2011-09-04T06:48:58Z</time>
      </trkpt>
      <trkpt lat="45.567" lon="5.84555">
        <ele>549.5307617</ele>
        <time>2011-09-04T06:49:02Z</time>
      </trkpt>
      <trkpt lat="45.56704" lon="5.84546">
        <ele>551.4533691</ele>
        <time>2011-09-04T06:49:08Z</time>
      </trkpt>
      <trkpt lat="45.56708" lon="5.84539">
        <ele>551.934082</ele>
        <time>2011-09-04T06:49:13Z</time>
      </trkpt>
      <trkpt lat="45.5671" lon="5.84534">
        <ele>552.4145508</ele>
        <time>2011-09-04T06:49:16Z</time>
      </trkpt>
      <trkpt lat="45.56709" lon="5.84528">
        <ele>552.4145508</ele>
        <time>2011-09-04T06:49:23Z</time>
      </trkpt>
      <trkpt lat="45.5671" lon="5.84529">
        <ele>552.4145508</ele>
        <time>2011-09-04T06:49:30Z</time>
      </trkpt>
      <trkpt lat="45.56714" lon="5.84528">
        <ele>552.8952637</ele>
        <time>2011-09-04T06:49:36Z</time>
      </trkpt>
      <trkpt lat="45.56714" lon="5.84529">
        <ele>553.8566895</ele>
        <time>2011-09-04T06:49:43Z</time>
      </trkpt>
      <trkpt lat="45.5671" lon="5.8453">
        <ele>554.8178711</ele>
        <time>2011-09-04T06:49:49Z</time>
      </trkpt>
      <trkpt lat="45.56708" lon="5.84529">
        <ele>555.298584</ele>
        <time>2011-09-04T06:49:54Z</time>
      </trkpt>
      <trkpt lat="45.56705" lon="5.84533">
        <ele>554.8178711</ele>
        <time>2011-09-04T06:50:00Z</time>
      </trkpt>
      <trkpt lat="45.56704" lon="5.84534">
        <ele>555.298584</ele>
        <time>2011-09-04T06:50:06Z</time>
      </trkpt>
      <trkpt lat="45.56705" lon="5.84533">
        <ele>556.2600098</ele>
        <time>2011-09-04T06:50:13Z</time>
      </trkpt>
      <trkpt lat="45.56706" lon="5.84532">
        <ele>555.298584</ele>
        <time>2011-09-04T06:50:22Z</time>
      </trkpt>
      <trkpt lat="45.56708" lon="5.84528">
        <ele>553.3759766</ele>
        <time>2011-09-04T06:50:43Z</time>
      </trkpt>
      <trkpt lat="45.56707" lon="5.84527">
        <ele>553.3759766</ele>
        <time>2011-09-04T06:50:50Z</time>
      </trkpt>
      <trkpt lat="45.56709" lon="5.84529">
        <ele>553.8566895</ele>
        <time>2011-09-04T06:50:58Z</time>
      </trkpt>
      <trkpt lat="45.56711" lon="5.84528">
        <ele>554.8178711</ele>
        <time>2011-09-04T06:51:16Z</time>
      </trkpt>
      <trkpt lat="45.5671" lon="5.84529">
        <ele>555.7792969</ele>
        <time>2011-09-04T06:51:25Z</time>
      </trkpt>
      <trkpt lat="45.56709" lon="5.84529">
        <ele>558.6633301</ele>
        <time>2011-09-04T06:51:43Z</time>
      </trkpt>
      <trkpt lat="45.56707" lon="5.84529">
        <ele>558.6633301</ele>
        <time>2011-09-04T06:51:49Z</time>
      </trkpt>
      <trkpt lat="45.56708" lon="5.8453">
        <ele>558.1828613</ele>
        <time>2011-09-04T06:52:04Z</time>
      </trkpt>
      <trkpt lat="45.56709" lon="5.84531">
        <ele>556.7407227</ele>
        <time>2011-09-04T06:52:10Z</time>
      </trkpt>
      <trkpt lat="45.56711" lon="5.84527">
        <ele>555.7792969</ele>
        <time>2011-09-04T06:52:17Z</time>
      </trkpt>
      <trkpt lat="45.56712" lon="5.84526">
        <ele>555.7792969</ele>
        <time>2011-09-04T06:52:22Z</time>
      </trkpt>
      <trkpt lat="45.56711" lon="5.84524">
        <ele>554.3374023</ele>
        <time>2011-09-04T06:53:03Z</time>
      </trkpt>
      <trkpt lat="45.56712" lon="5.84525">
        <ele>555.7792969</ele>
        <time>2011-09-04T06:53:10Z</time>
      </trkpt>
      <trkpt lat="45.56713" lon="5.84526">
        <ele>556.7407227</ele>
        <time>2011-09-04T06:53:22Z</time>
      </trkpt>
      <trkpt lat="45.56707" lon="5.84525">
        <ele>553.8566895</ele>
        <time>2011-09-04T06:53:43Z</time>
      </trkpt>
      <trkpt lat="45.5671" lon="5.84528">
        <ele>554.8178711</ele>
        <time>2011-09-04T06:53:59Z</time>
      </trkpt>
      <trkpt lat="45.56711" lon="5.84528">
        <ele>555.7792969</ele>
        <time>2011-09-04T06:54:05Z</time>
      </trkpt>
      <trkpt lat="45.56712" lon="5.84529">
        <ele>556.7407227</ele>
        <time>2011-09-04T06:54:13Z</time>
      </trkpt>
      <trkpt lat="45.56713" lon="5.84529">
        <ele>556.7407227</ele>
        <time>2011-09-04T06:54:28Z</time>
      </trkpt>
      <trkpt lat="45.56713" lon="5.84528">
        <ele>557.2214355</ele>
        <time>2011-09-04T06:54:34Z</time>
      </trkpt>
      <trkpt lat="45.56713" lon="5.84527">
        <ele>558.1828613</ele>
        <time>2011-09-04T06:54:42Z</time>
      </trkpt>
      <trkpt lat="45.56713" lon="5.84528">
        <ele>558.6633301</ele>
        <time>2011-09-04T06:54:51Z</time>
      </trkpt>
      <trkpt lat="45.56714" lon="5.84528">
        <ele>560.1052246</ele>
        <time>2011-09-04T06:55:05Z</time>
      </trkpt>
      <trkpt lat="45.56714" lon="5.84529">
        <ele>561.0666504</ele>
        <time>2011-09-04T06:55:16Z</time>
      </trkpt>
      <trkpt lat="45.56714" lon="5.84528">
        <ele>561.0666504</ele>
        <time>2011-09-04T06:55:23Z</time>
      </trkpt>
      <trkpt lat="45.56714" lon="5.84528">
        <ele>561.0666504</ele>
        <time>2011-09-04T06:55:31Z</time>
      </trkpt>
      <trkpt lat="45.56713" lon="5.84528">
        <ele>561.0666504</ele>
        <time>2011-09-04T06:55:51Z</time>
      </trkpt>
      <trkpt lat="45.56714" lon="5.84528">
        <ele>561.0666504</ele>
        <time>2011-09-04T06:56:19Z</time>
      </trkpt>
      <trkpt lat="45.5671" lon="5.84527">
        <ele>561.0666504</ele>
        <time>2011-09-04T06:56:24Z</time>
      </trkpt>
      <trkpt lat="45.56708" lon="5.84528">
        <ele>562.9892578</ele>
        <time>2011-09-04T06:56:32Z</time>
      </trkpt>
      <trkpt lat="45.56707" lon="5.84529">
        <ele>562.9892578</ele>
        <time>2011-09-04T06:56:38Z</time>
      </trkpt>
      <trkpt lat="45.56707" lon="5.84529">
        <ele>562.5085449</ele>
        <time>2011-09-04T06:56:49Z</time>
      </trkpt>
      <trkpt lat="45.56711" lon="5.84528">
        <ele>562.9892578</ele>
        <time>2011-09-04T06:56:56Z</time>
      </trkpt>
      <trkpt lat="45.56714" lon="5.84529">
        <ele>561.0666504</ele>
        <time>2011-09-04T06:57:13Z</time>
      </trkpt>
      <trkpt lat="45.56716" lon="5.84528">
        <ele>562.0280762</ele>
        <time>2011-09-04T06:57:19Z</time>
      </trkpt>
      <trkpt lat="45.5672" lon="5.84527">
        <ele>562.0280762</ele>
        <time>2011-09-04T06:57:25Z</time>
      </trkpt>
      <trkpt lat="45.56725" lon="5.84525">
        <ele>562.9892578</ele>
        <time>2011-09-04T06:57:34Z</time>
      </trkpt>
      <trkpt lat="45.56728" lon="5.84521">
        <ele>563.9504395</ele>
        <time>2011-09-04T06:57:40Z</time>
      </trkpt>
      <trkpt lat="45.56731" lon="5.84511">
        <ele>563.9504395</ele>
        <time>2011-09-04T06:57:47Z</time>
      </trkpt>
      <trkpt lat="45.56737" lon="5.84497">
        <ele>564.4311523</ele>
        <time>2011-09-04T06:57:55Z</time>
      </trkpt>
      <trkpt lat="45.5674" lon="5.84484">
        <ele>563.9504395</ele>
        <time>2011-09-04T06:58:01Z</time>
      </trkpt>
      <trkpt lat="45.56742" lon="5.84464">
        <ele>563.9504395</ele>
        <time>2011-09-04T06:58:09Z</time>
      </trkpt>
      <trkpt lat="45.56751" lon="5.84454">
        <ele>564.9118652</ele>
        <time>2011-09-04T06:58:16Z</time>
      </trkpt>
      <trkpt lat="45.56768" lon="5.84442">
        <ele>564.4311523</ele>
        <time>2011-09-04T06:58:25Z</time>
      </trkpt>
      <trkpt lat="45.56786" lon="5.84429">
        <ele>563.4699707</ele>
        <time>2011-09-04T06:58:34Z</time>
      </trkpt>
      <trkpt lat="45.56808" lon="5.84421">
        <ele>564.4311523</ele>
        <time>2011-09-04T06:58:43Z</time>
      </trkpt>
      <trkpt lat="45.56828" lon="5.8442">
        <ele>565.873291</ele>
        <time>2011-09-04T06:58:51Z</time>
      </trkpt>
      <trkpt lat="45.56853" lon="5.84418">
        <ele>566.3537598</ele>
        <time>2011-09-04T06:59:00Z</time>
      </trkpt>
      <trkpt lat="45.56875" lon="5.84418">
        <ele>569.7185059</ele>
        <time>2011-09-04T06:59:08Z</time>
      </trkpt>
      <trkpt lat="45.56892" lon="5.84409">
        <ele>569.7185059</ele>
        <time>2011-09-04T06:59:15Z</time>
      </trkpt>
      <trkpt lat="45.56906" lon="5.84401">
        <ele>568.7570801</ele>
        <time>2011-09-04T06:59:21Z</time>
      </trkpt>
      <trkpt lat="45.56923" lon="5.84385">
        <ele>568.2763672</ele>
        <time>2011-09-04T06:59:30Z</time>
      </trkpt>
      <trkpt lat="45.56938" lon="5.84371">
        <ele>568.7570801</ele>
        <time>2011-09-04T06:59:38Z</time>
      </trkpt>
      <trkpt lat="45.56957" lon="5.84355">
        <ele>565.873291</ele>
        <time>2011-09-04T06:59:48Z</time>
      </trkpt>
      <trkpt lat="45.56978" lon="5.84337">
        <ele>566.3537598</ele>
        <time>2011-09-04T06:59:59Z</time>
      </trkpt>
      <trkpt lat="45.56996" lon="5.84322">
        <ele>565.873291</ele>
        <time>2011-09-04T07:00:09Z</time>
      </trkpt>
      <trkpt lat="45.57009" lon="5.84312">
        <ele>566.3537598</ele>
        <time>2011-09-04T07:00:17Z</time>
      </trkpt>
      <trkpt lat="45.57022" lon="5.843">
        <ele>566.8344727</ele>
        <time>2011-09-04T07:00:25Z</time>
      </trkpt>
      <trkpt lat="45.5704" lon="5.84286">
        <ele>570.1989746</ele>
        <time>2011-09-04T07:00:35Z</time>
      </trkpt>
      <trkpt lat="45.57056" lon="5.84272">
        <ele>573.5639648</ele>
        <time>2011-09-04T07:00:44Z</time>
      </trkpt>
      <trkpt lat="45.57083" lon="5.84251">
        <ele>577.4091797</ele>
        <time>2011-09-04T07:00:59Z</time>
      </trkpt>
      <trkpt lat="45.57099" lon="5.84238">
        <ele>579.331543</ele>
        <time>2011-09-04T07:01:08Z</time>
      </trkpt>
      <trkpt lat="45.57115" lon="5.84229">
        <ele>579.8122559</ele>
        <time>2011-09-04T07:01:16Z</time>
      </trkpt>
      <trkpt lat="45.57127" lon="5.84227">
        <ele>584.6188965</ele>
        <time>2011-09-04T07:01:23Z</time>
      </trkpt>
      <trkpt lat="45.57141" lon="5.84218">
        <ele>588.9450684</ele>
        <time>2011-09-04T07:01:30Z</time>
      </trkpt>
      <trkpt lat="45.57152" lon="5.84212">
        <ele>591.3481445</ele>
        <time>2011-09-04T07:01:35Z</time>
      </trkpt>
      <trkpt lat="45.57164" lon="5.84204">
        <ele>592.7902832</ele>
        <time>2011-09-04T07:01:41Z</time>
      </trkpt>
      <trkpt lat="45.57177" lon="5.84196">
        <ele>597.1159668</ele>
        <time>2011-09-04T07:01:48Z</time>
      </trkpt>
      <trkpt lat="45.57193" lon="5.84183">
        <ele>601.4418945</ele>
        <time>2011-09-04T07:01:57Z</time>
      </trkpt>
      <trkpt lat="45.57204" lon="5.84176">
        <ele>603.364502</ele>
        <time>2011-09-04T07:02:02Z</time>
      </trkpt>
      <trkpt lat="45.57218" lon="5.84165">
        <ele>605.7680664</ele>
        <time>2011-09-04T07:02:10Z</time>
      </trkpt>
      <trkpt lat="45.5723" lon="5.84154">
        <ele>604.8066406</ele>
        <time>2011-09-04T07:02:18Z</time>
      </trkpt>
      <trkpt lat="45.57239" lon="5.84149">
        <ele>609.1325684</ele>
        <time>2011-09-04T07:02:23Z</time>
      </trkpt>
      <trkpt lat="45.57249" lon="5.84145">
        <ele>613.9389648</ele>
        <time>2011-09-04T07:02:28Z</time>
      </trkpt>
      <trkpt lat="45.57264" lon="5.84132">
        <ele>612.9777832</ele>
        <time>2011-09-04T07:02:36Z</time>
      </trkpt>
      <trkpt lat="45.57279" lon="5.84112">
        <ele>612.9777832</ele>
        <time>2011-09-04T07:02:45Z</time>
      </trkpt>
      <trkpt lat="45.57287" lon="5.8409">
        <ele>605.7680664</ele>
        <time>2011-09-04T07:02:52Z</time>
      </trkpt>
      <trkpt lat="45.57293" lon="5.84069">
        <ele>599.5192871</ele>
        <time>2011-09-04T07:02:59Z</time>
      </trkpt>
      <trkpt lat="45.57299" lon="5.84043">
        <ele>590.8674316</ele>
        <time>2011-09-04T07:03:07Z</time>
      </trkpt>
      <trkpt lat="45.57302" lon="5.84034">
        <ele>589.90625</ele>
        <time>2011-09-04T07:03:10Z</time>
      </trkpt>
      <trkpt lat="45.57307" lon="5.84022">
        <ele>592.7902832</ele>
        <time>2011-09-04T07:03:15Z</time>
      </trkpt>
      <trkpt lat="45.57306" lon="5.84016">
        <ele>595.1933594</ele>
        <time>2011-09-04T07:03:19Z</time>
      </trkpt>
      <trkpt lat="45.57297" lon="5.84018">
        <ele>595.6740723</ele>
        <time>2011-09-04T07:03:25Z</time>
      </trkpt>
      <trkpt lat="45.57293" lon="5.84021">
        <ele>595.6740723</ele>
        <time>2011-09-04T07:03:27Z</time>
      </trkpt>
      <trkpt lat="45.57284" lon="5.84027">
        <ele>596.1547852</ele>
        <time>2011-09-04T07:03:34Z</time>
      </trkpt>
      <trkpt lat="45.57279" lon="5.84031">
        <ele>597.5966797</ele>
        <time>2011-09-04T07:03:37Z</time>
      </trkpt>
      <trkpt lat="45.57264" lon="5.8404">
        <ele>600</ele>
        <time>2011-09-04T07:03:44Z</time>
      </trkpt>
      <trkpt lat="45.57253" lon="5.84045">
        <ele>605.7680664</ele>
        <time>2011-09-04T07:03:51Z</time>
      </trkpt>
      <trkpt lat="45.57248" lon="5.84048">
        <ele>609.1325684</ele>
        <time>2011-09-04T07:03:56Z</time>
      </trkpt>
      <trkpt lat="45.57237" lon="5.84049">
        <ele>616.3422852</ele>
        <time>2011-09-04T07:04:04Z</time>
      </trkpt>
      <trkpt lat="45.5722" lon="5.84045">
        <ele>619.7070313</ele>
        <time>2011-09-04T07:04:12Z</time>
      </trkpt>
      <trkpt lat="45.57211" lon="5.84044">
        <ele>623.5524902</ele>
        <time>2011-09-04T07:04:19Z</time>
      </trkpt>
      <trkpt lat="45.57202" lon="5.84041">
        <ele>624.9943848</ele>
        <time>2011-09-04T07:04:25Z</time>
      </trkpt>
      <trkpt lat="45.57195" lon="5.8404">
        <ele>629.8007813</ele>
        <time>2011-09-04T07:04:31Z</time>
      </trkpt>
      <trkpt lat="45.57185" lon="5.84042">
        <ele>631.7233887</ele>
        <time>2011-09-04T07:04:37Z</time>
      </trkpt>
      <trkpt lat="45.57182" lon="5.84044">
        <ele>632.2041016</ele>
        <time>2011-09-04T07:04:39Z</time>
      </trkpt>
      <trkpt lat="45.57179" lon="5.84044">
        <ele>632.6848145</ele>
        <time>2011-09-04T07:04:41Z</time>
      </trkpt>
      <trkpt lat="45.5717" lon="5.84045">
        <ele>637.4914551</ele>
        <time>2011-09-04T07:04:48Z</time>
      </trkpt>
      <trkpt lat="45.57161" lon="5.84047">
        <ele>640.855957</ele>
        <time>2011-09-04T07:04:55Z</time>
      </trkpt>
      <trkpt lat="45.57152" lon="5.84047">
        <ele>642.2980957</ele>
        <time>2011-09-04T07:05:01Z</time>
      </trkpt>
      <trkpt lat="45.57151" lon="5.84047">
        <ele>642.7788086</ele>
        <time>2011-09-04T07:05:02Z</time>
      </trkpt>
      <trkpt lat="45.57146" lon="5.84049">
        <ele>643.7399902</ele>
        <time>2011-09-04T07:05:06Z</time>
      </trkpt>
      <trkpt lat="45.57139" lon="5.84055">
        <ele>644.7011719</ele>
        <time>2011-09-04T07:05:11Z</time>
      </trkpt>
      <trkpt lat="45.57137" lon="5.84056">
        <ele>644.7011719</ele>
        <time>2011-09-04T07:05:12Z</time>
      </trkpt>
      <trkpt lat="45.57131" lon="5.84058">
        <ele>645.6625977</ele>
        <time>2011-09-04T07:05:16Z</time>
      </trkpt>
      <trkpt lat="45.57121" lon="5.84056">
        <ele>642.7788086</ele>
        <time>2011-09-04T07:05:21Z</time>
      </trkpt>
      <trkpt lat="45.57105" lon="5.84052">
        <ele>643.7399902</ele>
        <time>2011-09-04T07:05:31Z</time>
      </trkpt>
      <trkpt lat="45.57091" lon="5.84051">
        <ele>643.7399902</ele>
        <time>2011-09-04T07:05:39Z</time>
      </trkpt>
      <trkpt lat="45.57076" lon="5.8405">
        <ele>643.7399902</ele>
        <time>2011-09-04T07:05:48Z</time>
      </trkpt>
      <trkpt lat="45.57059" lon="5.84049">
        <ele>644.7011719</ele>
        <time>2011-09-04T07:05:58Z</time>
      </trkpt>
      <trkpt lat="45.57044" lon="5.84045">
        <ele>644.7011719</ele>
        <time>2011-09-04T07:06:07Z</time>
      </trkpt>
      <trkpt lat="45.57034" lon="5.84038">
        <ele>645.6625977</ele>
        <time>2011-09-04T07:06:14Z</time>
      </trkpt>
      <trkpt lat="45.57022" lon="5.84035">
        <ele>648.065918</ele>
        <time>2011-09-04T07:06:22Z</time>
      </trkpt>
      <trkpt lat="45.57007" lon="5.8403">
        <ele>650.4692383</ele>
        <time>2011-09-04T07:06:32Z</time>
      </trkpt>
      <trkpt lat="45.56997" lon="5.84016">
        <ele>653.8339844</ele>
        <time>2011-09-04T07:06:41Z</time>
      </trkpt>
      <trkpt lat="45.56997" lon="5.84012">
        <ele>655.2758789</ele>
        <time>2011-09-04T07:06:43Z</time>
      </trkpt>
      <trkpt lat="45.56997" lon="5.84009">
        <ele>656.2370605</ele>
        <time>2011-09-04T07:06:45Z</time>
      </trkpt>
      <trkpt lat="45.56999" lon="5.84009">
        <ele>656.7177734</ele>
        <time>2011-09-04T07:06:47Z</time>
      </trkpt>
      <trkpt lat="45.56997" lon="5.84007">
        <ele>658.6403809</ele>
        <time>2011-09-04T07:06:53Z</time>
      </trkpt>
      <trkpt lat="45.56995" lon="5.84">
        <ele>660.0822754</ele>
        <time>2011-09-04T07:07:00Z</time>
      </trkpt>
      <trkpt lat="45.56994" lon="5.83994">
        <ele>657.1984863</ele>
        <time>2011-09-04T07:07:08Z</time>
      </trkpt>
      <trkpt lat="45.56994" lon="5.83984">
        <ele>658.1599121</ele>
        <time>2011-09-04T07:07:17Z</time>
      </trkpt>
      <trkpt lat="45.56995" lon="5.83975">
        <ele>662.005127</ele>
        <time>2011-09-04T07:07:26Z</time>
      </trkpt>
      <trkpt lat="45.56992" lon="5.8397">
        <ele>660.0822754</ele>
        <time>2011-09-04T07:07:32Z</time>
      </trkpt>
      <trkpt lat="45.56992" lon="5.83964">
        <ele>662.005127</ele>
        <time>2011-09-04T07:07:38Z</time>
      </trkpt>
      <trkpt lat="45.56991" lon="5.83956">
        <ele>662.4855957</ele>
        <time>2011-09-04T07:07:44Z</time>
      </trkpt>
      <trkpt lat="45.56989" lon="5.83948">
        <ele>661.0437012</ele>
        <time>2011-09-04T07:07:48Z</time>
      </trkpt>
      <trkpt lat="45.56987" lon="5.83941">
        <ele>660.5629883</ele>
        <time>2011-09-04T07:07:52Z</time>
      </trkpt>
      <trkpt lat="45.56987" lon="5.83939">
        <ele>661.0437012</ele>
        <time>2011-09-04T07:07:54Z</time>
      </trkpt>
      <trkpt lat="45.56983" lon="5.83928">
        <ele>665.3696289</ele>
        <time>2011-09-04T07:08:03Z</time>
      </trkpt>
      <trkpt lat="45.56984" lon="5.83927">
        <ele>666.3308105</ele>
        <time>2011-09-04T07:08:09Z</time>
      </trkpt>
      <trkpt lat="45.56984" lon="5.83922">
        <ele>668.2536621</ele>
        <time>2011-09-04T07:08:14Z</time>
      </trkpt>
      <trkpt lat="45.56977" lon="5.83907">
        <ele>670.6569824</ele>
        <time>2011-09-04T07:08:21Z</time>
      </trkpt>
      <trkpt lat="45.56975" lon="5.83892">
        <ele>671.6181641</ele>
        <time>2011-09-04T07:08:28Z</time>
      </trkpt>
      <trkpt lat="45.56972" lon="5.83877">
        <ele>667.7727051</ele>
        <time>2011-09-04T07:08:34Z</time>
      </trkpt>
      <trkpt lat="45.56973" lon="5.83871">
        <ele>669.6958008</ele>
        <time>2011-09-04T07:08:38Z</time>
      </trkpt>
      <trkpt lat="45.56977" lon="5.8386">
        <ele>674.9829102</ele>
        <time>2011-09-04T07:08:44Z</time>
      </trkpt>
      <trkpt lat="45.56981" lon="5.83853">
        <ele>675.4633789</ele>
        <time>2011-09-04T07:08:48Z</time>
      </trkpt>
      <trkpt lat="45.56983" lon="5.83849">
        <ele>675.4633789</ele>
        <time>2011-09-04T07:08:51Z</time>
      </trkpt>
      <trkpt lat="45.56984" lon="5.83838">
        <ele>673.5410156</ele>
        <time>2011-09-04T07:08:56Z</time>
      </trkpt>
      <trkpt lat="45.56984" lon="5.83832">
        <ele>675.4633789</ele>
        <time>2011-09-04T07:08:59Z</time>
      </trkpt>
      <trkpt lat="45.56981" lon="5.83822">
        <ele>679.3085938</ele>
        <time>2011-09-04T07:09:06Z</time>
      </trkpt>
      <trkpt lat="45.5698" lon="5.8382">
        <ele>679.3085938</ele>
        <time>2011-09-04T07:09:07Z</time>
      </trkpt>
      <trkpt lat="45.56972" lon="5.83816">
        <ele>686.0380859</ele>
        <time>2011-09-04T07:09:14Z</time>
      </trkpt>
      <trkpt lat="45.56965" lon="5.83813">
        <ele>687.9606934</ele>
        <time>2011-09-04T07:09:19Z</time>
      </trkpt>
      <trkpt lat="45.56955" lon="5.8381">
        <ele>690.8444824</ele>
        <time>2011-09-04T07:09:26Z</time>
      </trkpt>
      <trkpt lat="45.56948" lon="5.83805">
        <ele>695.1704102</ele>
        <time>2011-09-04T07:09:33Z</time>
      </trkpt>
      <trkpt lat="45.56942" lon="5.83802">
        <ele>697.0930176</ele>
        <time>2011-09-04T07:09:38Z</time>
      </trkpt>
      <trkpt lat="45.56938" lon="5.83801">
        <ele>699.4963379</ele>
        <time>2011-09-04T07:09:42Z</time>
      </trkpt>
      <trkpt lat="45.56931" lon="5.83802">
        <ele>700.9384766</ele>
        <time>2011-09-04T07:09:48Z</time>
      </trkpt>
      <trkpt lat="45.56927" lon="5.83801">
        <ele>702.3803711</ele>
        <time>2011-09-04T07:09:52Z</time>
      </trkpt>
      <trkpt lat="45.56921" lon="5.83802">
        <ele>705.7451172</ele>
        <time>2011-09-04T07:10:00Z</time>
      </trkpt>
      <trkpt lat="45.56917" lon="5.83803">
        <ele>706.2255859</ele>
        <time>2011-09-04T07:10:06Z</time>
      </trkpt>
      <trkpt lat="45.56909" lon="5.83806">
        <ele>705.7451172</ele>
        <time>2011-09-04T07:10:14Z</time>
      </trkpt>
      <trkpt lat="45.56902" lon="5.8381">
        <ele>705.2644043</ele>
        <time>2011-09-04T07:10:19Z</time>
      </trkpt>
      <trkpt lat="45.56892" lon="5.83813">
        <ele>706.7062988</ele>
        <time>2011-09-04T07:10:26Z</time>
      </trkpt>
      <trkpt lat="45.56885" lon="5.83815">
        <ele>708.1484375</ele>
        <time>2011-09-04T07:10:31Z</time>
      </trkpt>
      <trkpt lat="45.56878" lon="5.83814">
        <ele>710.5515137</ele>
        <time>2011-09-04T07:10:36Z</time>
      </trkpt>
      <trkpt lat="45.56869" lon="5.83814">
        <ele>709.590332</ele>
        <time>2011-09-04T07:10:41Z</time>
      </trkpt>
      <trkpt lat="45.56864" lon="5.83816">
        <ele>709.1096191</ele>
        <time>2011-09-04T07:10:45Z</time>
      </trkpt>
      <trkpt lat="45.56852" lon="5.83816">
        <ele>708.6289063</ele>
        <time>2011-09-04T07:10:52Z</time>
      </trkpt>
      <trkpt lat="45.56848" lon="5.83816">
        <ele>708.6289063</ele>
        <time>2011-09-04T07:10:55Z</time>
      </trkpt>
      <trkpt lat="45.56845" lon="5.83817">
        <ele>709.1096191</ele>
        <time>2011-09-04T07:10:58Z</time>
      </trkpt>
      <trkpt lat="45.56836" lon="5.83813">
        <ele>708.6289063</ele>
        <time>2011-09-04T07:11:04Z</time>
      </trkpt>
      <trkpt lat="45.56829" lon="5.8381">
        <ele>709.590332</ele>
        <time>2011-09-04T07:11:10Z</time>
      </trkpt>
      <trkpt lat="45.56821" lon="5.83809">
        <ele>711.0322266</ele>
        <time>2011-09-04T07:11:16Z</time>
      </trkpt>
      <trkpt lat="45.56814" lon="5.83811">
        <ele>713.4355469</ele>
        <time>2011-09-04T07:11:21Z</time>
      </trkpt>
      <trkpt lat="45.56809" lon="5.83812">
        <ele>714.3967285</ele>
        <time>2011-09-04T07:11:24Z</time>
      </trkpt>
      <trkpt lat="45.56802" lon="5.83815">
        <ele>713.9160156</ele>
        <time>2011-09-04T07:11:28Z</time>
      </trkpt>
      <trkpt lat="45.56795" lon="5.83817">
        <ele>713.9160156</ele>
        <time>2011-09-04T07:11:32Z</time>
      </trkpt>
      <trkpt lat="45.56783" lon="5.83823">
        <ele>712.954834</ele>
        <time>2011-09-04T07:11:39Z</time>
      </trkpt>
      <trkpt lat="45.56775" lon="5.83824">
        <ele>711.0322266</ele>
        <time>2011-09-04T07:11:43Z</time>
      </trkpt>
      <trkpt lat="45.56765" lon="5.83826">
        <ele>708.6289063</ele>
        <time>2011-09-04T07:11:49Z</time>
      </trkpt>
      <trkpt lat="45.56755" lon="5.83827">
        <ele>706.7062988</ele>
        <time>2011-09-04T07:11:55Z</time>
      </trkpt>
      <trkpt lat="45.56744" lon="5.83834">
        <ele>705.2644043</ele>
        <time>2011-09-04T07:12:03Z</time>
      </trkpt>
      <trkpt lat="45.56731" lon="5.83837">
        <ele>704.3032227</ele>
        <time>2011-09-04T07:12:10Z</time>
      </trkpt>
      <trkpt lat="45.56721" lon="5.83836">
        <ele>706.2255859</ele>
        <time>2011-09-04T07:12:17Z</time>
      </trkpt>
      <trkpt lat="45.56711" lon="5.83838">
        <ele>711.0322266</ele>
        <time>2011-09-04T07:12:24Z</time>
      </trkpt>
      <trkpt lat="45.56702" lon="5.83837">
        <ele>715.3581543</ele>
        <time>2011-09-04T07:12:30Z</time>
      </trkpt>
      <trkpt lat="45.56694" lon="5.83835">
        <ele>717.2810059</ele>
        <time>2011-09-04T07:12:35Z</time>
      </trkpt>
      <trkpt lat="45.56691" lon="5.83834">
        <ele>722.0874023</ele>
        <time>2011-09-04T07:12:42Z</time>
      </trkpt>
      <trkpt lat="45.56689" lon="5.83829">
        <ele>726.894043</ele>
        <time>2011-09-04T07:12:49Z</time>
      </trkpt>
      <trkpt lat="45.56685" lon="5.83823">
        <ele>729.2971191</ele>
        <time>2011-09-04T07:12:57Z</time>
      </trkpt>
      <trkpt lat="45.56685" lon="5.83817">
        <ele>727.8552246</ele>
        <time>2011-09-04T07:13:03Z</time>
      </trkpt>
      <trkpt lat="45.56684" lon="5.83811">
        <ele>727.3747559</ele>
        <time>2011-09-04T07:13:12Z</time>
      </trkpt>
      <trkpt lat="45.56682" lon="5.83805">
        <ele>727.8552246</ele>
        <time>2011-09-04T07:13:19Z</time>
      </trkpt>
      <trkpt lat="45.5668" lon="5.83799">
        <ele>727.3747559</ele>
        <time>2011-09-04T07:13:26Z</time>
      </trkpt>
      <trkpt lat="45.56678" lon="5.83791">
        <ele>728.8166504</ele>
        <time>2011-09-04T07:13:34Z</time>
      </trkpt>
      <trkpt lat="45.56676" lon="5.83783">
        <ele>729.2971191</ele>
        <time>2011-09-04T07:13:43Z</time>
      </trkpt>
      <trkpt lat="45.56675" lon="5.83775">
        <ele>728.8166504</ele>
        <time>2011-09-04T07:13:52Z</time>
      </trkpt>
      <trkpt lat="45.56674" lon="5.8377">
        <ele>727.8552246</ele>
        <time>2011-09-04T07:13:58Z</time>
      </trkpt>
      <trkpt lat="45.56674" lon="5.83761">
        <ele>727.3747559</ele>
        <time>2011-09-04T07:14:05Z</time>
      </trkpt>
      <trkpt lat="45.56671" lon="5.83751">
        <ele>728.8166504</ele>
        <time>2011-09-04T07:14:14Z</time>
      </trkpt>
      <trkpt lat="45.56668" lon="5.83747">
        <ele>735.0654297</ele>
        <time>2011-09-04T07:14:21Z</time>
      </trkpt>
      <trkpt lat="45.56667" lon="5.83743">
        <ele>737.9492188</ele>
        <time>2011-09-04T07:14:27Z</time>
      </trkpt>
      <trkpt lat="45.56661" lon="5.83731">
        <ele>738.9106445</ele>
        <time>2011-09-04T07:14:34Z</time>
      </trkpt>
      <trkpt lat="45.56656" lon="5.83722">
        <ele>740.3525391</ele>
        <time>2011-09-04T07:14:39Z</time>
      </trkpt>
      <trkpt lat="45.56653" lon="5.83711">
        <ele>741.3137207</ele>
        <time>2011-09-04T07:14:45Z</time>
      </trkpt>
      <trkpt lat="45.56651" lon="5.83699">
        <ele>745.1589355</ele>
        <time>2011-09-04T07:14:51Z</time>
      </trkpt>
      <trkpt lat="45.5665" lon="5.83686">
        <ele>744.6782227</ele>
        <time>2011-09-04T07:14:57Z</time>
      </trkpt>
      <trkpt lat="45.56645" lon="5.83674">
        <ele>745.6396484</ele>
        <time>2011-09-04T07:15:03Z</time>
      </trkpt>
      <trkpt lat="45.56642" lon="5.83663">
        <ele>748.0432129</ele>
        <time>2011-09-04T07:15:09Z</time>
      </trkpt>
      <trkpt lat="45.56641" lon="5.83651">
        <ele>748.0432129</ele>
        <time>2011-09-04T07:15:15Z</time>
      </trkpt>
      <trkpt lat="45.56639" lon="5.83646">
        <ele>748.5236816</ele>
        <time>2011-09-04T07:15:20Z</time>
      </trkpt>
      <trkpt lat="45.56636" lon="5.83639">
        <ele>750.4465332</ele>
        <time>2011-09-04T07:15:25Z</time>
      </trkpt>
      <trkpt lat="45.56634" lon="5.83634">
        <ele>754.7722168</ele>
        <time>2011-09-04T07:15:33Z</time>
      </trkpt>
      <trkpt lat="45.56632" lon="5.8363">
        <ele>759.5788574</ele>
        <time>2011-09-04T07:15:39Z</time>
      </trkpt>
      <trkpt lat="45.56629" lon="5.83624">
        <ele>760.5400391</ele>
        <time>2011-09-04T07:15:42Z</time>
      </trkpt>
      <trkpt lat="45.56627" lon="5.83621">
        <ele>761.5014648</ele>
        <time>2011-09-04T07:15:44Z</time>
      </trkpt>
      <trkpt lat="45.56631" lon="5.83604">
        <ele>761.5014648</ele>
        <time>2011-09-04T07:15:51Z</time>
      </trkpt>
      <trkpt lat="45.56631" lon="5.83593">
        <ele>760.0593262</ele>
        <time>2011-09-04T07:15:54Z</time>
      </trkpt>
      <trkpt lat="45.56633" lon="5.83576">
        <ele>750.4465332</ele>
        <time>2011-09-04T07:15:59Z</time>
      </trkpt>
      <trkpt lat="45.56636" lon="5.83559">
        <ele>751.8884277</ele>
        <time>2011-09-04T07:16:05Z</time>
      </trkpt>
      <trkpt lat="45.56641" lon="5.8354">
        <ele>749.9658203</ele>
        <time>2011-09-04T07:16:11Z</time>
      </trkpt>
      <trkpt lat="45.56643" lon="5.83526">
        <ele>745.1589355</ele>
        <time>2011-09-04T07:16:16Z</time>
      </trkpt>
      <trkpt lat="45.56645" lon="5.8351">
        <ele>743.717041</ele>
        <time>2011-09-04T07:16:21Z</time>
      </trkpt>
      <trkpt lat="45.56647" lon="5.83505">
        <ele>743.717041</ele>
        <time>2011-09-04T07:16:24Z</time>
      </trkpt>
      <trkpt lat="45.56649" lon="5.83498">
        <ele>743.2363281</ele>
        <time>2011-09-04T07:16:27Z</time>
      </trkpt>
      <trkpt lat="45.56653" lon="5.83487">
        <ele>745.6396484</ele>
        <time>2011-09-04T07:16:33Z</time>
      </trkpt>
      <trkpt lat="45.56653" lon="5.83484">
        <ele>742.2751465</ele>
        <time>2011-09-04T07:16:37Z</time>
      </trkpt>
      <trkpt lat="45.56662" lon="5.83471">
        <ele>741.7944336</ele>
        <time>2011-09-04T07:16:43Z</time>
      </trkpt>
      <trkpt lat="45.56677" lon="5.83466">
        <ele>747.5622559</ele>
        <time>2011-09-04T07:16:48Z</time>
      </trkpt>
      <trkpt lat="45.56692" lon="5.83467">
        <ele>751.4077148</ele>
        <time>2011-09-04T07:16:52Z</time>
      </trkpt>
      <trkpt lat="45.56708" lon="5.83471">
        <ele>755.2529297</ele>
        <time>2011-09-04T07:16:56Z</time>
      </trkpt>
      <trkpt lat="45.56724" lon="5.83469">
        <ele>755.7336426</ele>
        <time>2011-09-04T07:17:00Z</time>
      </trkpt>
      <trkpt lat="45.56744" lon="5.83469">
        <ele>757.1755371</ele>
        <time>2011-09-04T07:17:04Z</time>
      </trkpt>
      <trkpt lat="45.56754" lon="5.83466">
        <ele>755.7336426</ele>
        <time>2011-09-04T07:17:06Z</time>
      </trkpt>
      <trkpt lat="45.56772" lon="5.83462">
        <ele>747.5622559</ele>
        <time>2011-09-04T07:17:10Z</time>
      </trkpt>
      <trkpt lat="45.56785" lon="5.83461">
        <ele>743.717041</ele>
        <time>2011-09-04T07:17:14Z</time>
      </trkpt>
      <trkpt lat="45.56801" lon="5.83456">
        <ele>743.2363281</ele>
        <time>2011-09-04T07:17:20Z</time>
      </trkpt>
      <trkpt lat="45.56821" lon="5.83459">
        <ele>741.3137207</ele>
        <time>2011-09-04T07:17:25Z</time>
      </trkpt>
      <trkpt lat="45.56834" lon="5.83457">
        <ele>742.2751465</ele>
        <time>2011-09-04T07:17:29Z</time>
      </trkpt>
      <trkpt lat="45.56847" lon="5.83453">
        <ele>741.3137207</ele>
        <time>2011-09-04T07:17:33Z</time>
      </trkpt>
      <trkpt lat="45.56865" lon="5.83449">
        <ele>736.0266113</ele>
        <time>2011-09-04T07:17:37Z</time>
      </trkpt>
      <trkpt lat="45.56877" lon="5.83444">
        <ele>734.5847168</ele>
        <time>2011-09-04T07:17:39Z</time>
      </trkpt>
      <trkpt lat="45.56893" lon="5.83427">
        <ele>734.1040039</ele>
        <time>2011-09-04T07:17:43Z</time>
      </trkpt>
      <trkpt lat="45.56909" lon="5.83396">
        <ele>720.6455078</ele>
        <time>2011-09-04T07:17:50Z</time>
      </trkpt>
      <trkpt lat="45.56924" lon="5.83385">
        <ele>719.2036133</ele>
        <time>2011-09-04T07:17:56Z</time>
      </trkpt>
      <trkpt lat="45.56938" lon="5.83388">
        <ele>724.9714355</ele>
        <time>2011-09-04T07:18:00Z</time>
      </trkpt>
      <trkpt lat="45.56956" lon="5.83388">
        <ele>723.529541</ele>
        <time>2011-09-04T07:18:04Z</time>
      </trkpt>
      <trkpt lat="45.56965" lon="5.83382">
        <ele>720.6455078</ele>
        <time>2011-09-04T07:18:06Z</time>
      </trkpt>
      <trkpt lat="45.56985" lon="5.8336">
        <ele>721.1262207</ele>
        <time>2011-09-04T07:18:12Z</time>
      </trkpt>
      <trkpt lat="45.56988" lon="5.83356">
        <ele>721.1262207</ele>
        <time>2011-09-04T07:18:13Z</time>
      </trkpt>
      <trkpt lat="45.57004" lon="5.83348">
        <ele>720.6455078</ele>
        <time>2011-09-04T07:18:20Z</time>
      </trkpt>
      <trkpt lat="45.57022" lon="5.83348">
        <ele>725.4519043</ele>
        <time>2011-09-04T07:18:24Z</time>
      </trkpt>
      <trkpt lat="45.57034" lon="5.8335">
        <ele>729.777832</ele>
        <time>2011-09-04T07:18:26Z</time>
      </trkpt>
      <trkpt lat="45.57065" lon="5.83353">
        <ele>726.894043</ele>
        <time>2011-09-04T07:18:31Z</time>
      </trkpt>
      <trkpt lat="45.57071" lon="5.83353">
        <ele>726.894043</ele>
        <time>2011-09-04T07:18:32Z</time>
      </trkpt>
      <trkpt lat="45.571" lon="5.83353">
        <ele>729.2971191</ele>
        <time>2011-09-04T07:18:37Z</time>
      </trkpt>
      <trkpt lat="45.57127" lon="5.83346">
        <ele>728.8166504</ele>
        <time>2011-09-04T07:18:42Z</time>
      </trkpt>
      <trkpt lat="45.57145" lon="5.83344">
        <ele>724.9714355</ele>
        <time>2011-09-04T07:18:46Z</time>
      </trkpt>
      <trkpt lat="45.57163" lon="5.83346">
        <ele>720.1647949</ele>
        <time>2011-09-04T07:18:50Z</time>
      </trkpt>
      <trkpt lat="45.57178" lon="5.83346">
        <ele>710.5515137</ele>
        <time>2011-09-04T07:18:55Z</time>
      </trkpt>
      <trkpt lat="45.57191" lon="5.83337">
        <ele>702.861084</ele>
        <time>2011-09-04T07:18:58Z</time>
      </trkpt>
      <trkpt lat="45.57218" lon="5.83329">
        <ele>695.1704102</ele>
        <time>2011-09-04T07:19:04Z</time>
      </trkpt>
      <trkpt lat="45.57222" lon="5.83328">
        <ele>693.2478027</ele>
        <time>2011-09-04T07:19:05Z</time>
      </trkpt>
      <trkpt lat="45.57233" lon="5.83325">
        <ele>688.4414063</ele>
        <time>2011-09-04T07:19:08Z</time>
      </trkpt>
      <trkpt lat="45.57252" lon="5.83326">
        <ele>680.2700195</ele>
        <time>2011-09-04T07:19:14Z</time>
      </trkpt>
      <trkpt lat="45.57267" lon="5.83333">
        <ele>677.3862305</ele>
        <time>2011-09-04T07:19:18Z</time>
      </trkpt>
      <trkpt lat="45.57281" lon="5.83331">
        <ele>674.0214844</ele>
        <time>2011-09-04T07:19:22Z</time>
      </trkpt>
      <trkpt lat="45.57294" lon="5.83313">
        <ele>674.0214844</ele>
        <time>2011-09-04T07:19:28Z</time>
      </trkpt>
      <trkpt lat="45.57311" lon="5.83298">
        <ele>674.9829102</ele>
        <time>2011-09-04T07:19:35Z</time>
      </trkpt>
      <trkpt lat="45.57335" lon="5.83274">
        <ele>674.0214844</ele>
        <time>2011-09-04T07:19:46Z</time>
      </trkpt>
      <trkpt lat="45.57344" lon="5.83258">
        <ele>672.5795898</ele>
        <time>2011-09-04T07:19:52Z</time>
      </trkpt>
      <trkpt lat="45.57358" lon="5.83237">
        <ele>674.5021973</ele>
        <time>2011-09-04T07:20:00Z</time>
      </trkpt>
      <trkpt lat="45.57374" lon="5.83218">
        <ele>676.9055176</ele>
        <time>2011-09-04T07:20:08Z</time>
      </trkpt>
      <trkpt lat="45.57391" lon="5.832">
        <ele>678.828125</ele>
        <time>2011-09-04T07:20:17Z</time>
      </trkpt>
      <trkpt lat="45.57404" lon="5.83187">
        <ele>680.7507324</ele>
        <time>2011-09-04T07:20:24Z</time>
      </trkpt>
      <trkpt lat="45.57416" lon="5.83173">
        <ele>680.2700195</ele>
        <time>2011-09-04T07:20:30Z</time>
      </trkpt>
      <trkpt lat="45.57434" lon="5.83164">
        <ele>684.5961914</ele>
        <time>2011-09-04T07:20:37Z</time>
      </trkpt>
      <trkpt lat="45.57449" lon="5.83156">
        <ele>689.4025879</ele>
        <time>2011-09-04T07:20:43Z</time>
      </trkpt>
      <trkpt lat="45.57467" lon="5.83145">
        <ele>693.2478027</ele>
        <time>2011-09-04T07:20:51Z</time>
      </trkpt>
      <trkpt lat="45.57486" lon="5.83133">
        <ele>692.767334</ele>
        <time>2011-09-04T07:21:00Z</time>
      </trkpt>
      <trkpt lat="45.57503" lon="5.83127">
        <ele>694.6896973</ele>
        <time>2011-09-04T07:21:07Z</time>
      </trkpt>
      <trkpt lat="45.57523" lon="5.83125">
        <ele>699.015625</ele>
        <time>2011-09-04T07:21:15Z</time>
      </trkpt>
      <trkpt lat="45.57535" lon="5.83126">
        <ele>702.3803711</ele>
        <time>2011-09-04T07:21:20Z</time>
      </trkpt>
      <trkpt lat="45.57552" lon="5.83127">
        <ele>705.7451172</ele>
        <time>2011-09-04T07:21:27Z</time>
      </trkpt>
      <trkpt lat="45.57569" lon="5.83134">
        <ele>713.9160156</ele>
        <time>2011-09-04T07:21:35Z</time>
      </trkpt>
      <trkpt lat="45.57582" lon="5.83145">
        <ele>714.8774414</ele>
        <time>2011-09-04T07:21:43Z</time>
      </trkpt>
      <trkpt lat="45.57587" lon="5.83151">
        <ele>717.2810059</ele>
        <time>2011-09-04T07:21:47Z</time>
      </trkpt>
      <trkpt lat="45.576" lon="5.83148">
        <ele>717.7614746</ele>
        <time>2011-09-04T07:21:53Z</time>
      </trkpt>
      <trkpt lat="45.57605" lon="5.8314">
        <ele>717.2810059</ele>
        <time>2011-09-04T07:21:59Z</time>
      </trkpt>
      <trkpt lat="45.57613" lon="5.83134">
        <ele>715.8388672</ele>
        <time>2011-09-04T07:22:05Z</time>
      </trkpt>
      <trkpt lat="45.57618" lon="5.83137">
        <ele>713.9160156</ele>
        <time>2011-09-04T07:22:09Z</time>
      </trkpt>
      <trkpt lat="45.57619" lon="5.8314">
        <ele>713.4355469</ele>
        <time>2011-09-04T07:22:11Z</time>
      </trkpt>
      <trkpt lat="45.57623" lon="5.83143">
        <ele>714.3967285</ele>
        <time>2011-09-04T07:22:15Z</time>
      </trkpt>
      <trkpt lat="45.5763" lon="5.83143">
        <ele>717.2810059</ele>
        <time>2011-09-04T07:22:21Z</time>
      </trkpt>
      <trkpt lat="45.57636" lon="5.83139">
        <ele>712.954834</ele>
        <time>2011-09-04T07:22:33Z</time>
      </trkpt>
      <trkpt lat="45.57636" lon="5.83134">
        <ele>705.7451172</ele>
        <time>2011-09-04T07:22:41Z</time>
      </trkpt>
      <trkpt lat="45.57639" lon="5.8313">
        <ele>703.8225098</ele>
        <time>2011-09-04T07:22:50Z</time>
      </trkpt>
      <trkpt lat="45.57645" lon="5.83128">
        <ele>705.2644043</ele>
        <time>2011-09-04T07:22:54Z</time>
      </trkpt>
      <trkpt lat="45.57658" lon="5.83123">
        <ele>707.6677246</ele>
        <time>2011-09-04T07:23:03Z</time>
      </trkpt>
      <trkpt lat="45.57665" lon="5.83121">
        <ele>709.1096191</ele>
        <time>2011-09-04T07:23:09Z</time>
      </trkpt>
      <trkpt lat="45.57669" lon="5.8312">
        <ele>710.0708008</ele>
        <time>2011-09-04T07:23:12Z</time>
      </trkpt>
      <trkpt lat="45.57672" lon="5.83119">
        <ele>710.5515137</ele>
        <time>2011-09-04T07:23:14Z</time>
      </trkpt>
      <trkpt lat="45.57682" lon="5.83118">
        <ele>714.8774414</ele>
        <time>2011-09-04T07:23:21Z</time>
      </trkpt>
      <trkpt lat="45.57692" lon="5.83119">
        <ele>722.0874023</ele>
        <time>2011-09-04T07:23:28Z</time>
      </trkpt>
      <trkpt lat="45.57695" lon="5.83118">
        <ele>722.0874023</ele>
        <time>2011-09-04T07:23:30Z</time>
      </trkpt>
      <trkpt lat="45.57706" lon="5.83117">
        <ele>725.9326172</ele>
        <time>2011-09-04T07:23:38Z</time>
      </trkpt>
      <trkpt lat="45.57709" lon="5.83115">
        <ele>725.4519043</ele>
        <time>2011-09-04T07:23:41Z</time>
      </trkpt>
      <trkpt lat="45.57712" lon="5.83113">
        <ele>725.9326172</ele>
        <time>2011-09-04T07:23:44Z</time>
      </trkpt>
      <trkpt lat="45.57719" lon="5.8311">
        <ele>724.4907227</ele>
        <time>2011-09-04T07:23:51Z</time>
      </trkpt>
      <trkpt lat="45.57721" lon="5.83109">
        <ele>724.4907227</ele>
        <time>2011-09-04T07:23:52Z</time>
      </trkpt>
      <trkpt lat="45.57726" lon="5.8311">
        <ele>724.4907227</ele>
        <time>2011-09-04T07:23:57Z</time>
      </trkpt>
      <trkpt lat="45.5773" lon="5.83112">
        <ele>723.529541</ele>
        <time>2011-09-04T07:24:03Z</time>
      </trkpt>
      <trkpt lat="45.57732" lon="5.83116">
        <ele>723.529541</ele>
        <time>2011-09-04T07:24:09Z</time>
      </trkpt>
      <trkpt lat="45.57736" lon="5.83121">
        <ele>727.8552246</ele>
        <time>2011-09-04T07:24:15Z</time>
      </trkpt>
      <trkpt lat="45.57742" lon="5.8312">
        <ele>731.7004395</ele>
        <time>2011-09-04T07:24:23Z</time>
      </trkpt>
      <trkpt lat="45.57747" lon="5.83114">
        <ele>732.6621094</ele>
        <time>2011-09-04T07:24:31Z</time>
      </trkpt>
      <trkpt lat="45.57749" lon="5.83107">
        <ele>731.2199707</ele>
        <time>2011-09-04T07:24:37Z</time>
      </trkpt>
      <trkpt lat="45.57749" lon="5.831">
        <ele>732.1813965</ele>
        <time>2011-09-04T07:24:44Z</time>
      </trkpt>
      <trkpt lat="45.57746" lon="5.83091">
        <ele>736.0266113</ele>
        <time>2011-09-04T07:24:52Z</time>
      </trkpt>
      <trkpt lat="45.57745" lon="5.83084">
        <ele>742.7558594</ele>
        <time>2011-09-04T07:25:00Z</time>
      </trkpt>
      <trkpt lat="45.57742" lon="5.8308">
        <ele>746.6010742</ele>
        <time>2011-09-04T07:25:06Z</time>
      </trkpt>
      <trkpt lat="45.57736" lon="5.83072">
        <ele>751.8884277</ele>
        <time>2011-09-04T07:25:15Z</time>
      </trkpt>
      <trkpt lat="45.57731" lon="5.83066">
        <ele>756.6948242</ele>
        <time>2011-09-04T07:25:23Z</time>
      </trkpt>
      <trkpt lat="45.57729" lon="5.83062">
        <ele>762.4626465</ele>
        <time>2011-09-04T07:25:29Z</time>
      </trkpt>
      <trkpt lat="45.57726" lon="5.83058">
        <ele>769.6728516</ele>
        <time>2011-09-04T07:25:35Z</time>
      </trkpt>
      <trkpt lat="45.57718" lon="5.83053">
        <ele>770.6340332</ele>
        <time>2011-09-04T07:25:43Z</time>
      </trkpt>
      <trkpt lat="45.57712" lon="5.83045">
        <ele>770.6340332</ele>
        <time>2011-09-04T07:25:51Z</time>
      </trkpt>
      <trkpt lat="45.57711" lon="5.83044">
        <ele>771.1147461</ele>
        <time>2011-09-04T07:25:52Z</time>
      </trkpt>
      <trkpt lat="45.57707" lon="5.83035">
        <ele>767.2695313</ele>
        <time>2011-09-04T07:26:00Z</time>
      </trkpt>
      <trkpt lat="45.57706" lon="5.83027">
        <ele>767.75</ele>
        <time>2011-09-04T07:26:07Z</time>
      </trkpt>
      <trkpt lat="45.57706" lon="5.8302">
        <ele>774.9599609</ele>
        <time>2011-09-04T07:26:15Z</time>
      </trkpt>
      <trkpt lat="45.57703" lon="5.83016">
        <ele>776.4018555</ele>
        <time>2011-09-04T07:26:20Z</time>
      </trkpt>
      <trkpt lat="45.57697" lon="5.8301">
        <ele>773.9985352</ele>
        <time>2011-09-04T07:26:26Z</time>
      </trkpt>
      <trkpt lat="45.57684" lon="5.83002">
        <ele>776.8825684</ele>
        <time>2011-09-04T07:26:36Z</time>
      </trkpt>
      <trkpt lat="45.57676" lon="5.82998">
        <ele>774.479248</ele>
        <time>2011-09-04T07:26:43Z</time>
      </trkpt>
      <trkpt lat="45.57675" lon="5.82998">
        <ele>773.9985352</ele>
        <time>2011-09-04T07:26:44Z</time>
      </trkpt>
      <trkpt lat="45.57673" lon="5.82991">
        <ele>776.4018555</ele>
        <time>2011-09-04T07:26:49Z</time>
      </trkpt>
      <trkpt lat="45.57673" lon="5.82984">
        <ele>773.9985352</ele>
        <time>2011-09-04T07:26:54Z</time>
      </trkpt>
      <trkpt lat="45.57681" lon="5.82985">
        <ele>768.2307129</ele>
        <time>2011-09-04T07:27:02Z</time>
      </trkpt>
      <trkpt lat="45.57685" lon="5.82984">
        <ele>765.8276367</ele>
        <time>2011-09-04T07:27:06Z</time>
      </trkpt>
      <trkpt lat="45.57687" lon="5.82984">
        <ele>766.3081055</ele>
        <time>2011-09-04T07:27:08Z</time>
      </trkpt>
      <trkpt lat="45.57693" lon="5.82985">
        <ele>766.3081055</ele>
        <time>2011-09-04T07:27:13Z</time>
      </trkpt>
      <trkpt lat="45.57702" lon="5.82988">
        <ele>769.1921387</ele>
        <time>2011-09-04T07:27:20Z</time>
      </trkpt>
      <trkpt lat="45.57708" lon="5.82989">
        <ele>769.6728516</ele>
        <time>2011-09-04T07:27:25Z</time>
      </trkpt>
      <trkpt lat="45.57714" lon="5.82988">
        <ele>770.1533203</ele>
        <time>2011-09-04T07:27:30Z</time>
      </trkpt>
      <trkpt lat="45.57716" lon="5.82989">
        <ele>770.1533203</ele>
        <time>2011-09-04T07:27:32Z</time>
      </trkpt>
      <trkpt lat="45.57723" lon="5.8299">
        <ele>768.7114258</ele>
        <time>2011-09-04T07:27:39Z</time>
      </trkpt>
      <trkpt lat="45.57727" lon="5.82992">
        <ele>769.1921387</ele>
        <time>2011-09-04T07:27:46Z</time>
      </trkpt>
      <trkpt lat="45.5773" lon="5.8299">
        <ele>771.1147461</ele>
        <time>2011-09-04T07:27:50Z</time>
      </trkpt>
      <trkpt lat="45.57737" lon="5.82984">
        <ele>772.5566406</ele>
        <time>2011-09-04T07:27:55Z</time>
      </trkpt>
      <trkpt lat="45.57742" lon="5.82981">
        <ele>768.7114258</ele>
        <time>2011-09-04T07:28:01Z</time>
      </trkpt>
      <trkpt lat="45.57746" lon="5.82979">
        <ele>770.6340332</ele>
        <time>2011-09-04T07:28:08Z</time>
      </trkpt>
      <trkpt lat="45.57747" lon="5.82975">
        <ele>768.7114258</ele>
        <time>2011-09-04T07:28:14Z</time>
      </trkpt>
      <trkpt lat="45.5775" lon="5.82972">
        <ele>770.1533203</ele>
        <time>2011-09-04T07:28:19Z</time>
      </trkpt>
      <trkpt lat="45.57753" lon="5.82969">
        <ele>769.6728516</ele>
        <time>2011-09-04T07:28:24Z</time>
      </trkpt>
      <trkpt lat="45.57757" lon="5.82968">
        <ele>770.6340332</ele>
        <time>2011-09-04T07:28:30Z</time>
      </trkpt>
      <trkpt lat="45.57763" lon="5.82971">
        <ele>786.4958496</ele>
        <time>2011-09-04T07:28:42Z</time>
      </trkpt>
      <trkpt lat="45.57765" lon="5.82968">
        <ele>786.4958496</ele>
        <time>2011-09-04T07:28:45Z</time>
      </trkpt>
      <trkpt lat="45.57769" lon="5.82965">
        <ele>791.782959</ele>
        <time>2011-09-04T07:28:50Z</time>
      </trkpt>
      <trkpt lat="45.57772" lon="5.8296">
        <ele>791.782959</ele>
        <time>2011-09-04T07:28:55Z</time>
      </trkpt>
      <trkpt lat="45.57775" lon="5.82954">
        <ele>790.3410645</ele>
        <time>2011-09-04T07:29:01Z</time>
      </trkpt>
      <trkpt lat="45.57777" lon="5.82952">
        <ele>789.3796387</ele>
        <time>2011-09-04T07:29:07Z</time>
      </trkpt>
      <trkpt lat="45.5778" lon="5.82949">
        <ele>786.0151367</ele>
        <time>2011-09-04T07:29:12Z</time>
      </trkpt>
      <trkpt lat="45.57787" lon="5.82943">
        <ele>783.6118164</ele>
        <time>2011-09-04T07:29:18Z</time>
      </trkpt>
      <trkpt lat="45.57795" lon="5.82944">
        <ele>788.8991699</ele>
        <time>2011-09-04T07:29:24Z</time>
      </trkpt>
      <trkpt lat="45.57805" lon="5.82936">
        <ele>786.9763184</ele>
        <time>2011-09-04T07:29:33Z</time>
      </trkpt>
      <trkpt lat="45.57814" lon="5.82934">
        <ele>787.4570313</ele>
        <time>2011-09-04T07:29:40Z</time>
      </trkpt>
      <trkpt lat="45.57821" lon="5.82935">
        <ele>788.8991699</ele>
        <time>2011-09-04T07:29:47Z</time>
      </trkpt>
      <trkpt lat="45.57829" lon="5.82934">
        <ele>791.3022461</ele>
        <time>2011-09-04T07:29:53Z</time>
      </trkpt>
      <trkpt lat="45.5784" lon="5.82929">
        <ele>790.3410645</ele>
        <time>2011-09-04T07:30:01Z</time>
      </trkpt>
      <trkpt lat="45.5785" lon="5.82924">
        <ele>790.8215332</ele>
        <time>2011-09-04T07:30:09Z</time>
      </trkpt>
      <trkpt lat="45.57851" lon="5.82924">
        <ele>790.3410645</ele>
        <time>2011-09-04T07:30:10Z</time>
      </trkpt>
      <trkpt lat="45.57855" lon="5.82921">
        <ele>790.3410645</ele>
        <time>2011-09-04T07:30:14Z</time>
      </trkpt>
      <trkpt lat="45.57862" lon="5.8292">
        <ele>790.8215332</ele>
        <time>2011-09-04T07:30:21Z</time>
      </trkpt>
      <trkpt lat="45.57869" lon="5.82918">
        <ele>792.2636719</ele>
        <time>2011-09-04T07:30:28Z</time>
      </trkpt>
      <trkpt lat="45.57877" lon="5.82913">
        <ele>794.1862793</ele>
        <time>2011-09-04T07:30:35Z</time>
      </trkpt>
      <trkpt lat="45.57881" lon="5.82914">
        <ele>794.666748</ele>
        <time>2011-09-04T07:30:39Z</time>
      </trkpt>
      <trkpt lat="45.57891" lon="5.82907">
        <ele>796.1091309</ele>
        <time>2011-09-04T07:30:47Z</time>
      </trkpt>
      <trkpt lat="45.57894" lon="5.82905">
        <ele>796.1091309</ele>
        <time>2011-09-04T07:30:49Z</time>
      </trkpt>
      <trkpt lat="45.57903" lon="5.829">
        <ele>798.0317383</ele>
        <time>2011-09-04T07:30:58Z</time>
      </trkpt>
      <trkpt lat="45.57912" lon="5.82897">
        <ele>800.4350586</ele>
        <time>2011-09-04T07:31:05Z</time>
      </trkpt>
      <trkpt lat="45.5792" lon="5.82893">
        <ele>801.3962402</ele>
        <time>2011-09-04T07:31:12Z</time>
      </trkpt>
      <trkpt lat="45.57928" lon="5.8289">
        <ele>803.3188477</ele>
        <time>2011-09-04T07:31:20Z</time>
      </trkpt>
      <trkpt lat="45.57936" lon="5.82888">
        <ele>807.1640625</ele>
        <time>2011-09-04T07:31:27Z</time>
      </trkpt>
      <trkpt lat="45.57938" lon="5.82887">
        <ele>807.1640625</ele>
        <time>2011-09-04T07:31:29Z</time>
      </trkpt>
      <trkpt lat="45.57946" lon="5.82886">
        <ele>808.1254883</ele>
        <time>2011-09-04T07:31:37Z</time>
      </trkpt>
      <trkpt lat="45.57957" lon="5.8288">
        <ele>811.0092773</ele>
        <time>2011-09-04T07:31:46Z</time>
      </trkpt>
      <trkpt lat="45.57968" lon="5.82871">
        <ele>809.5673828</ele>
        <time>2011-09-04T07:31:55Z</time>
      </trkpt>
      <trkpt lat="45.57976" lon="5.82863">
        <ele>808.605957</ele>
        <time>2011-09-04T07:32:03Z</time>
      </trkpt>
      <trkpt lat="45.57985" lon="5.82861">
        <ele>810.5285645</ele>
        <time>2011-09-04T07:32:10Z</time>
      </trkpt>
      <trkpt lat="45.57995" lon="5.82864">
        <ele>817.2580566</ele>
        <time>2011-09-04T07:32:16Z</time>
      </trkpt>
      <trkpt lat="45.57999" lon="5.82867">
        <ele>819.661377</ele>
        <time>2011-09-04T07:32:18Z</time>
      </trkpt>
      <trkpt lat="45.58002" lon="5.82875">
        <ele>820.6225586</ele>
        <time>2011-09-04T07:32:22Z</time>
      </trkpt>
      <trkpt lat="45.58007" lon="5.82884">
        <ele>815.3354492</ele>
        <time>2011-09-04T07:32:29Z</time>
      </trkpt>
      <trkpt lat="45.58017" lon="5.82895">
        <ele>817.2580566</ele>
        <time>2011-09-04T07:32:35Z</time>
      </trkpt>
      <trkpt lat="45.58019" lon="5.82895">
        <ele>817.7385254</ele>
        <time>2011-09-04T07:32:36Z</time>
      </trkpt>
      <trkpt lat="45.58035" lon="5.82891">
        <ele>818.6999512</ele>
        <time>2011-09-04T07:32:41Z</time>
      </trkpt>
      <trkpt lat="45.58048" lon="5.82882">
        <ele>819.1806641</ele>
        <time>2011-09-04T07:32:46Z</time>
      </trkpt>
      <trkpt lat="45.58055" lon="5.8286">
        <ele>813.8933105</ele>
        <time>2011-09-04T07:32:51Z</time>
      </trkpt>
      <trkpt lat="45.58065" lon="5.82838">
        <ele>808.605957</ele>
        <time>2011-09-04T07:32:57Z</time>
      </trkpt>
      <trkpt lat="45.58078" lon="5.82836">
        <ele>813.4128418</ele>
        <time>2011-09-04T07:33:03Z</time>
      </trkpt>
      <trkpt lat="45.5809" lon="5.82839">
        <ele>814.8547363</ele>
        <time>2011-09-04T07:33:08Z</time>
      </trkpt>
      <trkpt lat="45.58103" lon="5.82851">
        <ele>821.1032715</ele>
        <time>2011-09-04T07:33:15Z</time>
      </trkpt>
      <trkpt lat="45.58116" lon="5.82858">
        <ele>819.1806641</ele>
        <time>2011-09-04T07:33:21Z</time>
      </trkpt>
      <trkpt lat="45.58122" lon="5.82862">
        <ele>819.661377</ele>
        <time>2011-09-04T07:33:25Z</time>
      </trkpt>
      <trkpt lat="45.58131" lon="5.8287">
        <ele>821.5837402</ele>
        <time>2011-09-04T07:33:32Z</time>
      </trkpt>
      <trkpt lat="45.58135" lon="5.8287">
        <ele>821.1032715</ele>
        <time>2011-09-04T07:33:34Z</time>
      </trkpt>
      <trkpt lat="45.58147" lon="5.82866">
        <ele>823.0258789</ele>
        <time>2011-09-04T07:33:41Z</time>
      </trkpt>
      <trkpt lat="45.58155" lon="5.82865">
        <ele>831.1972656</ele>
        <time>2011-09-04T07:33:46Z</time>
      </trkpt>
      <trkpt lat="45.58164" lon="5.82864">
        <ele>836.0036621</ele>
        <time>2011-09-04T07:33:52Z</time>
      </trkpt>
      <trkpt lat="45.58176" lon="5.82862">
        <ele>838.8876953</ele>
        <time>2011-09-04T07:33:59Z</time>
      </trkpt>
      <trkpt lat="45.58189" lon="5.82862">
        <ele>844.6555176</ele>
        <time>2011-09-04T07:34:06Z</time>
      </trkpt>
      <trkpt lat="45.58196" lon="5.8286">
        <ele>843.2133789</ele>
        <time>2011-09-04T07:34:13Z</time>
      </trkpt>
      <trkpt lat="45.58203" lon="5.82863">
        <ele>841.2907715</ele>
        <time>2011-09-04T07:34:21Z</time>
      </trkpt>
      <trkpt lat="45.58206" lon="5.82863">
        <ele>839.848877</ele>
        <time>2011-09-04T07:34:24Z</time>
      </trkpt>
      <trkpt lat="45.58216" lon="5.82856">
        <ele>836.9648438</ele>
        <time>2011-09-04T07:34:33Z</time>
      </trkpt>
      <trkpt lat="45.58219" lon="5.82854">
        <ele>836.0036621</ele>
        <time>2011-09-04T07:34:36Z</time>
      </trkpt>
      <trkpt lat="45.58231" lon="5.82852">
        <ele>838.4069824</ele>
        <time>2011-09-04T07:34:45Z</time>
      </trkpt>
      <trkpt lat="45.58243" lon="5.8285">
        <ele>844.1750488</ele>
        <time>2011-09-04T07:34:54Z</time>
      </trkpt>
      <trkpt lat="45.58249" lon="5.82849">
        <ele>842.2521973</ele>
        <time>2011-09-04T07:35:01Z</time>
      </trkpt>
      <trkpt lat="45.58256" lon="5.82851">
        <ele>843.2133789</ele>
        <time>2011-09-04T07:35:08Z</time>
      </trkpt>
      <trkpt lat="45.58264" lon="5.82855">
        <ele>844.1750488</ele>
        <time>2011-09-04T07:35:16Z</time>
      </trkpt>
      <trkpt lat="45.58271" lon="5.82856">
        <ele>844.6555176</ele>
        <time>2011-09-04T07:35:21Z</time>
      </trkpt>
      <trkpt lat="45.58277" lon="5.82856">
        <ele>842.7329102</ele>
        <time>2011-09-04T07:35:26Z</time>
      </trkpt>
      <trkpt lat="45.58285" lon="5.82852">
        <ele>842.7329102</ele>
        <time>2011-09-04T07:35:34Z</time>
      </trkpt>
      <trkpt lat="45.58291" lon="5.82851">
        <ele>844.1750488</ele>
        <time>2011-09-04T07:35:41Z</time>
      </trkpt>
      <trkpt lat="45.58302" lon="5.82848">
        <ele>849.9428711</ele>
        <time>2011-09-04T07:35:49Z</time>
      </trkpt>
      <trkpt lat="45.58303" lon="5.82848">
        <ele>851.8654785</ele>
        <time>2011-09-04T07:35:50Z</time>
      </trkpt>
      <trkpt lat="45.58311" lon="5.82845">
        <ele>852.3459473</ele>
        <time>2011-09-04T07:35:58Z</time>
      </trkpt>
      <trkpt lat="45.58318" lon="5.82839">
        <ele>849.4621582</ele>
        <time>2011-09-04T07:36:05Z</time>
      </trkpt>
      <trkpt lat="45.58324" lon="5.82835">
        <ele>849.4621582</ele>
        <time>2011-09-04T07:36:12Z</time>
      </trkpt>
      <trkpt lat="45.58331" lon="5.82827">
        <ele>848.0202637</ele>
        <time>2011-09-04T07:36:19Z</time>
      </trkpt>
      <trkpt lat="45.58338" lon="5.8282">
        <ele>848.5007324</ele>
        <time>2011-09-04T07:36:26Z</time>
      </trkpt>
      <trkpt lat="45.58343" lon="5.82817">
        <ele>850.423584</ele>
        <time>2011-09-04T07:36:32Z</time>
      </trkpt>
      <trkpt lat="45.58352" lon="5.82814">
        <ele>853.7880859</ele>
        <time>2011-09-04T07:36:40Z</time>
      </trkpt>
      <trkpt lat="45.58356" lon="5.82816">
        <ele>854.7492676</ele>
        <time>2011-09-04T07:36:45Z</time>
      </trkpt>
      <trkpt lat="45.58366" lon="5.82814">
        <ele>856.1911621</ele>
        <time>2011-09-04T07:36:52Z</time>
      </trkpt>
      <trkpt lat="45.58374" lon="5.82814">
        <ele>858.1140137</ele>
        <time>2011-09-04T07:36:59Z</time>
      </trkpt>
      <trkpt lat="45.58382" lon="5.82816">
        <ele>861.9594727</ele>
        <time>2011-09-04T07:37:05Z</time>
      </trkpt>
      <trkpt lat="45.58389" lon="5.82812">
        <ele>860.9980469</ele>
        <time>2011-09-04T07:37:11Z</time>
      </trkpt>
      <trkpt lat="45.58393" lon="5.8281">
        <ele>861.4787598</ele>
        <time>2011-09-04T07:37:15Z</time>
      </trkpt>
      <trkpt lat="45.584" lon="5.82809">
        <ele>864.3625488</ele>
        <time>2011-09-04T07:37:23Z</time>
      </trkpt>
      <trkpt lat="45.58409" lon="5.82804">
        <ele>866.2851563</ele>
        <time>2011-09-04T07:37:31Z</time>
      </trkpt>
      <trkpt lat="45.58419" lon="5.82794">
        <ele>866.7658691</ele>
        <time>2011-09-04T07:37:40Z</time>
      </trkpt>
      <trkpt lat="45.58428" lon="5.82789">
        <ele>867.7270508</ele>
        <time>2011-09-04T07:37:47Z</time>
      </trkpt>
      <trkpt lat="45.58438" lon="5.82787">
        <ele>868.2077637</ele>
        <time>2011-09-04T07:37:55Z</time>
      </trkpt>
      <trkpt lat="45.58445" lon="5.82784">
        <ele>866.7658691</ele>
        <time>2011-09-04T07:38:01Z</time>
      </trkpt>
      <trkpt lat="45.58452" lon="5.82783">
        <ele>872.0529785</ele>
        <time>2011-09-04T07:38:07Z</time>
      </trkpt>
      <trkpt lat="45.58463" lon="5.82779">
        <ele>875.8981934</ele>
        <time>2011-09-04T07:38:15Z</time>
      </trkpt>
      <trkpt lat="45.58465" lon="5.82779">
        <ele>876.8598633</ele>
        <time>2011-09-04T07:38:16Z</time>
      </trkpt>
      <trkpt lat="45.58471" lon="5.82783">
        <ele>878.7824707</ele>
        <time>2011-09-04T07:38:21Z</time>
      </trkpt>
      <trkpt lat="45.58483" lon="5.82786">
        <ele>888.3955078</ele>
        <time>2011-09-04T07:38:28Z</time>
      </trkpt>
      <trkpt lat="45.58499" lon="5.82788">
        <ele>890.3181152</ele>
        <time>2011-09-04T07:38:33Z</time>
      </trkpt>
      <trkpt lat="45.58523" lon="5.82797">
        <ele>892.2409668</ele>
        <time>2011-09-04T07:38:37Z</time>
      </trkpt>
      <trkpt lat="45.58561" lon="5.82802">
        <ele>889.3566895</ele>
        <time>2011-09-04T07:38:42Z</time>
      </trkpt>
      <trkpt lat="45.58608" lon="5.82798">
        <ele>891.7600098</ele>
        <time>2011-09-04T07:38:47Z</time>
      </trkpt>
      <trkpt lat="45.58654" lon="5.82806">
        <ele>885.9921875</ele>
        <time>2011-09-04T07:38:52Z</time>
      </trkpt>
      <trkpt lat="45.58687" lon="5.82803">
        <ele>885.9921875</ele>
        <time>2011-09-04T07:38:55Z</time>
      </trkpt>
      <trkpt lat="45.58751" lon="5.82809">
        <ele>878.7824707</ele>
        <time>2011-09-04T07:39:01Z</time>
      </trkpt>
      <trkpt lat="45.58792" lon="5.82817">
        <ele>868.6884766</ele>
        <time>2011-09-04T07:39:05Z</time>
      </trkpt>
      <trkpt lat="45.5886" lon="5.82821">
        <ele>855.7106934</ele>
        <time>2011-09-04T07:39:11Z</time>
      </trkpt>
      <trkpt lat="45.58873" lon="5.8282">
        <ele>855.2299805</ele>
        <time>2011-09-04T07:39:12Z</time>
      </trkpt>
      <trkpt lat="45.58919" lon="5.82807">
        <ele>850.9040527</ele>
        <time>2011-09-04T07:39:16Z</time>
      </trkpt>
      <trkpt lat="45.58974" lon="5.82786">
        <ele>842.7329102</ele>
        <time>2011-09-04T07:39:21Z</time>
      </trkpt>
      <trkpt lat="45.59039" lon="5.82776">
        <ele>833.1196289</ele>
        <time>2011-09-04T07:39:27Z</time>
      </trkpt>
      <trkpt lat="45.59063" lon="5.82785">
        <ele>828.3132324</ele>
        <time>2011-09-04T07:39:30Z</time>
      </trkpt>
      <trkpt lat="45.59079" lon="5.82785">
        <ele>828.7939453</ele>
        <time>2011-09-04T07:39:32Z</time>
      </trkpt>
      <trkpt lat="45.59089" lon="5.828">
        <ele>828.3132324</ele>
        <time>2011-09-04T07:39:35Z</time>
      </trkpt>
      <trkpt lat="45.59079" lon="5.8281">
        <ele>823.0258789</ele>
        <time>2011-09-04T07:39:37Z</time>
      </trkpt>
      <trkpt lat="45.59065" lon="5.82811">
        <ele>822.545166</ele>
        <time>2011-09-04T07:39:39Z</time>
      </trkpt>
      <trkpt lat="45.5905" lon="5.82802">
        <ele>820.6225586</ele>
        <time>2011-09-04T07:39:41Z</time>
      </trkpt>
      <trkpt lat="45.59034" lon="5.82801">
        <ele>819.1806641</ele>
        <time>2011-09-04T07:39:43Z</time>
      </trkpt>
      <trkpt lat="45.59004" lon="5.82812">
        <ele>813.8933105</ele>
        <time>2011-09-04T07:39:47Z</time>
      </trkpt>
      <trkpt lat="45.5899" lon="5.82819">
        <ele>811.4899902</ele>
        <time>2011-09-04T07:39:50Z</time>
      </trkpt>
      <trkpt lat="45.58991" lon="5.82829">
        <ele>810.0478516</ele>
        <time>2011-09-04T07:39:55Z</time>
      </trkpt>
      <trkpt lat="45.58998" lon="5.82829">
        <ele>806.2026367</ele>
        <time>2011-09-04T07:39:57Z</time>
      </trkpt>
      <trkpt lat="45.59019" lon="5.82819">
        <ele>793.7055664</ele>
        <time>2011-09-04T07:40:02Z</time>
      </trkpt>
      <trkpt lat="45.59036" lon="5.82823">
        <ele>792.2636719</ele>
        <time>2011-09-04T07:40:05Z</time>
      </trkpt>
      <trkpt lat="45.59067" lon="5.82835">
        <ele>805.2414551</ele>
        <time>2011-09-04T07:40:10Z</time>
      </trkpt>
      <trkpt lat="45.59092" lon="5.82839">
        <ele>820.1418457</ele>
        <time>2011-09-04T07:40:14Z</time>
      </trkpt>
      <trkpt lat="45.59108" lon="5.82839">
        <ele>830.2358398</ele>
        <time>2011-09-04T07:40:17Z</time>
      </trkpt>
      <trkpt lat="45.59115" lon="5.82843">
        <ele>833.6003418</ele>
        <time>2011-09-04T07:40:19Z</time>
      </trkpt>
      <trkpt lat="45.59132" lon="5.82849">
        <ele>838.8876953</ele>
        <time>2011-09-04T07:40:24Z</time>
      </trkpt>
      <trkpt lat="45.59148" lon="5.82856">
        <ele>838.4069824</ele>
        <time>2011-09-04T07:40:30Z</time>
      </trkpt>
      <trkpt lat="45.59152" lon="5.82857">
        <ele>838.4069824</ele>
        <time>2011-09-04T07:40:31Z</time>
      </trkpt>
      <trkpt lat="45.59174" lon="5.82863">
        <ele>834.0810547</ele>
        <time>2011-09-04T07:40:38Z</time>
      </trkpt>
      <trkpt lat="45.59199" lon="5.82872">
        <ele>836.0036621</ele>
        <time>2011-09-04T07:40:45Z</time>
      </trkpt>
      <trkpt lat="45.59211" lon="5.82886">
        <ele>836.9648438</ele>
        <time>2011-09-04T07:40:50Z</time>
      </trkpt>
      <trkpt lat="45.59226" lon="5.82894">
        <ele>837.4455566</ele>
        <time>2011-09-04T07:40:55Z</time>
      </trkpt>
      <trkpt lat="45.59242" lon="5.82898">
        <ele>833.6003418</ele>
        <time>2011-09-04T07:40:59Z</time>
      </trkpt>
      <trkpt lat="45.59259" lon="5.82904">
        <ele>826.8710938</ele>
        <time>2011-09-04T07:41:04Z</time>
      </trkpt>
      <trkpt lat="45.5928" lon="5.82912">
        <ele>827.3518066</ele>
        <time>2011-09-04T07:41:09Z</time>
      </trkpt>
      <trkpt lat="45.59295" lon="5.82916">
        <ele>828.3132324</ele>
        <time>2011-09-04T07:41:13Z</time>
      </trkpt>
      <trkpt lat="45.59308" lon="5.82921">
        <ele>832.1584473</ele>
        <time>2011-09-04T07:41:16Z</time>
      </trkpt>
      <trkpt lat="45.59322" lon="5.82928">
        <ele>836.484375</ele>
        <time>2011-09-04T07:41:19Z</time>
      </trkpt>
      <trkpt lat="45.59346" lon="5.82935">
        <ele>837.4455566</ele>
        <time>2011-09-04T07:41:24Z</time>
      </trkpt>
      <trkpt lat="45.59351" lon="5.82937">
        <ele>837.4455566</ele>
        <time>2011-09-04T07:41:25Z</time>
      </trkpt>
      <trkpt lat="45.59362" lon="5.82939">
        <ele>837.9262695</ele>
        <time>2011-09-04T07:41:27Z</time>
      </trkpt>
      <trkpt lat="45.59382" lon="5.82949">
        <ele>834.5617676</ele>
        <time>2011-09-04T07:41:32Z</time>
      </trkpt>
      <trkpt lat="45.59395" lon="5.8296">
        <ele>833.1196289</ele>
        <time>2011-09-04T07:41:36Z</time>
      </trkpt>
      <trkpt lat="45.59416" lon="5.82969">
        <ele>829.755127</ele>
        <time>2011-09-04T07:41:41Z</time>
      </trkpt>
      <trkpt lat="45.59437" lon="5.82973">
        <ele>828.7939453</ele>
        <time>2011-09-04T07:41:46Z</time>
      </trkpt>
      <trkpt lat="45.59448" lon="5.82977">
        <ele>827.3518066</ele>
        <time>2011-09-04T07:41:49Z</time>
      </trkpt>
      <trkpt lat="45.59473" lon="5.8299">
        <ele>830.2358398</ele>
        <time>2011-09-04T07:41:55Z</time>
      </trkpt>
      <trkpt lat="45.59477" lon="5.82993">
        <ele>830.2358398</ele>
        <time>2011-09-04T07:41:56Z</time>
      </trkpt>
      <trkpt lat="45.59507" lon="5.83005">
        <ele>832.6391602</ele>
        <time>2011-09-04T07:42:02Z</time>
      </trkpt>
      <trkpt lat="45.59539" lon="5.82998">
        <ele>830.7165527</ele>
        <time>2011-09-04T07:42:07Z</time>
      </trkpt>
      <trkpt lat="45.59546" lon="5.82995">
        <ele>830.2358398</ele>
        <time>2011-09-04T07:42:08Z</time>
      </trkpt>
      <trkpt lat="45.59567" lon="5.82984">
        <ele>829.755127</ele>
        <time>2011-09-04T07:42:11Z</time>
      </trkpt>
      <trkpt lat="45.59586" lon="5.82972">
        <ele>823.9870605</ele>
        <time>2011-09-04T07:42:14Z</time>
      </trkpt>
      <trkpt lat="45.59638" lon="5.82958">
        <ele>814.8547363</ele>
        <time>2011-09-04T07:42:21Z</time>
      </trkpt>
      <trkpt lat="45.59678" lon="5.82964">
        <ele>813.8933105</ele>
        <time>2011-09-04T07:42:26Z</time>
      </trkpt>
      <trkpt lat="45.59728" lon="5.82989">
        <ele>809.5673828</ele>
        <time>2011-09-04T07:42:33Z</time>
      </trkpt>
      <trkpt lat="45.59751" lon="5.83002">
        <ele>807.6447754</ele>
        <time>2011-09-04T07:42:36Z</time>
      </trkpt>
      <trkpt lat="45.59766" lon="5.83009">
        <ele>807.6447754</ele>
        <time>2011-09-04T07:42:38Z</time>
      </trkpt>
      <trkpt lat="45.5979" lon="5.83013">
        <ele>807.6447754</ele>
        <time>2011-09-04T07:42:42Z</time>
      </trkpt>
      <trkpt lat="45.59804" lon="5.83013">
        <ele>810.0478516</ele>
        <time>2011-09-04T07:42:45Z</time>
      </trkpt>
      <trkpt lat="45.59829" lon="5.83014">
        <ele>814.8547363</ele>
        <time>2011-09-04T07:42:51Z</time>
      </trkpt>
      <trkpt lat="45.5984" lon="5.83013">
        <ele>813.8933105</ele>
        <time>2011-09-04T07:42:53Z</time>
      </trkpt>
      <trkpt lat="45.59861" lon="5.83015">
        <ele>814.3740234</ele>
        <time>2011-09-04T07:42:57Z</time>
      </trkpt>
      <trkpt lat="45.59884" lon="5.83024">
        <ele>811.9707031</ele>
        <time>2011-09-04T07:43:02Z</time>
      </trkpt>
      <trkpt lat="45.59911" lon="5.83041">
        <ele>807.6447754</ele>
        <time>2011-09-04T07:43:07Z</time>
      </trkpt>
      <trkpt lat="45.59916" lon="5.83043">
        <ele>804.2802734</ele>
        <time>2011-09-04T07:43:08Z</time>
      </trkpt>
      <trkpt lat="45.59949" lon="5.83058">
        <ele>797.5510254</ele>
        <time>2011-09-04T07:43:14Z</time>
      </trkpt>
      <trkpt lat="45.59983" lon="5.83067">
        <ele>795.6281738</ele>
        <time>2011-09-04T07:43:19Z</time>
      </trkpt>
      <trkpt lat="45.60002" lon="5.83073">
        <ele>795.1474609</ele>
        <time>2011-09-04T07:43:22Z</time>
      </trkpt>
      <trkpt lat="45.60018" lon="5.83072">
        <ele>794.1862793</ele>
        <time>2011-09-04T07:43:26Z</time>
      </trkpt>
      <trkpt lat="45.60019" lon="5.83071">
        <ele>793.7055664</ele>
        <time>2011-09-04T07:43:27Z</time>
      </trkpt>
      <trkpt lat="45.60023" lon="5.83073">
        <ele>798.0317383</ele>
        <time>2011-09-04T07:43:33Z</time>
      </trkpt>
      <trkpt lat="45.6002" lon="5.83074">
        <ele>798.0317383</ele>
        <time>2011-09-04T07:43:39Z</time>
      </trkpt>
      <trkpt lat="45.60024" lon="5.83073">
        <ele>799.4736328</ele>
        <time>2011-09-04T07:43:46Z</time>
      </trkpt>
      <trkpt lat="45.6003" lon="5.83071">
        <ele>800.4350586</ele>
        <time>2011-09-04T07:43:55Z</time>
      </trkpt>
      <trkpt lat="45.6004" lon="5.83069">
        <ele>801.8769531</ele>
        <time>2011-09-04T07:44:01Z</time>
      </trkpt>
      <trkpt lat="45.60052" lon="5.83063">
        <ele>800.9155273</ele>
        <time>2011-09-04T07:44:08Z</time>
      </trkpt>
      <trkpt lat="45.60061" lon="5.83056">
        <ele>798.0317383</ele>
        <time>2011-09-04T07:44:14Z</time>
      </trkpt>
      <trkpt lat="45.60062" lon="5.83055">
        <ele>797.5510254</ele>
        <time>2011-09-04T07:44:15Z</time>
      </trkpt>
      <trkpt lat="45.60067" lon="5.83053">
        <ele>797.0703125</ele>
        <time>2011-09-04T07:44:19Z</time>
      </trkpt>
      <trkpt lat="45.60077" lon="5.83049">
        <ele>798.0317383</ele>
        <time>2011-09-04T07:44:26Z</time>
      </trkpt>
      <trkpt lat="45.60089" lon="5.83048">
        <ele>802.8381348</ele>
        <time>2011-09-04T07:44:34Z</time>
      </trkpt>
      <trkpt lat="45.60092" lon="5.83047">
        <ele>803.7995605</ele>
        <time>2011-09-04T07:44:36Z</time>
      </trkpt>
      <trkpt lat="45.60104" lon="5.83049">
        <ele>812.9321289</ele>
        <time>2011-09-04T07:44:44Z</time>
      </trkpt>
      <trkpt lat="45.60105" lon="5.8305">
        <ele>813.4128418</ele>
        <time>2011-09-04T07:44:45Z</time>
      </trkpt>
      <trkpt lat="45.60116" lon="5.83049">
        <ele>810.0478516</ele>
        <time>2011-09-04T07:44:54Z</time>
      </trkpt>
      <trkpt lat="45.60122" lon="5.83048">
        <ele>809.0866699</ele>
        <time>2011-09-04T07:44:59Z</time>
      </trkpt>
      <trkpt lat="45.60132" lon="5.83045">
        <ele>809.5673828</ele>
        <time>2011-09-04T07:45:06Z</time>
      </trkpt>
      <trkpt lat="45.60139" lon="5.83045">
        <ele>810.0478516</ele>
        <time>2011-09-04T07:45:11Z</time>
      </trkpt>
      <trkpt lat="45.60148" lon="5.83044">
        <ele>812.451416</ele>
        <time>2011-09-04T07:45:17Z</time>
      </trkpt>
      <trkpt lat="45.60153" lon="5.83046">
        <ele>814.8547363</ele>
        <time>2011-09-04T07:45:21Z</time>
      </trkpt>
      <trkpt lat="45.60167" lon="5.83044">
        <ele>817.2580566</ele>
        <time>2011-09-04T07:45:30Z</time>
      </trkpt>
      <trkpt lat="45.60177" lon="5.83042">
        <ele>814.3740234</ele>
        <time>2011-09-04T07:45:37Z</time>
      </trkpt>
      <trkpt lat="45.60186" lon="5.83039">
        <ele>812.9321289</ele>
        <time>2011-09-04T07:45:44Z</time>
      </trkpt>
      <trkpt lat="45.60199" lon="5.83037">
        <ele>812.451416</ele>
        <time>2011-09-04T07:45:52Z</time>
      </trkpt>
      <trkpt lat="45.60211" lon="5.83037">
        <ele>815.3354492</ele>
        <time>2011-09-04T07:46:00Z</time>
      </trkpt>
      <trkpt lat="45.60224" lon="5.83037">
        <ele>817.7385254</ele>
        <time>2011-09-04T07:46:08Z</time>
      </trkpt>
      <trkpt lat="45.60232" lon="5.83037">
        <ele>816.7773438</ele>
        <time>2011-09-04T07:46:14Z</time>
      </trkpt>
      <trkpt lat="45.6024" lon="5.83038">
        <ele>817.7385254</ele>
        <time>2011-09-04T07:46:20Z</time>
      </trkpt>
      <trkpt lat="45.60249" lon="5.83039">
        <ele>819.1806641</ele>
        <time>2011-09-04T07:46:27Z</time>
      </trkpt>
      <trkpt lat="45.60259" lon="5.83039">
        <ele>822.545166</ele>
        <time>2011-09-04T07:46:34Z</time>
      </trkpt>
      <trkpt lat="45.60267" lon="5.83039">
        <ele>821.5837402</ele>
        <time>2011-09-04T07:46:40Z</time>
      </trkpt>
      <trkpt lat="45.60278" lon="5.8304">
        <ele>823.0258789</ele>
        <time>2011-09-04T07:46:47Z</time>
      </trkpt>
      <trkpt lat="45.60291" lon="5.83039">
        <ele>823.9870605</ele>
        <time>2011-09-04T07:46:56Z</time>
      </trkpt>
      <trkpt lat="45.60301" lon="5.83039">
        <ele>825.909668</ele>
        <time>2011-09-04T07:47:04Z</time>
      </trkpt>
      <trkpt lat="45.60312" lon="5.8304">
        <ele>829.2744141</ele>
        <time>2011-09-04T07:47:11Z</time>
      </trkpt>
      <trkpt lat="45.60324" lon="5.8304">
        <ele>828.3132324</ele>
        <time>2011-09-04T07:47:20Z</time>
      </trkpt>
      <trkpt lat="45.60333" lon="5.8304">
        <ele>828.7939453</ele>
        <time>2011-09-04T07:47:27Z</time>
      </trkpt>
      <trkpt lat="45.60342" lon="5.83041">
        <ele>830.7165527</ele>
        <time>2011-09-04T07:47:33Z</time>
      </trkpt>
      <trkpt lat="45.60355" lon="5.83041">
        <ele>832.1584473</ele>
        <time>2011-09-04T07:47:42Z</time>
      </trkpt>
      <trkpt lat="45.60362" lon="5.83041">
        <ele>833.6003418</ele>
        <time>2011-09-04T07:47:47Z</time>
      </trkpt>
      <trkpt lat="45.60374" lon="5.83038">
        <ele>832.6391602</ele>
        <time>2011-09-04T07:47:56Z</time>
      </trkpt>
      <trkpt lat="45.60385" lon="5.83034">
        <ele>831.6777344</ele>
        <time>2011-09-04T07:48:04Z</time>
      </trkpt>
      <trkpt lat="45.60394" lon="5.83027">
        <ele>830.7165527</ele>
        <time>2011-09-04T07:48:12Z</time>
      </trkpt>
      <trkpt lat="45.604" lon="5.8302">
        <ele>830.7165527</ele>
        <time>2011-09-04T07:48:18Z</time>
      </trkpt>
      <trkpt lat="45.60406" lon="5.83011">
        <ele>827.3518066</ele>
        <time>2011-09-04T07:48:25Z</time>
      </trkpt>
      <trkpt lat="45.60411" lon="5.83006">
        <ele>828.7939453</ele>
        <time>2011-09-04T07:48:30Z</time>
      </trkpt>
      <trkpt lat="45.60419" lon="5.83002">
        <ele>833.1196289</ele>
        <time>2011-09-04T07:48:37Z</time>
      </trkpt>
      <trkpt lat="45.60425" lon="5.83004">
        <ele>837.4455566</ele>
        <time>2011-09-04T07:48:41Z</time>
      </trkpt>
      <trkpt lat="45.60435" lon="5.83013">
        <ele>840.8100586</ele>
        <time>2011-09-04T07:48:49Z</time>
      </trkpt>
      <trkpt lat="45.6044" lon="5.83017">
        <ele>836.9648438</ele>
        <time>2011-09-04T07:48:55Z</time>
      </trkpt>
      <trkpt lat="45.6045" lon="5.83021">
        <ele>838.8876953</ele>
        <time>2011-09-04T07:49:03Z</time>
      </trkpt>
      <trkpt lat="45.60455" lon="5.83025">
        <ele>836.9648438</ele>
        <time>2011-09-04T07:49:07Z</time>
      </trkpt>
      <trkpt lat="45.60459" lon="5.83035">
        <ele>838.4069824</ele>
        <time>2011-09-04T07:49:12Z</time>
      </trkpt>
      <trkpt lat="45.60464" lon="5.83044">
        <ele>838.8876953</ele>
        <time>2011-09-04T07:49:19Z</time>
      </trkpt>
      <trkpt lat="45.6047" lon="5.8305">
        <ele>839.848877</ele>
        <time>2011-09-04T07:49:25Z</time>
      </trkpt>
      <trkpt lat="45.60477" lon="5.83056">
        <ele>840.3295898</ele>
        <time>2011-09-04T07:49:32Z</time>
      </trkpt>
      <trkpt lat="45.60488" lon="5.83058">
        <ele>841.7714844</ele>
        <time>2011-09-04T07:49:41Z</time>
      </trkpt>
      <trkpt lat="45.60491" lon="5.83058">
        <ele>842.7329102</ele>
        <time>2011-09-04T07:49:43Z</time>
      </trkpt>
      <trkpt lat="45.60497" lon="5.83057">
        <ele>843.6940918</ele>
        <time>2011-09-04T07:49:48Z</time>
      </trkpt>
      <trkpt lat="45.60508" lon="5.83058">
        <ele>846.0976563</ele>
        <time>2011-09-04T07:49:57Z</time>
      </trkpt>
      <trkpt lat="45.60516" lon="5.83058">
        <ele>848.5007324</ele>
        <time>2011-09-04T07:50:04Z</time>
      </trkpt>
      <trkpt lat="45.60523" lon="5.83058">
        <ele>852.3459473</ele>
        <time>2011-09-04T07:50:10Z</time>
      </trkpt>
      <trkpt lat="45.60532" lon="5.83059">
        <ele>854.2687988</ele>
        <time>2011-09-04T07:50:17Z</time>
      </trkpt>
      <trkpt lat="45.60543" lon="5.83058">
        <ele>854.2687988</ele>
        <time>2011-09-04T07:50:26Z</time>
      </trkpt>
      <trkpt lat="45.60551" lon="5.83057">
        <ele>853.307373</ele>
        <time>2011-09-04T07:50:33Z</time>
      </trkpt>
      <trkpt lat="45.60561" lon="5.83056">
        <ele>854.2687988</ele>
        <time>2011-09-04T07:50:41Z</time>
      </trkpt>
      <trkpt lat="45.60562" lon="5.83056">
        <ele>854.2687988</ele>
        <time>2011-09-04T07:50:42Z</time>
      </trkpt>
      <trkpt lat="45.60572" lon="5.83057">
        <ele>855.2299805</ele>
        <time>2011-09-04T07:50:50Z</time>
      </trkpt>
      <trkpt lat="45.60582" lon="5.83058">
        <ele>857.1525879</ele>
        <time>2011-09-04T07:50:58Z</time>
      </trkpt>
      <trkpt lat="45.60592" lon="5.83059">
        <ele>858.1140137</ele>
        <time>2011-09-04T07:51:05Z</time>
      </trkpt>
      <trkpt lat="45.60603" lon="5.83058">
        <ele>859.0751953</ele>
        <time>2011-09-04T07:51:14Z</time>
      </trkpt>
      <trkpt lat="45.60612" lon="5.83055">
        <ele>860.9980469</ele>
        <time>2011-09-04T07:51:21Z</time>
      </trkpt>
      <trkpt lat="45.60621" lon="5.83052">
        <ele>862.9206543</ele>
        <time>2011-09-04T07:51:29Z</time>
      </trkpt>
      <trkpt lat="45.60629" lon="5.8305">
        <ele>863.8818359</ele>
        <time>2011-09-04T07:51:35Z</time>
      </trkpt>
      <trkpt lat="45.60639" lon="5.83049">
        <ele>865.3239746</ele>
        <time>2011-09-04T07:51:43Z</time>
      </trkpt>
      <trkpt lat="45.60644" lon="5.83048">
        <ele>866.7658691</ele>
        <time>2011-09-04T07:51:47Z</time>
      </trkpt>
      <trkpt lat="45.60648" lon="5.83044">
        <ele>865.8046875</ele>
        <time>2011-09-04T07:51:52Z</time>
      </trkpt>
      <trkpt lat="45.60653" lon="5.83045">
        <ele>866.2851563</ele>
        <time>2011-09-04T07:51:58Z</time>
      </trkpt>
      <trkpt lat="45.60652" lon="5.83044">
        <ele>867.246582</ele>
        <time>2011-09-04T07:52:03Z</time>
      </trkpt>
      <trkpt lat="45.6065" lon="5.83037">
        <ele>866.7658691</ele>
        <time>2011-09-04T07:52:09Z</time>
      </trkpt>
      <trkpt lat="45.60649" lon="5.83035">
        <ele>866.2851563</ele>
        <time>2011-09-04T07:52:13Z</time>
      </trkpt>
      <trkpt lat="45.60651" lon="5.83041">
        <ele>866.2851563</ele>
        <time>2011-09-04T07:52:18Z</time>
      </trkpt>
      <trkpt lat="45.60656" lon="5.83046">
        <ele>865.3239746</ele>
        <time>2011-09-04T07:52:23Z</time>
      </trkpt>
      <trkpt lat="45.60661" lon="5.83056">
        <ele>864.3625488</ele>
        <time>2011-09-04T07:52:29Z</time>
      </trkpt>
      <trkpt lat="45.60665" lon="5.8306">
        <ele>862.4399414</ele>
        <time>2011-09-04T07:52:34Z</time>
      </trkpt>
      <trkpt lat="45.60669" lon="5.83064">
        <ele>859.5559082</ele>
        <time>2011-09-04T07:52:37Z</time>
      </trkpt>
      <trkpt lat="45.60672" lon="5.83066">
        <ele>855.7106934</ele>
        <time>2011-09-04T07:52:41Z</time>
      </trkpt>
      <trkpt lat="45.60672" lon="5.8307">
        <ele>855.7106934</ele>
        <time>2011-09-04T07:52:52Z</time>
      </trkpt>
      <trkpt lat="45.60671" lon="5.83073">
        <ele>858.5944824</ele>
        <time>2011-09-04T07:52:58Z</time>
      </trkpt>
      <trkpt lat="45.60669" lon="5.83075">
        <ele>861.4787598</ele>
        <time>2011-09-04T07:53:04Z</time>
      </trkpt>
      <trkpt lat="45.60668" lon="5.83074">
        <ele>859.5559082</ele>
        <time>2011-09-04T07:53:11Z</time>
      </trkpt>
      <trkpt lat="45.60666" lon="5.83073">
        <ele>856.1911621</ele>
        <time>2011-09-04T07:53:17Z</time>
      </trkpt>
      <trkpt lat="45.60663" lon="5.83075">
        <ele>854.7492676</ele>
        <time>2011-09-04T07:53:25Z</time>
      </trkpt>
      <trkpt lat="45.6066" lon="5.83074">
        <ele>850.9040527</ele>
        <time>2011-09-04T07:53:30Z</time>
      </trkpt>
      <trkpt lat="45.60656" lon="5.83074">
        <ele>848.9814453</ele>
        <time>2011-09-04T07:53:34Z</time>
      </trkpt>
      <trkpt lat="45.60653" lon="5.83074">
        <ele>849.4621582</ele>
        <time>2011-09-04T07:53:39Z</time>
      </trkpt>
      <trkpt lat="45.60653" lon="5.83082">
        <ele>854.7492676</ele>
        <time>2011-09-04T07:53:47Z</time>
      </trkpt>
      <trkpt lat="45.60653" lon="5.83083">
        <ele>854.2687988</ele>
        <time>2011-09-04T07:53:50Z</time>
      </trkpt>
      <trkpt lat="45.60659" lon="5.83092">
        <ele>854.7492676</ele>
        <time>2011-09-04T07:53:55Z</time>
      </trkpt>
      <trkpt lat="45.6066" lon="5.83093">
        <ele>854.2687988</ele>
        <time>2011-09-04T07:53:56Z</time>
      </trkpt>
      <trkpt lat="45.60665" lon="5.83098">
        <ele>853.307373</ele>
        <time>2011-09-04T07:53:59Z</time>
      </trkpt>
      <trkpt lat="45.60672" lon="5.83106">
        <ele>852.3459473</ele>
        <time>2011-09-04T07:54:03Z</time>
      </trkpt>
      <trkpt lat="45.60687" lon="5.8312">
        <ele>853.7880859</ele>
        <time>2011-09-04T07:54:09Z</time>
      </trkpt>
      <trkpt lat="45.60702" lon="5.83129">
        <ele>855.2299805</ele>
        <time>2011-09-04T07:54:14Z</time>
      </trkpt>
      <trkpt lat="45.60721" lon="5.83141">
        <ele>855.2299805</ele>
        <time>2011-09-04T07:54:20Z</time>
      </trkpt>
      <trkpt lat="45.60735" lon="5.83152">
        <ele>852.3459473</ele>
        <time>2011-09-04T07:54:25Z</time>
      </trkpt>
      <trkpt lat="45.60742" lon="5.83156">
        <ele>849.9428711</ele>
        <time>2011-09-04T07:54:29Z</time>
      </trkpt>
      <trkpt lat="45.60743" lon="5.83155">
        <ele>848.0202637</ele>
        <time>2011-09-04T07:54:31Z</time>
      </trkpt>
      <trkpt lat="45.60746" lon="5.8316">
        <ele>843.2133789</ele>
        <time>2011-09-04T07:54:39Z</time>
      </trkpt>
      <trkpt lat="45.60749" lon="5.8316">
        <ele>840.3295898</ele>
        <time>2011-09-04T07:54:46Z</time>
      </trkpt>
      <trkpt lat="45.6075" lon="5.8316">
        <ele>838.8876953</ele>
        <time>2011-09-04T07:54:50Z</time>
      </trkpt>
      <trkpt lat="45.60761" lon="5.83165">
        <ele>832.6391602</ele>
        <time>2011-09-04T07:54:57Z</time>
      </trkpt>
      <trkpt lat="45.60763" lon="5.83166">
        <ele>831.6777344</ele>
        <time>2011-09-04T07:54:58Z</time>
      </trkpt>
      <trkpt lat="45.60768" lon="5.83167">
        <ele>827.8322754</ele>
        <time>2011-09-04T07:55:01Z</time>
      </trkpt>
      <trkpt lat="45.60778" lon="5.83172">
        <ele>821.5837402</ele>
        <time>2011-09-04T07:55:06Z</time>
      </trkpt>
      <trkpt lat="45.6079" lon="5.83185">
        <ele>819.661377</ele>
        <time>2011-09-04T07:55:11Z</time>
      </trkpt>
      <trkpt lat="45.60804" lon="5.83197">
        <ele>818.2192383</ele>
        <time>2011-09-04T07:55:16Z</time>
      </trkpt>
      <trkpt lat="45.60821" lon="5.8321">
        <ele>818.6999512</ele>
        <time>2011-09-04T07:55:22Z</time>
      </trkpt>
      <trkpt lat="45.60832" lon="5.83221">
        <ele>817.7385254</ele>
        <time>2011-09-04T07:55:26Z</time>
      </trkpt>
      <trkpt lat="45.60848" lon="5.83235">
        <ele>812.451416</ele>
        <time>2011-09-04T07:55:32Z</time>
      </trkpt>
      <trkpt lat="45.6085" lon="5.83236">
        <ele>812.451416</ele>
        <time>2011-09-04T07:55:33Z</time>
      </trkpt>
      <trkpt lat="45.60852" lon="5.83236">
        <ele>810.5285645</ele>
        <time>2011-09-04T07:55:36Z</time>
      </trkpt>
      <trkpt lat="45.60853" lon="5.83234">
        <ele>810.5285645</ele>
        <time>2011-09-04T07:55:42Z</time>
      </trkpt>
      <trkpt lat="45.60854" lon="5.83239">
        <ele>817.7385254</ele>
        <time>2011-09-04T07:55:50Z</time>
      </trkpt>
      <trkpt lat="45.60861" lon="5.83248">
        <ele>817.2580566</ele>
        <time>2011-09-04T07:55:55Z</time>
      </trkpt>
      <trkpt lat="45.60863" lon="5.83249">
        <ele>816.7773438</ele>
        <time>2011-09-04T07:55:57Z</time>
      </trkpt>
      <trkpt lat="45.6087" lon="5.83256">
        <ele>814.8547363</ele>
        <time>2011-09-04T07:56:03Z</time>
      </trkpt>
      <trkpt lat="45.60878" lon="5.83268">
        <ele>812.9321289</ele>
        <time>2011-09-04T07:56:08Z</time>
      </trkpt>
      <trkpt lat="45.60884" lon="5.83272">
        <ele>810.5285645</ele>
        <time>2011-09-04T07:56:12Z</time>
      </trkpt>
      <trkpt lat="45.60885" lon="5.83274">
        <ele>811.4899902</ele>
        <time>2011-09-04T07:56:14Z</time>
      </trkpt>
      <trkpt lat="45.60888" lon="5.83279">
        <ele>810.0478516</ele>
        <time>2011-09-04T07:56:18Z</time>
      </trkpt>
      <trkpt lat="45.60894" lon="5.83286">
        <ele>807.1640625</ele>
        <time>2011-09-04T07:56:22Z</time>
      </trkpt>
      <trkpt lat="45.60902" lon="5.83293">
        <ele>804.7607422</ele>
        <time>2011-09-04T07:56:27Z</time>
      </trkpt>
      <trkpt lat="45.60907" lon="5.83294">
        <ele>801.3962402</ele>
        <time>2011-09-04T07:56:31Z</time>
      </trkpt>
      <trkpt lat="45.60916" lon="5.833">
        <ele>799.4736328</ele>
        <time>2011-09-04T07:56:36Z</time>
      </trkpt>
      <trkpt lat="45.60929" lon="5.83305">
        <ele>796.1091309</ele>
        <time>2011-09-04T07:56:42Z</time>
      </trkpt>
      <trkpt lat="45.60938" lon="5.83309">
        <ele>794.666748</ele>
        <time>2011-09-04T07:56:47Z</time>
      </trkpt>
      <trkpt lat="45.60943" lon="5.8331">
        <ele>793.2248535</ele>
        <time>2011-09-04T07:56:51Z</time>
      </trkpt>
      <trkpt lat="45.6095" lon="5.83312">
        <ele>790.3410645</ele>
        <time>2011-09-04T07:56:58Z</time>
      </trkpt>
      <trkpt lat="45.60953" lon="5.83313">
        <ele>787.4570313</ele>
        <time>2011-09-04T07:57:01Z</time>
      </trkpt>
      <trkpt lat="45.60958" lon="5.83314">
        <ele>786.4958496</ele>
        <time>2011-09-04T07:57:07Z</time>
      </trkpt>
      <trkpt lat="45.60959" lon="5.83314">
        <ele>786.0151367</ele>
        <time>2011-09-04T07:57:08Z</time>
      </trkpt>
      <trkpt lat="45.60969" lon="5.83317">
        <ele>783.6118164</ele>
        <time>2011-09-04T07:57:14Z</time>
      </trkpt>
      <trkpt lat="45.6097" lon="5.83317">
        <ele>782.6506348</ele>
        <time>2011-09-04T07:57:15Z</time>
      </trkpt>
      <trkpt lat="45.60979" lon="5.83322">
        <ele>783.1311035</ele>
        <time>2011-09-04T07:57:21Z</time>
      </trkpt>
      <trkpt lat="45.60983" lon="5.83324">
        <ele>780.7280273</ele>
        <time>2011-09-04T07:57:26Z</time>
      </trkpt>
      <trkpt lat="45.60988" lon="5.83324">
        <ele>778.3244629</ele>
        <time>2011-09-04T07:57:33Z</time>
      </trkpt>
      <trkpt lat="45.60994" lon="5.83327">
        <ele>776.8825684</ele>
        <time>2011-09-04T07:57:36Z</time>
      </trkpt>
      <trkpt lat="45.61005" lon="5.83328">
        <ele>775.4404297</ele>
        <time>2011-09-04T07:57:41Z</time>
      </trkpt>
      <trkpt lat="45.61013" lon="5.8333">
        <ele>771.1147461</ele>
        <time>2011-09-04T07:57:46Z</time>
      </trkpt>
      <trkpt lat="45.61018" lon="5.83329">
        <ele>768.7114258</ele>
        <time>2011-09-04T07:57:49Z</time>
      </trkpt>
      <trkpt lat="45.61024" lon="5.83329">
        <ele>766.3081055</ele>
        <time>2011-09-04T07:57:54Z</time>
      </trkpt>
      <trkpt lat="45.61027" lon="5.8333">
        <ele>764.8662109</ele>
        <time>2011-09-04T07:57:59Z</time>
      </trkpt>
      <trkpt lat="45.61034" lon="5.83334">
        <ele>763.4240723</ele>
        <time>2011-09-04T07:58:12Z</time>
      </trkpt>
      <trkpt lat="45.61036" lon="5.83335">
        <ele>764.385498</ele>
        <time>2011-09-04T07:58:20Z</time>
      </trkpt>
      <trkpt lat="45.6104" lon="5.83335">
        <ele>761.9821777</ele>
        <time>2011-09-04T07:58:25Z</time>
      </trkpt>
      <trkpt lat="45.6105" lon="5.83334">
        <ele>760.0593262</ele>
        <time>2011-09-04T07:58:30Z</time>
      </trkpt>
      <trkpt lat="45.61056" lon="5.83336">
        <ele>759.0981445</ele>
        <time>2011-09-04T07:58:34Z</time>
      </trkpt>
      <trkpt lat="45.61064" lon="5.83338">
        <ele>757.1755371</ele>
        <time>2011-09-04T07:58:39Z</time>
      </trkpt>
      <trkpt lat="45.61067" lon="5.83338">
        <ele>755.7336426</ele>
        <time>2011-09-04T07:58:42Z</time>
      </trkpt>
      <trkpt lat="45.61071" lon="5.83338">
        <ele>753.3303223</ele>
        <time>2011-09-04T07:58:45Z</time>
      </trkpt>
      <trkpt lat="45.61081" lon="5.83335">
        <ele>749.9658203</ele>
        <time>2011-09-04T07:58:51Z</time>
      </trkpt>
      <trkpt lat="45.61083" lon="5.83335">
        <ele>749.9658203</ele>
        <time>2011-09-04T07:58:53Z</time>
      </trkpt>
      <trkpt lat="45.61095" lon="5.83334">
        <ele>753.3303223</ele>
        <time>2011-09-04T07:58:59Z</time>
      </trkpt>
      <trkpt lat="45.61097" lon="5.83335">
        <ele>755.2529297</ele>
        <time>2011-09-04T07:59:01Z</time>
      </trkpt>
      <trkpt lat="45.61104" lon="5.83332">
        <ele>753.8110352</ele>
        <time>2011-09-04T07:59:07Z</time>
      </trkpt>
      <trkpt lat="45.61107" lon="5.83331">
        <ele>753.3303223</ele>
        <time>2011-09-04T07:59:10Z</time>
      </trkpt>
      <trkpt lat="45.61107" lon="5.83336">
        <ele>752.8496094</ele>
        <time>2011-09-04T07:59:16Z</time>
      </trkpt>
      <trkpt lat="45.61107" lon="5.83338">
        <ele>753.8110352</ele>
        <time>2011-09-04T07:59:17Z</time>
      </trkpt>
      <trkpt lat="45.61099" lon="5.83355">
        <ele>751.4077148</ele>
        <time>2011-09-04T07:59:21Z</time>
      </trkpt>
      <trkpt lat="45.6109" lon="5.83375">
        <ele>745.6396484</ele>
        <time>2011-09-04T07:59:26Z</time>
      </trkpt>
      <trkpt lat="45.6108" lon="5.8339">
        <ele>738.9106445</ele>
        <time>2011-09-04T07:59:31Z</time>
      </trkpt>
      <trkpt lat="45.61071" lon="5.83399">
        <ele>734.1040039</ele>
        <time>2011-09-04T07:59:35Z</time>
      </trkpt>
      <trkpt lat="45.61074" lon="5.83404">
        <ele>731.2199707</ele>
        <time>2011-09-04T07:59:39Z</time>
      </trkpt>
      <trkpt lat="45.6109" lon="5.834">
        <ele>728.3359375</ele>
        <time>2011-09-04T07:59:45Z</time>
      </trkpt>
      <trkpt lat="45.61102" lon="5.83389">
        <ele>728.3359375</ele>
        <time>2011-09-04T07:59:50Z</time>
      </trkpt>
      <trkpt lat="45.61119" lon="5.83384">
        <ele>728.3359375</ele>
        <time>2011-09-04T07:59:56Z</time>
      </trkpt>
      <trkpt lat="45.61136" lon="5.83388">
        <ele>727.3747559</ele>
        <time>2011-09-04T08:00:01Z</time>
      </trkpt>
      <trkpt lat="45.6115" lon="5.83396">
        <ele>727.3747559</ele>
        <time>2011-09-04T08:00:05Z</time>
      </trkpt>
      <trkpt lat="45.6116" lon="5.83404">
        <ele>721.6066895</ele>
        <time>2011-09-04T08:00:09Z</time>
      </trkpt>
      <trkpt lat="45.61173" lon="5.83412">
        <ele>716.800293</ele>
        <time>2011-09-04T08:00:13Z</time>
      </trkpt>
      <trkpt lat="45.6119" lon="5.83416">
        <ele>708.1484375</ele>
        <time>2011-09-04T08:00:18Z</time>
      </trkpt>
      <trkpt lat="45.61206" lon="5.83422">
        <ele>701.8999023</ele>
        <time>2011-09-04T08:00:23Z</time>
      </trkpt>
      <trkpt lat="45.6122" lon="5.83441">
        <ele>697.5737305</ele>
        <time>2011-09-04T08:00:28Z</time>
      </trkpt>
      <trkpt lat="45.61228" lon="5.8345">
        <ele>695.651123</ele>
        <time>2011-09-04T08:00:30Z</time>
      </trkpt>
      <trkpt lat="45.61242" lon="5.83461">
        <ele>692.2866211</ele>
        <time>2011-09-04T08:00:33Z</time>
      </trkpt>
      <trkpt lat="45.61255" lon="5.83477">
        <ele>689.8833008</ele>
        <time>2011-09-04T08:00:36Z</time>
      </trkpt>
      <trkpt lat="45.61276" lon="5.83493">
        <ele>685.557373</ele>
        <time>2011-09-04T08:00:41Z</time>
      </trkpt>
      <trkpt lat="45.61285" lon="5.83498">
        <ele>685.0769043</ele>
        <time>2011-09-04T08:00:43Z</time>
      </trkpt>
      <trkpt lat="45.6129" lon="5.835">
        <ele>683.6345215</ele>
        <time>2011-09-04T08:00:45Z</time>
      </trkpt>
      <trkpt lat="45.61303" lon="5.83514">
        <ele>683.1538086</ele>
        <time>2011-09-04T08:00:52Z</time>
      </trkpt>
      <trkpt lat="45.6131" lon="5.8352">
        <ele>681.7119141</ele>
        <time>2011-09-04T08:00:57Z</time>
      </trkpt>
      <trkpt lat="45.61317" lon="5.83522">
        <ele>677.8666992</ele>
        <time>2011-09-04T08:01:03Z</time>
      </trkpt>
      <trkpt lat="45.61334" lon="5.8353">
        <ele>674.5021973</ele>
        <time>2011-09-04T08:01:08Z</time>
      </trkpt>
      <trkpt lat="45.61359" lon="5.83531">
        <ele>674.9829102</ele>
        <time>2011-09-04T08:01:12Z</time>
      </trkpt>
      <trkpt lat="45.6137" lon="5.83533">
        <ele>676.4248047</ele>
        <time>2011-09-04T08:01:14Z</time>
      </trkpt>
      <trkpt lat="45.61385" lon="5.83539">
        <ele>677.3862305</ele>
        <time>2011-09-04T08:01:18Z</time>
      </trkpt>
      <trkpt lat="45.61392" lon="5.83544">
        <ele>679.7893066</ele>
        <time>2011-09-04T08:01:20Z</time>
      </trkpt>
      <trkpt lat="45.61404" lon="5.83548">
        <ele>679.3085938</ele>
        <time>2011-09-04T08:01:23Z</time>
      </trkpt>
      <trkpt lat="45.6142" lon="5.83558">
        <ele>682.6733398</ele>
        <time>2011-09-04T08:01:28Z</time>
      </trkpt>
      <trkpt lat="45.61433" lon="5.83561">
        <ele>677.3862305</ele>
        <time>2011-09-04T08:01:32Z</time>
      </trkpt>
      <trkpt lat="45.61448" lon="5.83562">
        <ele>672.098877</ele>
        <time>2011-09-04T08:01:37Z</time>
      </trkpt>
      <trkpt lat="45.61453" lon="5.83562">
        <ele>670.1762695</ele>
        <time>2011-09-04T08:01:40Z</time>
      </trkpt>
      <trkpt lat="45.61463" lon="5.83567">
        <ele>667.2922363</ele>
        <time>2011-09-04T08:01:45Z</time>
      </trkpt>
      <trkpt lat="45.61473" lon="5.83575">
        <ele>660.5629883</ele>
        <time>2011-09-04T08:01:50Z</time>
      </trkpt>
      <trkpt lat="45.61474" lon="5.83587">
        <ele>654.3146973</ele>
        <time>2011-09-04T08:01:55Z</time>
      </trkpt>
      <trkpt lat="45.61478" lon="5.83602">
        <ele>648.5463867</ele>
        <time>2011-09-04T08:02:00Z</time>
      </trkpt>
      <trkpt lat="45.61485" lon="5.83614">
        <ele>643.7399902</ele>
        <time>2011-09-04T08:02:05Z</time>
      </trkpt>
      <trkpt lat="45.61487" lon="5.8362">
        <ele>644.2207031</ele>
        <time>2011-09-04T08:02:07Z</time>
      </trkpt>
      <trkpt lat="45.61493" lon="5.83626">
        <ele>638.4528809</ele>
        <time>2011-09-04T08:02:11Z</time>
      </trkpt>
      <trkpt lat="45.61505" lon="5.83633">
        <ele>631.2429199</ele>
        <time>2011-09-04T08:02:16Z</time>
      </trkpt>
      <trkpt lat="45.61513" lon="5.83642">
        <ele>627.3977051</ele>
        <time>2011-09-04T08:02:20Z</time>
      </trkpt>
      <trkpt lat="45.61528" lon="5.83657">
        <ele>622.5910645</ele>
        <time>2011-09-04T08:02:26Z</time>
      </trkpt>
      <trkpt lat="45.61542" lon="5.83666">
        <ele>618.2648926</ele>
        <time>2011-09-04T08:02:31Z</time>
      </trkpt>
      <trkpt lat="45.61553" lon="5.83665">
        <ele>619.2263184</ele>
        <time>2011-09-04T08:02:35Z</time>
      </trkpt>
      <trkpt lat="45.61567" lon="5.8366">
        <ele>622.5910645</ele>
        <time>2011-09-04T08:02:42Z</time>
      </trkpt>
      <trkpt lat="45.61579" lon="5.83657">
        <ele>625.4748535</ele>
        <time>2011-09-04T08:02:48Z</time>
      </trkpt>
      <trkpt lat="45.61593" lon="5.83653">
        <ele>625.9555664</ele>
        <time>2011-09-04T08:02:55Z</time>
      </trkpt>
      <trkpt lat="45.6161" lon="5.83652">
        <ele>628.8395996</ele>
        <time>2011-09-04T08:03:04Z</time>
      </trkpt>
      <trkpt lat="45.6162" lon="5.83652">
        <ele>630.2814941</ele>
        <time>2011-09-04T08:03:10Z</time>
      </trkpt>
      <trkpt lat="45.61631" lon="5.83648">
        <ele>631.7233887</ele>
        <time>2011-09-04T08:03:16Z</time>
      </trkpt>
      <trkpt lat="45.61641" lon="5.83636">
        <ele>630.2814941</ele>
        <time>2011-09-04T08:03:23Z</time>
      </trkpt>
      <trkpt lat="45.61653" lon="5.83631">
        <ele>631.2429199</ele>
        <time>2011-09-04T08:03:29Z</time>
      </trkpt>
      <trkpt lat="45.61665" lon="5.83628">
        <ele>634.126709</ele>
        <time>2011-09-04T08:03:36Z</time>
      </trkpt>
      <trkpt lat="45.61672" lon="5.83627">
        <ele>633.6459961</ele>
        <time>2011-09-04T08:03:41Z</time>
      </trkpt>
      <trkpt lat="45.6168" lon="5.83629">
        <ele>637.0107422</ele>
        <time>2011-09-04T08:03:47Z</time>
      </trkpt>
      <trkpt lat="45.61684" lon="5.83629">
        <ele>637.4914551</ele>
        <time>2011-09-04T08:03:50Z</time>
      </trkpt>
      <trkpt lat="45.61696" lon="5.83629">
        <ele>640.855957</ele>
        <time>2011-09-04T08:03:57Z</time>
      </trkpt>
      <trkpt lat="45.61705" lon="5.83629">
        <ele>642.7788086</ele>
        <time>2011-09-04T08:04:03Z</time>
      </trkpt>
      <trkpt lat="45.61716" lon="5.83633">
        <ele>649.0270996</ele>
        <time>2011-09-04T08:04:10Z</time>
      </trkpt>
      <trkpt lat="45.61728" lon="5.83639">
        <ele>660.0822754</ele>
        <time>2011-09-04T08:04:18Z</time>
      </trkpt>
      <trkpt lat="45.61738" lon="5.83638">
        <ele>660.5629883</ele>
        <time>2011-09-04T08:04:25Z</time>
      </trkpt>
      <trkpt lat="45.61747" lon="5.83639">
        <ele>663.9274902</ele>
        <time>2011-09-04T08:04:31Z</time>
      </trkpt>
      <trkpt lat="45.61757" lon="5.83642">
        <ele>665.8503418</ele>
        <time>2011-09-04T08:04:38Z</time>
      </trkpt>
      <trkpt lat="45.61762" lon="5.8364">
        <ele>663.4470215</ele>
        <time>2011-09-04T08:04:41Z</time>
      </trkpt>
      <trkpt lat="45.6177" lon="5.83642">
        <ele>659.1210938</ele>
        <time>2011-09-04T08:04:47Z</time>
      </trkpt>
      <trkpt lat="45.61779" lon="5.83647">
        <ele>653.3532715</ele>
        <time>2011-09-04T08:04:54Z</time>
      </trkpt>
      <trkpt lat="45.61794" lon="5.83645">
        <ele>654.795166</ele>
        <time>2011-09-04T08:05:03Z</time>
      </trkpt>
      <trkpt lat="45.61801" lon="5.83641">
        <ele>657.1984863</ele>
        <time>2011-09-04T08:05:09Z</time>
      </trkpt>
      <trkpt lat="45.61807" lon="5.83636">
        <ele>658.6403809</ele>
        <time>2011-09-04T08:05:14Z</time>
      </trkpt>
      <trkpt lat="45.61816" lon="5.83633">
        <ele>659.1210938</ele>
        <time>2011-09-04T08:05:20Z</time>
      </trkpt>
      <trkpt lat="45.61821" lon="5.83629">
        <ele>657.6791992</ele>
        <time>2011-09-04T08:05:24Z</time>
      </trkpt>
      <trkpt lat="45.61828" lon="5.83629">
        <ele>656.2370605</ele>
        <time>2011-09-04T08:05:29Z</time>
      </trkpt>
      <trkpt lat="45.61842" lon="5.83626">
        <ele>652.3918457</ele>
        <time>2011-09-04T08:05:33Z</time>
      </trkpt>
      <trkpt lat="45.61858" lon="5.83631">
        <ele>651.4304199</ele>
        <time>2011-09-04T08:05:36Z</time>
      </trkpt>
      <trkpt lat="45.61873" lon="5.83633">
        <ele>647.1044922</ele>
        <time>2011-09-04T08:05:40Z</time>
      </trkpt>
      <trkpt lat="45.61883" lon="5.8363">
        <ele>647.1044922</ele>
        <time>2011-09-04T08:05:42Z</time>
      </trkpt>
      <trkpt lat="45.61903" lon="5.83631">
        <ele>644.2207031</ele>
        <time>2011-09-04T08:05:46Z</time>
      </trkpt>
      <trkpt lat="45.61922" lon="5.8364">
        <ele>639.4140625</ele>
        <time>2011-09-04T08:05:50Z</time>
      </trkpt>
      <trkpt lat="45.61933" lon="5.83639">
        <ele>637.0107422</ele>
        <time>2011-09-04T08:05:52Z</time>
      </trkpt>
      <trkpt lat="45.6196" lon="5.83638">
        <ele>633.6459961</ele>
        <time>2011-09-04T08:05:57Z</time>
      </trkpt>
      <trkpt lat="45.61985" lon="5.83644">
        <ele>630.762207</ele>
        <time>2011-09-04T08:06:02Z</time>
      </trkpt>
      <trkpt lat="45.61999" lon="5.83646">
        <ele>627.8781738</ele>
        <time>2011-09-04T08:06:05Z</time>
      </trkpt>
      <trkpt lat="45.62029" lon="5.8365">
        <ele>622.1103516</ele>
        <time>2011-09-04T08:06:11Z</time>
      </trkpt>
      <trkpt lat="45.62039" lon="5.83651">
        <ele>621.1491699</ele>
        <time>2011-09-04T08:06:13Z</time>
      </trkpt>
      <trkpt lat="45.62056" lon="5.83654">
        <ele>619.7070313</ele>
        <time>2011-09-04T08:06:17Z</time>
      </trkpt>
      <trkpt lat="45.62088" lon="5.83658">
        <ele>623.5524902</ele>
        <time>2011-09-04T08:06:23Z</time>
      </trkpt>
      <trkpt lat="45.62097" lon="5.83661">
        <ele>624.032959</ele>
        <time>2011-09-04T08:06:25Z</time>
      </trkpt>
      <trkpt lat="45.62105" lon="5.83665">
        <ele>624.032959</ele>
        <time>2011-09-04T08:06:27Z</time>
      </trkpt>
      <trkpt lat="45.62119" lon="5.83673">
        <ele>624.5136719</ele>
        <time>2011-09-04T08:06:31Z</time>
      </trkpt>
      <trkpt lat="45.62128" lon="5.83679">
        <ele>623.5524902</ele>
        <time>2011-09-04T08:06:33Z</time>
      </trkpt>
      <trkpt lat="45.62137" lon="5.83686">
        <ele>623.5524902</ele>
        <time>2011-09-04T08:06:35Z</time>
      </trkpt>
      <trkpt lat="45.62145" lon="5.83692">
        <ele>622.5910645</ele>
        <time>2011-09-04T08:06:37Z</time>
      </trkpt>
      <trkpt lat="45.62165" lon="5.83701">
        <ele>621.1491699</ele>
        <time>2011-09-04T08:06:42Z</time>
      </trkpt>
      <trkpt lat="45.62184" lon="5.83692">
        <ele>618.7456055</ele>
        <time>2011-09-04T08:06:46Z</time>
      </trkpt>
      <trkpt lat="45.62207" lon="5.83693">
        <ele>615.3811035</ele>
        <time>2011-09-04T08:06:51Z</time>
      </trkpt>
      <trkpt lat="45.62212" lon="5.83693">
        <ele>615.3811035</ele>
        <time>2011-09-04T08:06:52Z</time>
      </trkpt>
      <trkpt lat="45.62224" lon="5.8369">
        <ele>613.4584961</ele>
        <time>2011-09-04T08:06:55Z</time>
      </trkpt>
      <trkpt lat="45.62241" lon="5.83683">
        <ele>617.7841797</ele>
        <time>2011-09-04T08:07:01Z</time>
      </trkpt>
      <trkpt lat="45.62257" lon="5.83686">
        <ele>621.6296387</ele>
        <time>2011-09-04T08:07:08Z</time>
      </trkpt>
      <trkpt lat="45.62267" lon="5.83689">
        <ele>624.9943848</ele>
        <time>2011-09-04T08:07:13Z</time>
      </trkpt>
      <trkpt lat="45.62283" lon="5.83692">
        <ele>627.3977051</ele>
        <time>2011-09-04T08:07:22Z</time>
      </trkpt>
      <trkpt lat="45.62295" lon="5.83696">
        <ele>621.1491699</ele>
        <time>2011-09-04T08:07:29Z</time>
      </trkpt>
      <trkpt lat="45.62309" lon="5.837">
        <ele>618.2648926</ele>
        <time>2011-09-04T08:07:37Z</time>
      </trkpt>
      <trkpt lat="45.62319" lon="5.83699">
        <ele>616.3422852</ele>
        <time>2011-09-04T08:07:43Z</time>
      </trkpt>
      <trkpt lat="45.62328" lon="5.83695">
        <ele>616.3422852</ele>
        <time>2011-09-04T08:07:49Z</time>
      </trkpt>
      <trkpt lat="45.62336" lon="5.8368">
        <ele>614.4196777</ele>
        <time>2011-09-04T08:07:57Z</time>
      </trkpt>
      <trkpt lat="45.62339" lon="5.83675">
        <ele>615.8618164</ele>
        <time>2011-09-04T08:08:01Z</time>
      </trkpt>
      <trkpt lat="45.62342" lon="5.83665">
        <ele>615.3811035</ele>
        <time>2011-09-04T08:08:06Z</time>
      </trkpt>
      <trkpt lat="45.62348" lon="5.8365">
        <ele>614.9003906</ele>
        <time>2011-09-04T08:08:14Z</time>
      </trkpt>
      <trkpt lat="45.62353" lon="5.83641">
        <ele>619.2263184</ele>
        <time>2011-09-04T08:08:20Z</time>
      </trkpt>
      <trkpt lat="45.62357" lon="5.83641">
        <ele>625.9555664</ele>
        <time>2011-09-04T08:08:24Z</time>
      </trkpt>
      <trkpt lat="45.62371" lon="5.83639">
        <ele>636.5302734</ele>
        <time>2011-09-04T08:08:33Z</time>
      </trkpt>
      <trkpt lat="45.62383" lon="5.83628">
        <ele>627.3977051</ele>
        <time>2011-09-04T08:08:42Z</time>
      </trkpt>
      <trkpt lat="45.62392" lon="5.83623">
        <ele>622.5910645</ele>
        <time>2011-09-04T08:08:49Z</time>
      </trkpt>
      <trkpt lat="45.62397" lon="5.8362">
        <ele>621.6296387</ele>
        <time>2011-09-04T08:08:52Z</time>
      </trkpt>
      <trkpt lat="45.62407" lon="5.83613">
        <ele>620.668457</ele>
        <time>2011-09-04T08:09:00Z</time>
      </trkpt>
      <trkpt lat="45.62418" lon="5.83609">
        <ele>621.6296387</ele>
        <time>2011-09-04T08:09:08Z</time>
      </trkpt>
      <trkpt lat="45.62428" lon="5.83605">
        <ele>623.5524902</ele>
        <time>2011-09-04T08:09:15Z</time>
      </trkpt>
      <trkpt lat="45.6244" lon="5.83603">
        <ele>624.5136719</ele>
        <time>2011-09-04T08:09:24Z</time>
      </trkpt>
      <trkpt lat="45.6245" lon="5.83602">
        <ele>627.8781738</ele>
        <time>2011-09-04T08:09:31Z</time>
      </trkpt>
      <trkpt lat="45.62456" lon="5.83603">
        <ele>631.2429199</ele>
        <time>2011-09-04T08:09:35Z</time>
      </trkpt>
      <trkpt lat="45.62462" lon="5.83606">
        <ele>635.5686035</ele>
        <time>2011-09-04T08:09:40Z</time>
      </trkpt>
      <trkpt lat="45.62472" lon="5.8361">
        <ele>632.6848145</ele>
        <time>2011-09-04T08:09:47Z</time>
      </trkpt>
      <trkpt lat="45.6248" lon="5.83619">
        <ele>628.3588867</ele>
        <time>2011-09-04T08:09:54Z</time>
      </trkpt>
      <trkpt lat="45.6249" lon="5.83626">
        <ele>625.9555664</ele>
        <time>2011-09-04T08:10:01Z</time>
      </trkpt>
      <trkpt lat="45.62501" lon="5.83628">
        <ele>622.5910645</ele>
        <time>2011-09-04T08:10:08Z</time>
      </trkpt>
      <trkpt lat="45.62511" lon="5.8362">
        <ele>622.1103516</ele>
        <time>2011-09-04T08:10:15Z</time>
      </trkpt>
      <trkpt lat="45.62519" lon="5.83612">
        <ele>624.9943848</ele>
        <time>2011-09-04T08:10:21Z</time>
      </trkpt>
      <trkpt lat="45.62528" lon="5.83605">
        <ele>636.5302734</ele>
        <time>2011-09-04T08:10:29Z</time>
      </trkpt>
      <trkpt lat="45.62537" lon="5.836">
        <ele>637.972168</ele>
        <time>2011-09-04T08:10:35Z</time>
      </trkpt>
      <trkpt lat="45.62545" lon="5.836">
        <ele>638.9335938</ele>
        <time>2011-09-04T08:10:40Z</time>
      </trkpt>
      <trkpt lat="45.62554" lon="5.83606">
        <ele>639.4140625</ele>
        <time>2011-09-04T08:10:46Z</time>
      </trkpt>
      <trkpt lat="45.62563" lon="5.83614">
        <ele>638.4528809</ele>
        <time>2011-09-04T08:10:53Z</time>
      </trkpt>
      <trkpt lat="45.62571" lon="5.8362">
        <ele>637.0107422</ele>
        <time>2011-09-04T08:11:00Z</time>
      </trkpt>
      <trkpt lat="45.62573" lon="5.83621">
        <ele>637.4914551</ele>
        <time>2011-09-04T08:11:01Z</time>
      </trkpt>
      <trkpt lat="45.62579" lon="5.83619">
        <ele>636.5302734</ele>
        <time>2011-09-04T08:11:05Z</time>
      </trkpt>
      <trkpt lat="45.62583" lon="5.83611">
        <ele>636.0495605</ele>
        <time>2011-09-04T08:11:09Z</time>
      </trkpt>
      <trkpt lat="45.62586" lon="5.83597">
        <ele>637.0107422</ele>
        <time>2011-09-04T08:11:16Z</time>
      </trkpt>
      <trkpt lat="45.62591" lon="5.83585">
        <ele>634.126709</ele>
        <time>2011-09-04T08:11:22Z</time>
      </trkpt>
      <trkpt lat="45.62597" lon="5.83574">
        <ele>634.126709</ele>
        <time>2011-09-04T08:11:28Z</time>
      </trkpt>
      <trkpt lat="45.62608" lon="5.83568">
        <ele>636.5302734</ele>
        <time>2011-09-04T08:11:36Z</time>
      </trkpt>
      <trkpt lat="45.62617" lon="5.83569">
        <ele>637.0107422</ele>
        <time>2011-09-04T08:11:42Z</time>
      </trkpt>
      <trkpt lat="45.62625" lon="5.83573">
        <ele>639.8947754</ele>
        <time>2011-09-04T08:11:48Z</time>
      </trkpt>
      <trkpt lat="45.62636" lon="5.83573">
        <ele>638.4528809</ele>
        <time>2011-09-04T08:11:55Z</time>
      </trkpt>
      <trkpt lat="45.62649" lon="5.83576">
        <ele>638.9335938</ele>
        <time>2011-09-04T08:12:03Z</time>
      </trkpt>
      <trkpt lat="45.62661" lon="5.83581">
        <ele>639.8947754</ele>
        <time>2011-09-04T08:12:11Z</time>
      </trkpt>
      <trkpt lat="45.62669" lon="5.83584">
        <ele>642.7788086</ele>
        <time>2011-09-04T08:12:17Z</time>
      </trkpt>
      <trkpt lat="45.62677" lon="5.83582">
        <ele>645.6625977</ele>
        <time>2011-09-04T08:12:23Z</time>
      </trkpt>
      <trkpt lat="45.62683" lon="5.83577">
        <ele>649.0270996</ele>
        <time>2011-09-04T08:12:29Z</time>
      </trkpt>
      <trkpt lat="45.62688" lon="5.8357">
        <ele>651.9111328</ele>
        <time>2011-09-04T08:12:34Z</time>
      </trkpt>
      <trkpt lat="45.62694" lon="5.83562">
        <ele>654.795166</ele>
        <time>2011-09-04T08:12:40Z</time>
      </trkpt>
      <trkpt lat="45.62701" lon="5.83557">
        <ele>656.2370605</ele>
        <time>2011-09-04T08:12:46Z</time>
      </trkpt>
      <trkpt lat="45.62707" lon="5.83552">
        <ele>657.6791992</ele>
        <time>2011-09-04T08:12:51Z</time>
      </trkpt>
      <trkpt lat="45.62719" lon="5.8355">
        <ele>660.5629883</ele>
        <time>2011-09-04T08:12:59Z</time>
      </trkpt>
      <trkpt lat="45.62728" lon="5.83544">
        <ele>655.7565918</ele>
        <time>2011-09-04T08:13:05Z</time>
      </trkpt>
      <trkpt lat="45.62736" lon="5.83541">
        <ele>656.2370605</ele>
        <time>2011-09-04T08:13:11Z</time>
      </trkpt>
      <trkpt lat="45.62745" lon="5.83541">
        <ele>657.6791992</ele>
        <time>2011-09-04T08:13:17Z</time>
      </trkpt>
      <trkpt lat="45.62758" lon="5.83543">
        <ele>658.6403809</ele>
        <time>2011-09-04T08:13:26Z</time>
      </trkpt>
      <trkpt lat="45.62766" lon="5.83543">
        <ele>658.1599121</ele>
        <time>2011-09-04T08:13:32Z</time>
      </trkpt>
      <trkpt lat="45.62767" lon="5.83545">
        <ele>658.1599121</ele>
        <time>2011-09-04T08:13:33Z</time>
      </trkpt>
      <trkpt lat="45.62774" lon="5.83552">
        <ele>658.6403809</ele>
        <time>2011-09-04T08:13:39Z</time>
      </trkpt>
      <trkpt lat="45.62781" lon="5.83558">
        <ele>660.5629883</ele>
        <time>2011-09-04T08:13:45Z</time>
      </trkpt>
      <trkpt lat="45.6279" lon="5.83562">
        <ele>662.005127</ele>
        <time>2011-09-04T08:13:51Z</time>
      </trkpt>
      <trkpt lat="45.62801" lon="5.8356">
        <ele>661.5244141</ele>
        <time>2011-09-04T08:13:59Z</time>
      </trkpt>
      <trkpt lat="45.6281" lon="5.83559">
        <ele>661.0437012</ele>
        <time>2011-09-04T08:14:05Z</time>
      </trkpt>
      <trkpt lat="45.62822" lon="5.83557">
        <ele>661.5244141</ele>
        <time>2011-09-04T08:14:13Z</time>
      </trkpt>
      <trkpt lat="45.62833" lon="5.83551">
        <ele>666.3308105</ele>
        <time>2011-09-04T08:14:22Z</time>
      </trkpt>
      <trkpt lat="45.62841" lon="5.83544">
        <ele>670.1762695</ele>
        <time>2011-09-04T08:14:29Z</time>
      </trkpt>
      <trkpt lat="45.6285" lon="5.83537">
        <ele>675.4633789</ele>
        <time>2011-09-04T08:14:37Z</time>
      </trkpt>
      <trkpt lat="45.62855" lon="5.8353">
        <ele>675.9440918</ele>
        <time>2011-09-04T08:14:42Z</time>
      </trkpt>
      <trkpt lat="45.62865" lon="5.83518">
        <ele>675.4633789</ele>
        <time>2011-09-04T08:14:50Z</time>
      </trkpt>
      <trkpt lat="45.62875" lon="5.83513">
        <ele>675.4633789</ele>
        <time>2011-09-04T08:14:57Z</time>
      </trkpt>
      <trkpt lat="45.62883" lon="5.83515">
        <ele>674.5021973</ele>
        <time>2011-09-04T08:15:03Z</time>
      </trkpt>
      <trkpt lat="45.62892" lon="5.83516">
        <ele>674.0214844</ele>
        <time>2011-09-04T08:15:09Z</time>
      </trkpt>
      <trkpt lat="45.62903" lon="5.83514">
        <ele>673.5410156</ele>
        <time>2011-09-04T08:15:17Z</time>
      </trkpt>
      <trkpt lat="45.62914" lon="5.83512">
        <ele>677.3862305</ele>
        <time>2011-09-04T08:15:25Z</time>
      </trkpt>
      <trkpt lat="45.62924" lon="5.83508">
        <ele>677.8666992</ele>
        <time>2011-09-04T08:15:32Z</time>
      </trkpt>
      <trkpt lat="45.62937" lon="5.83508">
        <ele>678.3474121</ele>
        <time>2011-09-04T08:15:41Z</time>
      </trkpt>
      <trkpt lat="45.62947" lon="5.83508">
        <ele>680.2700195</ele>
        <time>2011-09-04T08:15:49Z</time>
      </trkpt>
      <trkpt lat="45.62956" lon="5.83508">
        <ele>684.1154785</ele>
        <time>2011-09-04T08:15:56Z</time>
      </trkpt>
      <trkpt lat="45.6296" lon="5.83508">
        <ele>686.5187988</ele>
        <time>2011-09-04T08:15:59Z</time>
      </trkpt>
      <trkpt lat="45.62967" lon="5.83505">
        <ele>687.4799805</ele>
        <time>2011-09-04T08:16:04Z</time>
      </trkpt>
      <trkpt lat="45.62979" lon="5.83505">
        <ele>686.9992676</ele>
        <time>2011-09-04T08:16:12Z</time>
      </trkpt>
      <trkpt lat="45.62989" lon="5.83508">
        <ele>687.4799805</ele>
        <time>2011-09-04T08:16:19Z</time>
      </trkpt>
      <trkpt lat="45.62996" lon="5.83511">
        <ele>687.4799805</ele>
        <time>2011-09-04T08:16:25Z</time>
      </trkpt>
      <trkpt lat="45.6301" lon="5.83513">
        <ele>688.4414063</ele>
        <time>2011-09-04T08:16:34Z</time>
      </trkpt>
      <trkpt lat="45.63017" lon="5.83511">
        <ele>690.8444824</ele>
        <time>2011-09-04T08:16:39Z</time>
      </trkpt>
      <trkpt lat="45.63032" lon="5.83502">
        <ele>692.2866211</ele>
        <time>2011-09-04T08:16:50Z</time>
      </trkpt>
      <trkpt lat="45.63034" lon="5.835">
        <ele>691.8059082</ele>
        <time>2011-09-04T08:16:52Z</time>
      </trkpt>
      <trkpt lat="45.63037" lon="5.83498">
        <ele>692.767334</ele>
        <time>2011-09-04T08:16:54Z</time>
      </trkpt>
      <trkpt lat="45.63049" lon="5.83493">
        <ele>697.0930176</ele>
        <time>2011-09-04T08:17:03Z</time>
      </trkpt>
      <trkpt lat="45.63061" lon="5.83495">
        <ele>702.3803711</ele>
        <time>2011-09-04T08:17:11Z</time>
      </trkpt>
      <trkpt lat="45.63066" lon="5.83497">
        <ele>702.3803711</ele>
        <time>2011-09-04T08:17:15Z</time>
      </trkpt>
      <trkpt lat="45.63078" lon="5.83496">
        <ele>700.9384766</ele>
        <time>2011-09-04T08:17:23Z</time>
      </trkpt>
      <trkpt lat="45.6309" lon="5.83496">
        <ele>701.4191895</ele>
        <time>2011-09-04T08:17:31Z</time>
      </trkpt>
      <trkpt lat="45.63101" lon="5.83495">
        <ele>701.4191895</ele>
        <time>2011-09-04T08:17:38Z</time>
      </trkpt>
      <trkpt lat="45.63111" lon="5.83497">
        <ele>699.9770508</ele>
        <time>2011-09-04T08:17:45Z</time>
      </trkpt>
      <trkpt lat="45.63119" lon="5.83497">
        <ele>696.1318359</ele>
        <time>2011-09-04T08:17:50Z</time>
      </trkpt>
      <trkpt lat="45.63127" lon="5.83497">
        <ele>694.2092285</ele>
        <time>2011-09-04T08:17:54Z</time>
      </trkpt>
      <trkpt lat="45.63141" lon="5.83496">
        <ele>690.8444824</ele>
        <time>2011-09-04T08:18:00Z</time>
      </trkpt>
      <trkpt lat="45.63157" lon="5.83495">
        <ele>693.2478027</ele>
        <time>2011-09-04T08:18:07Z</time>
      </trkpt>
      <trkpt lat="45.63171" lon="5.83497">
        <ele>698.5349121</ele>
        <time>2011-09-04T08:18:14Z</time>
      </trkpt>
      <trkpt lat="45.63183" lon="5.83498">
        <ele>697.5737305</ele>
        <time>2011-09-04T08:18:19Z</time>
      </trkpt>
      <trkpt lat="45.63198" lon="5.83503">
        <ele>698.5349121</ele>
        <time>2011-09-04T08:18:26Z</time>
      </trkpt>
      <trkpt lat="45.63209" lon="5.8351">
        <ele>698.5349121</ele>
        <time>2011-09-04T08:18:32Z</time>
      </trkpt>
      <trkpt lat="45.63221" lon="5.83525">
        <ele>697.5737305</ele>
        <time>2011-09-04T08:18:40Z</time>
      </trkpt>
      <trkpt lat="45.63231" lon="5.83537">
        <ele>698.0544434</ele>
        <time>2011-09-04T08:18:47Z</time>
      </trkpt>
      <trkpt lat="45.63233" lon="5.83537">
        <ele>696.6125488</ele>
        <time>2011-09-04T08:18:52Z</time>
      </trkpt>
      <trkpt lat="45.63233" lon="5.83539">
        <ele>698.0544434</ele>
        <time>2011-09-04T08:18:54Z</time>
      </trkpt>
      <trkpt lat="45.63233" lon="5.8355">
        <ele>699.4963379</ele>
        <time>2011-09-04T08:18:59Z</time>
      </trkpt>
      <trkpt lat="45.63238" lon="5.83561">
        <ele>698.5349121</ele>
        <time>2011-09-04T08:19:06Z</time>
      </trkpt>
      <trkpt lat="45.63245" lon="5.83573">
        <ele>698.5349121</ele>
        <time>2011-09-04T08:19:11Z</time>
      </trkpt>
      <trkpt lat="45.6325" lon="5.83576">
        <ele>695.1704102</ele>
        <time>2011-09-04T08:19:15Z</time>
      </trkpt>
      <trkpt lat="45.63255" lon="5.83578">
        <ele>691.8059082</ele>
        <time>2011-09-04T08:19:19Z</time>
      </trkpt>
      <trkpt lat="45.63258" lon="5.83582">
        <ele>691.3251953</ele>
        <time>2011-09-04T08:19:23Z</time>
      </trkpt>
      <trkpt lat="45.63264" lon="5.83587">
        <ele>689.4025879</ele>
        <time>2011-09-04T08:19:27Z</time>
      </trkpt>
      <trkpt lat="45.6327" lon="5.83591">
        <ele>689.4025879</ele>
        <time>2011-09-04T08:19:32Z</time>
      </trkpt>
      <trkpt lat="45.63278" lon="5.83593">
        <ele>683.6345215</ele>
        <time>2011-09-04T08:19:36Z</time>
      </trkpt>
      <trkpt lat="45.63279" lon="5.83594">
        <ele>683.1538086</ele>
        <time>2011-09-04T08:19:37Z</time>
      </trkpt>
      <trkpt lat="45.63283" lon="5.83597">
        <ele>683.1538086</ele>
        <time>2011-09-04T08:19:40Z</time>
      </trkpt>
      <trkpt lat="45.63292" lon="5.83603">
        <ele>677.3862305</ele>
        <time>2011-09-04T08:19:45Z</time>
      </trkpt>
      <trkpt lat="45.63298" lon="5.83609">
        <ele>674.5021973</ele>
        <time>2011-09-04T08:19:49Z</time>
      </trkpt>
      <trkpt lat="45.63307" lon="5.83612">
        <ele>667.7727051</ele>
        <time>2011-09-04T08:19:56Z</time>
      </trkpt>
      <trkpt lat="45.63307" lon="5.83613">
        <ele>670.6569824</ele>
        <time>2011-09-04T08:20:05Z</time>
      </trkpt>
      <trkpt lat="45.63299" lon="5.83619">
        <ele>674.5021973</ele>
        <time>2011-09-04T08:20:10Z</time>
      </trkpt>
      <trkpt lat="45.63295" lon="5.83623">
        <ele>676.9055176</ele>
        <time>2011-09-04T08:20:13Z</time>
      </trkpt>
      <trkpt lat="45.63286" lon="5.83631">
        <ele>680.2700195</ele>
        <time>2011-09-04T08:20:19Z</time>
      </trkpt>
      <trkpt lat="45.63277" lon="5.83635">
        <ele>682.192627</ele>
        <time>2011-09-04T08:20:24Z</time>
      </trkpt>
      <trkpt lat="45.63269" lon="5.83638">
        <ele>681.2314453</ele>
        <time>2011-09-04T08:20:29Z</time>
      </trkpt>
      <trkpt lat="45.63257" lon="5.8364">
        <ele>680.2700195</ele>
        <time>2011-09-04T08:20:35Z</time>
      </trkpt>
      <trkpt lat="45.63242" lon="5.83643">
        <ele>677.3862305</ele>
        <time>2011-09-04T08:20:41Z</time>
      </trkpt>
      <trkpt lat="45.63231" lon="5.83648">
        <ele>676.9055176</ele>
        <time>2011-09-04T08:20:46Z</time>
      </trkpt>
      <trkpt lat="45.6323" lon="5.83649">
        <ele>672.098877</ele>
        <time>2011-09-04T08:20:51Z</time>
      </trkpt>
      <trkpt lat="45.6323" lon="5.83651">
        <ele>672.5795898</ele>
        <time>2011-09-04T08:20:53Z</time>
      </trkpt>
      <trkpt lat="45.63236" lon="5.83658">
        <ele>666.3308105</ele>
        <time>2011-09-04T08:20:58Z</time>
      </trkpt>
      <trkpt lat="45.63241" lon="5.83668">
        <ele>662.005127</ele>
        <time>2011-09-04T08:21:03Z</time>
      </trkpt>
      <trkpt lat="45.63252" lon="5.83675">
        <ele>653.8339844</ele>
        <time>2011-09-04T08:21:09Z</time>
      </trkpt>
      <trkpt lat="45.63261" lon="5.83685">
        <ele>653.8339844</ele>
        <time>2011-09-04T08:21:14Z</time>
      </trkpt>
      <trkpt lat="45.63276" lon="5.83695">
        <ele>652.3918457</ele>
        <time>2011-09-04T08:21:19Z</time>
      </trkpt>
      <trkpt lat="45.6329" lon="5.83704">
        <ele>646.1433105</ele>
        <time>2011-09-04T08:21:23Z</time>
      </trkpt>
      <trkpt lat="45.63306" lon="5.83717">
        <ele>639.8947754</ele>
        <time>2011-09-04T08:21:28Z</time>
      </trkpt>
      <trkpt lat="45.63319" lon="5.83731">
        <ele>634.126709</ele>
        <time>2011-09-04T08:21:32Z</time>
      </trkpt>
      <trkpt lat="45.63325" lon="5.83741">
        <ele>630.762207</ele>
        <time>2011-09-04T08:21:35Z</time>
      </trkpt>
      <trkpt lat="45.63334" lon="5.83748">
        <ele>624.032959</ele>
        <time>2011-09-04T08:21:40Z</time>
      </trkpt>
      <trkpt lat="45.63342" lon="5.83758">
        <ele>620.1877441</ele>
        <time>2011-09-04T08:21:44Z</time>
      </trkpt>
      <trkpt lat="45.63356" lon="5.83768">
        <ele>616.3422852</ele>
        <time>2011-09-04T08:21:50Z</time>
      </trkpt>
      <trkpt lat="45.63365" lon="5.83775">
        <ele>613.9389648</ele>
        <time>2011-09-04T08:21:54Z</time>
      </trkpt>
      <trkpt lat="45.63371" lon="5.83778">
        <ele>612.9777832</ele>
        <time>2011-09-04T08:21:56Z</time>
      </trkpt>
      <trkpt lat="45.63379" lon="5.83787">
        <ele>610.5744629</ele>
        <time>2011-09-04T08:22:01Z</time>
      </trkpt>
      <trkpt lat="45.63382" lon="5.83789">
        <ele>609.6132813</ele>
        <time>2011-09-04T08:22:02Z</time>
      </trkpt>
      <trkpt lat="45.63386" lon="5.83792">
        <ele>607.2099609</ele>
        <time>2011-09-04T08:22:04Z</time>
      </trkpt>
      <trkpt lat="45.63392" lon="5.83795">
        <ele>606.2485352</ele>
        <time>2011-09-04T08:22:07Z</time>
      </trkpt>
      <trkpt lat="45.63399" lon="5.83807">
        <ele>610.09375</ele>
        <time>2011-09-04T08:22:11Z</time>
      </trkpt>
      <trkpt lat="45.6341" lon="5.83816">
        <ele>612.4970703</ele>
        <time>2011-09-04T08:22:18Z</time>
      </trkpt>
      <trkpt lat="45.63412" lon="5.83817">
        <ele>612.9777832</ele>
        <time>2011-09-04T08:22:19Z</time>
      </trkpt>
      <trkpt lat="45.63417" lon="5.83826">
        <ele>619.7070313</ele>
        <time>2011-09-04T08:22:25Z</time>
      </trkpt>
      <trkpt lat="45.6342" lon="5.83829">
        <ele>622.1103516</ele>
        <time>2011-09-04T08:22:29Z</time>
      </trkpt>
      <trkpt lat="45.63427" lon="5.83831">
        <ele>621.1491699</ele>
        <time>2011-09-04T08:22:38Z</time>
      </trkpt>
      <trkpt lat="45.63433" lon="5.83832">
        <ele>618.7456055</ele>
        <time>2011-09-04T08:22:47Z</time>
      </trkpt>
      <trkpt lat="45.63435" lon="5.83833">
        <ele>618.2648926</ele>
        <time>2011-09-04T08:22:52Z</time>
      </trkpt>
      <trkpt lat="45.63439" lon="5.83835">
        <ele>615.8618164</ele>
        <time>2011-09-04T08:22:58Z</time>
      </trkpt>
      <trkpt lat="45.63447" lon="5.83837">
        <ele>607.6906738</ele>
        <time>2011-09-04T08:23:10Z</time>
      </trkpt>
      <trkpt lat="45.6345" lon="5.83841">
        <ele>608.6518555</ele>
        <time>2011-09-04T08:23:17Z</time>
      </trkpt>
      <trkpt lat="45.63461" lon="5.83847">
        <ele>603.364502</ele>
        <time>2011-09-04T08:23:35Z</time>
      </trkpt>
      <trkpt lat="45.63464" lon="5.8385">
        <ele>604.8066406</ele>
        <time>2011-09-04T08:23:39Z</time>
      </trkpt>
      <trkpt lat="45.63479" lon="5.83858">
        <ele>601.9226074</ele>
        <time>2011-09-04T08:24:01Z</time>
      </trkpt>
      <trkpt lat="45.63483" lon="5.83859">
        <ele>600</ele>
        <time>2011-09-04T08:24:07Z</time>
      </trkpt>
      <trkpt lat="45.63487" lon="5.83859">
        <ele>597.1159668</ele>
        <time>2011-09-04T08:24:13Z</time>
      </trkpt>
      <trkpt lat="45.63495" lon="5.83865">
        <ele>597.5966797</ele>
        <time>2011-09-04T08:24:27Z</time>
      </trkpt>
      <trkpt lat="45.63497" lon="5.83866">
        <ele>595.6740723</ele>
        <time>2011-09-04T08:24:33Z</time>
      </trkpt>
      <trkpt lat="45.63497" lon="5.83869">
        <ele>600</ele>
        <time>2011-09-04T08:24:40Z</time>
      </trkpt>
      <trkpt lat="45.63498" lon="5.83873">
        <ele>602.8837891</ele>
        <time>2011-09-04T08:24:45Z</time>
      </trkpt>
      <trkpt lat="45.635" lon="5.8388">
        <ele>607.2099609</ele>
        <time>2011-09-04T08:24:53Z</time>
      </trkpt>
      <trkpt lat="45.63507" lon="5.83879">
        <ele>597.1159668</ele>
        <time>2011-09-04T08:25:02Z</time>
      </trkpt>
      <trkpt lat="45.63509" lon="5.8388">
        <ele>596.1547852</ele>
        <time>2011-09-04T08:25:03Z</time>
      </trkpt>
      <trkpt lat="45.63522" lon="5.83886">
        <ele>589.4255371</ele>
        <time>2011-09-04T08:25:11Z</time>
      </trkpt>
      <trkpt lat="45.63528" lon="5.83889">
        <ele>589.90625</ele>
        <time>2011-09-04T08:25:16Z</time>
      </trkpt>
      <trkpt lat="45.63532" lon="5.83893">
        <ele>592.3095703</ele>
        <time>2011-09-04T08:25:22Z</time>
      </trkpt>
      <trkpt lat="45.63535" lon="5.83896">
        <ele>591.8288574</ele>
        <time>2011-09-04T08:25:25Z</time>
      </trkpt>
      <trkpt lat="45.63542" lon="5.83906">
        <ele>595.1933594</ele>
        <time>2011-09-04T08:25:31Z</time>
      </trkpt>
      <trkpt lat="45.63543" lon="5.83908">
        <ele>595.6740723</ele>
        <time>2011-09-04T08:25:32Z</time>
      </trkpt>
      <trkpt lat="45.63551" lon="5.83914">
        <ele>596.635498</ele>
        <time>2011-09-04T08:25:37Z</time>
      </trkpt>
      <trkpt lat="45.63561" lon="5.83926">
        <ele>594.7126465</ele>
        <time>2011-09-04T08:25:43Z</time>
      </trkpt>
      <trkpt lat="45.63575" lon="5.83934">
        <ele>594.7126465</ele>
        <time>2011-09-04T08:25:47Z</time>
      </trkpt>
      <trkpt lat="45.6359" lon="5.83935">
        <ele>595.1933594</ele>
        <time>2011-09-04T08:25:51Z</time>
      </trkpt>
      <trkpt lat="45.63607" lon="5.83938">
        <ele>595.1933594</ele>
        <time>2011-09-04T08:25:55Z</time>
      </trkpt>
      <trkpt lat="45.63622" lon="5.83938">
        <ele>592.3095703</ele>
        <time>2011-09-04T08:25:58Z</time>
      </trkpt>
      <trkpt lat="45.63644" lon="5.83933">
        <ele>588.4643555</ele>
        <time>2011-09-04T08:26:02Z</time>
      </trkpt>
      <trkpt lat="45.63656" lon="5.83931">
        <ele>586.060791</ele>
        <time>2011-09-04T08:26:04Z</time>
      </trkpt>
      <trkpt lat="45.63672" lon="5.83935">
        <ele>585.0996094</ele>
        <time>2011-09-04T08:26:07Z</time>
      </trkpt>
      <trkpt lat="45.63681" lon="5.8394">
        <ele>584.6188965</ele>
        <time>2011-09-04T08:26:09Z</time>
      </trkpt>
      <trkpt lat="45.6369" lon="5.83946">
        <ele>586.060791</ele>
        <time>2011-09-04T08:26:11Z</time>
      </trkpt>
      <trkpt lat="45.63715" lon="5.83955">
        <ele>588.4643555</ele>
        <time>2011-09-04T08:26:16Z</time>
      </trkpt>
      <trkpt lat="45.63726" lon="5.83956">
        <ele>587.5026855</ele>
        <time>2011-09-04T08:26:18Z</time>
      </trkpt>
      <trkpt lat="45.63756" lon="5.83962">
        <ele>585.5800781</ele>
        <time>2011-09-04T08:26:23Z</time>
      </trkpt>
      <trkpt lat="45.63774" lon="5.83963">
        <ele>587.0219727</ele>
        <time>2011-09-04T08:26:26Z</time>
      </trkpt>
      <trkpt lat="45.63808" lon="5.83961">
        <ele>578.8510742</ele>
        <time>2011-09-04T08:26:31Z</time>
      </trkpt>
      <trkpt lat="45.63824" lon="5.83967">
        <ele>577.4091797</ele>
        <time>2011-09-04T08:26:34Z</time>
      </trkpt>
      <trkpt lat="45.63833" lon="5.83973">
        <ele>576.9284668</ele>
        <time>2011-09-04T08:26:36Z</time>
      </trkpt>
      <trkpt lat="45.63857" lon="5.83983">
        <ele>579.331543</ele>
        <time>2011-09-04T08:26:40Z</time>
      </trkpt>
      <trkpt lat="45.63863" lon="5.83982">
        <ele>578.8510742</ele>
        <time>2011-09-04T08:26:41Z</time>
      </trkpt>
      <trkpt lat="45.63919" lon="5.83983">
        <ele>577.8896484</ele>
        <time>2011-09-04T08:26:50Z</time>
      </trkpt>
      <trkpt lat="45.63935" lon="5.83984">
        <ele>578.8510742</ele>
        <time>2011-09-04T08:26:53Z</time>
      </trkpt>
      <trkpt lat="45.63954" lon="5.83988">
        <ele>576.9284668</ele>
        <time>2011-09-04T08:26:57Z</time>
      </trkpt>
      <trkpt lat="45.63969" lon="5.83994">
        <ele>574.5251465</ele>
        <time>2011-09-04T08:27:00Z</time>
      </trkpt>
      <trkpt lat="45.63978" lon="5.84">
        <ele>572.1218262</ele>
        <time>2011-09-04T08:27:02Z</time>
      </trkpt>
      <trkpt lat="45.64" lon="5.84009">
        <ele>569.7185059</ele>
        <time>2011-09-04T08:27:07Z</time>
      </trkpt>
      <trkpt lat="45.64022" lon="5.84012">
        <ele>566.8344727</ele>
        <time>2011-09-04T08:27:11Z</time>
      </trkpt>
      <trkpt lat="45.6403" lon="5.84013">
        <ele>565.3925781</ele>
        <time>2011-09-04T08:27:12Z</time>
      </trkpt>
      <trkpt lat="45.64064" lon="5.84014">
        <ele>560.1052246</ele>
        <time>2011-09-04T08:27:18Z</time>
      </trkpt>
      <trkpt lat="45.6407" lon="5.84015">
        <ele>559.144043</ele>
        <time>2011-09-04T08:27:19Z</time>
      </trkpt>
      <trkpt lat="45.64088" lon="5.84019">
        <ele>557.2214355</ele>
        <time>2011-09-04T08:27:22Z</time>
      </trkpt>
      <trkpt lat="45.64109" lon="5.84029">
        <ele>557.7021484</ele>
        <time>2011-09-04T08:27:26Z</time>
      </trkpt>
      <trkpt lat="45.64125" lon="5.84035">
        <ele>559.6247559</ele>
        <time>2011-09-04T08:27:29Z</time>
      </trkpt>
      <trkpt lat="45.64157" lon="5.84038">
        <ele>556.7407227</ele>
        <time>2011-09-04T08:27:34Z</time>
      </trkpt>
      <trkpt lat="45.64163" lon="5.84038">
        <ele>554.8178711</ele>
        <time>2011-09-04T08:27:35Z</time>
      </trkpt>
      <trkpt lat="45.64187" lon="5.84052">
        <ele>553.3759766</ele>
        <time>2011-09-04T08:27:39Z</time>
      </trkpt>
      <trkpt lat="45.64208" lon="5.84059">
        <ele>551.4533691</ele>
        <time>2011-09-04T08:27:42Z</time>
      </trkpt>
      <trkpt lat="45.64236" lon="5.84071">
        <ele>549.0500488</ele>
        <time>2011-09-04T08:27:47Z</time>
      </trkpt>
      <trkpt lat="45.64269" lon="5.8407">
        <ele>546.1662598</ele>
        <time>2011-09-04T08:27:51Z</time>
      </trkpt>
      <trkpt lat="45.64277" lon="5.84071">
        <ele>545.6855469</ele>
        <time>2011-09-04T08:27:52Z</time>
      </trkpt>
      <trkpt lat="45.64308" lon="5.84077">
        <ele>545.204834</ele>
        <time>2011-09-04T08:27:57Z</time>
      </trkpt>
      <trkpt lat="45.64334" lon="5.84092">
        <ele>539.4368896</ele>
        <time>2011-09-04T08:28:02Z</time>
      </trkpt>
      <trkpt lat="45.64348" lon="5.84091">
        <ele>540.8789063</ele>
        <time>2011-09-04T08:28:06Z</time>
      </trkpt>
      <trkpt lat="45.64371" lon="5.84088">
        <ele>537.9949951</ele>
        <time>2011-09-04T08:28:10Z</time>
      </trkpt>
      <trkpt lat="45.64378" lon="5.84092">
        <ele>536.0723877</ele>
        <time>2011-09-04T08:28:11Z</time>
      </trkpt>
      <trkpt lat="45.64398" lon="5.841">
        <ele>530.3044434</ele>
        <time>2011-09-04T08:28:14Z</time>
      </trkpt>
      <trkpt lat="45.64411" lon="5.84108">
        <ele>526.4591064</ele>
        <time>2011-09-04T08:28:16Z</time>
      </trkpt>
      <trkpt lat="45.64433" lon="5.84117">
        <ele>522.1331787</ele>
        <time>2011-09-04T08:28:19Z</time>
      </trkpt>
      <trkpt lat="45.64463" lon="5.84135">
        <ele>513.4814453</ele>
        <time>2011-09-04T08:28:24Z</time>
      </trkpt>
      <trkpt lat="45.64468" lon="5.84139">
        <ele>513.9620361</ele>
        <time>2011-09-04T08:28:25Z</time>
      </trkpt>
      <trkpt lat="45.64484" lon="5.84143">
        <ele>512.0394287</ele>
        <time>2011-09-04T08:28:28Z</time>
      </trkpt>
      <trkpt lat="45.64501" lon="5.84146">
        <ele>514.442627</ele>
        <time>2011-09-04T08:28:33Z</time>
      </trkpt>
      <trkpt lat="45.64507" lon="5.84147">
        <ele>515.4040527</ele>
        <time>2011-09-04T08:28:36Z</time>
      </trkpt>
      <trkpt lat="45.64505" lon="5.84149">
        <ele>515.4040527</ele>
        <time>2011-09-04T08:28:41Z</time>
      </trkpt>
      <trkpt lat="45.64501" lon="5.84145">
        <ele>523.0946045</ele>
        <time>2011-09-04T08:28:49Z</time>
      </trkpt>
      <trkpt lat="45.64498" lon="5.84142">
        <ele>527.901001</ele>
        <time>2011-09-04T08:28:55Z</time>
      </trkpt>
      <trkpt lat="45.645" lon="5.8414">
        <ele>524.0557861</ele>
        <time>2011-09-04T08:29:02Z</time>
      </trkpt>
      <trkpt lat="45.64504" lon="5.84145">
        <ele>524.0557861</ele>
        <time>2011-09-04T08:29:08Z</time>
      </trkpt>
      <trkpt lat="45.64504" lon="5.84149">
        <ele>527.4204102</ele>
        <time>2011-09-04T08:29:26Z</time>
      </trkpt>
      <trkpt lat="45.64507" lon="5.84147">
        <ele>525.9783936</ele>
        <time>2011-09-04T08:29:57Z</time>
      </trkpt>
      <trkpt lat="45.64508" lon="5.84146">
        <ele>523.0946045</ele>
        <time>2011-09-04T08:30:05Z</time>
      </trkpt>
      <trkpt lat="45.64508" lon="5.84146">
        <ele>522.1331787</ele>
        <time>2011-09-04T08:30:21Z</time>
      </trkpt>
      <trkpt lat="45.64503" lon="5.84147">
        <ele>527.901001</ele>
        <time>2011-09-04T08:30:52Z</time>
      </trkpt>
      <trkpt lat="45.64505" lon="5.84147">
        <ele>525.0172119</ele>
        <time>2011-09-04T08:31:00Z</time>
      </trkpt>
      <trkpt lat="45.64508" lon="5.84144">
        <ele>509.6361084</ele>
        <time>2011-09-04T08:31:26Z</time>
      </trkpt>
      <trkpt lat="45.64508" lon="5.84146">
        <ele>518.2878418</ele>
        <time>2011-09-04T08:32:01Z</time>
      </trkpt>
      <trkpt lat="45.64509" lon="5.84147">
        <ele>520.2105713</ele>
        <time>2011-09-04T08:32:10Z</time>
      </trkpt>
      <trkpt lat="45.64507" lon="5.84147">
        <ele>520.2105713</ele>
        <time>2011-09-04T08:32:17Z</time>
      </trkpt>
      <trkpt lat="45.64506" lon="5.84147">
        <ele>520.2105713</ele>
        <time>2011-09-04T08:32:24Z</time>
      </trkpt>
      <trkpt lat="45.64508" lon="5.84145">
        <ele>517.807251</ele>
        <time>2011-09-04T08:32:32Z</time>
      </trkpt>
      <trkpt lat="45.6451" lon="5.84142">
        <ele>514.9233398</ele>
        <time>2011-09-04T08:32:53Z</time>
      </trkpt>
      <trkpt lat="45.64504" lon="5.84147">
        <ele>528.3818359</ele>
        <time>2011-09-04T08:33:17Z</time>
      </trkpt>
      <trkpt lat="45.64507" lon="5.84145">
        <ele>514.9233398</ele>
        <time>2011-09-04T08:33:43Z</time>
      </trkpt>
      <trkpt lat="45.64507" lon="5.84147">
        <ele>515.4040527</ele>
        <time>2011-09-04T08:34:44Z</time>
      </trkpt>
      <trkpt lat="45.64507" lon="5.84143">
        <ele>513.4814453</ele>
        <time>2011-09-04T08:34:54Z</time>
      </trkpt>
      <trkpt lat="45.64506" lon="5.84145">
        <ele>513.0007324</ele>
        <time>2011-09-04T08:35:21Z</time>
      </trkpt>
      <trkpt lat="45.64497" lon="5.84144">
        <ele>532.2270508</ele>
        <time>2011-09-04T08:35:53Z</time>
      </trkpt>
      <trkpt lat="45.64499" lon="5.84143">
        <ele>529.3431396</ele>
        <time>2011-09-04T08:36:01Z</time>
      </trkpt>
      <trkpt lat="45.64503" lon="5.84145">
        <ele>525.9783936</ele>
        <time>2011-09-04T08:36:07Z</time>
      </trkpt>
      <trkpt lat="45.64505" lon="5.84142">
        <ele>526.9398193</ele>
        <time>2011-09-04T08:36:41Z</time>
      </trkpt>
      <trkpt lat="45.64504" lon="5.84149">
        <ele>529.3431396</ele>
        <time>2011-09-04T08:37:19Z</time>
      </trkpt>
      <trkpt lat="45.64499" lon="5.84149">
        <ele>538.9562988</ele>
        <time>2011-09-04T08:37:34Z</time>
      </trkpt>
      <trkpt lat="45.645" lon="5.84147">
        <ele>539.9176025</ele>
        <time>2011-09-04T08:37:48Z</time>
      </trkpt>
      <trkpt lat="45.64502" lon="5.84146">
        <ele>525.9783936</ele>
        <time>2011-09-04T08:38:09Z</time>
      </trkpt>
      <trkpt lat="45.64501" lon="5.84143">
        <ele>523.5751953</ele>
        <time>2011-09-04T08:38:15Z</time>
      </trkpt>
      <trkpt lat="45.645" lon="5.8415">
        <ele>529.8237305</ele>
        <time>2011-09-04T08:38:32Z</time>
      </trkpt>
      <trkpt lat="45.645" lon="5.84152">
        <ele>529.3431396</ele>
        <time>2011-09-04T08:38:39Z</time>
      </trkpt>
      <trkpt lat="45.645" lon="5.84152">
        <ele>528.8625488</ele>
        <time>2011-09-04T08:38:49Z</time>
      </trkpt>
      <trkpt lat="45.64498" lon="5.84155">
        <ele>528.3818359</ele>
        <time>2011-09-04T08:39:11Z</time>
      </trkpt>
      <trkpt lat="45.64497" lon="5.84156">
        <ele>528.3818359</ele>
        <time>2011-09-04T08:39:12Z</time>
      </trkpt>
      <trkpt lat="45.64483" lon="5.84168">
        <ele>527.901001</ele>
        <time>2011-09-04T08:39:17Z</time>
      </trkpt>
      <trkpt lat="45.64459" lon="5.84194">
        <ele>524.0557861</ele>
        <time>2011-09-04T08:39:23Z</time>
      </trkpt>
      <trkpt lat="45.64456" lon="5.84197">
        <ele>522.6138916</ele>
        <time>2011-09-04T08:39:24Z</time>
      </trkpt>
      <trkpt lat="45.64439" lon="5.8421">
        <ele>518.2878418</ele>
        <time>2011-09-04T08:39:28Z</time>
      </trkpt>
      <trkpt lat="45.64414" lon="5.84228">
        <ele>512.0394287</ele>
        <time>2011-09-04T08:39:33Z</time>
      </trkpt>
      <trkpt lat="45.64394" lon="5.84237">
        <ele>509.1553955</ele>
        <time>2011-09-04T08:39:37Z</time>
      </trkpt>
      <trkpt lat="45.64367" lon="5.84242">
        <ele>505.3101807</ele>
        <time>2011-09-04T08:39:42Z</time>
      </trkpt>
      <trkpt lat="45.64357" lon="5.84233">
        <ele>502.9067383</ele>
        <time>2011-09-04T08:39:46Z</time>
      </trkpt>
      <trkpt lat="45.64347" lon="5.84222">
        <ele>499.5422363</ele>
        <time>2011-09-04T08:39:51Z</time>
      </trkpt>
      <trkpt lat="45.64324" lon="5.84213">
        <ele>501.4648438</ele>
        <time>2011-09-04T08:39:59Z</time>
      </trkpt>
      <trkpt lat="45.64296" lon="5.84201">
        <ele>506.7520752</ele>
        <time>2011-09-04T08:40:07Z</time>
      </trkpt>
      <trkpt lat="45.64271" lon="5.8419">
        <ele>506.2714844</ele>
        <time>2011-09-04T08:40:14Z</time>
      </trkpt>
      <trkpt lat="45.64257" lon="5.84188">
        <ele>507.2327881</ele>
        <time>2011-09-04T08:40:20Z</time>
      </trkpt>
      <trkpt lat="45.64248" lon="5.84189">
        <ele>507.2327881</ele>
        <time>2011-09-04T08:40:25Z</time>
      </trkpt>
      <trkpt lat="45.64237" lon="5.84193">
        <ele>508.1940918</ele>
        <time>2011-09-04T08:40:29Z</time>
      </trkpt>
      <trkpt lat="45.64213" lon="5.842">
        <ele>512.0394287</ele>
        <time>2011-09-04T08:40:37Z</time>
      </trkpt>
      <trkpt lat="45.64199" lon="5.84206">
        <ele>516.8459473</ele>
        <time>2011-09-04T08:40:42Z</time>
      </trkpt>
      <trkpt lat="45.64183" lon="5.84216">
        <ele>523.5751953</ele>
        <time>2011-09-04T08:40:47Z</time>
      </trkpt>
      <trkpt lat="45.64169" lon="5.84222">
        <ele>525.9783936</ele>
        <time>2011-09-04T08:40:51Z</time>
      </trkpt>
      <trkpt lat="45.64148" lon="5.84229">
        <ele>530.7851563</ele>
        <time>2011-09-04T08:40:56Z</time>
      </trkpt>
      <trkpt lat="45.64144" lon="5.84231">
        <ele>532.2270508</ele>
        <time>2011-09-04T08:40:57Z</time>
      </trkpt>
      <trkpt lat="45.6412" lon="5.8424">
        <ele>535.5915527</ele>
        <time>2011-09-04T08:41:03Z</time>
      </trkpt>
      <trkpt lat="45.64093" lon="5.84241">
        <ele>533.6689453</ele>
        <time>2011-09-04T08:41:09Z</time>
      </trkpt>
      <trkpt lat="45.64072" lon="5.8424">
        <ele>529.3431396</ele>
        <time>2011-09-04T08:41:13Z</time>
      </trkpt>
      <trkpt lat="45.64032" lon="5.84236">
        <ele>537.9949951</ele>
        <time>2011-09-04T08:41:20Z</time>
      </trkpt>
      <trkpt lat="45.64028" lon="5.84236">
        <ele>537.9949951</ele>
        <time>2011-09-04T08:41:21Z</time>
      </trkpt>
      <trkpt lat="45.64006" lon="5.84234">
        <ele>526.9398193</ele>
        <time>2011-09-04T08:41:27Z</time>
      </trkpt>
      <trkpt lat="45.63973" lon="5.8423">
        <ele>515.4040527</ele>
        <time>2011-09-04T08:41:33Z</time>
      </trkpt>
      <trkpt lat="45.63945" lon="5.84232">
        <ele>511.5587158</ele>
        <time>2011-09-04T08:41:36Z</time>
      </trkpt>
      <trkpt lat="45.63894" lon="5.84224">
        <ele>510.1166992</ele>
        <time>2011-09-04T08:41:42Z</time>
      </trkpt>
      <trkpt lat="45.63871" lon="5.84223">
        <ele>512.5200195</ele>
        <time>2011-09-04T08:41:46Z</time>
      </trkpt>
      <trkpt lat="45.63837" lon="5.84226">
        <ele>509.1553955</ele>
        <time>2011-09-04T08:41:53Z</time>
      </trkpt>
      <trkpt lat="45.63803" lon="5.8423">
        <ele>508.6746826</ele>
        <time>2011-09-04T08:42:01Z</time>
      </trkpt>
      <trkpt lat="45.63796" lon="5.84231">
        <ele>509.6361084</ele>
        <time>2011-09-04T08:42:03Z</time>
      </trkpt>
      <trkpt lat="45.63768" lon="5.84228">
        <ele>510.59729</ele>
        <time>2011-09-04T08:42:12Z</time>
      </trkpt>
      <trkpt lat="45.63741" lon="5.84224">
        <ele>511.5587158</ele>
        <time>2011-09-04T08:42:22Z</time>
      </trkpt>
      <trkpt lat="45.63724" lon="5.84222">
        <ele>512.0394287</ele>
        <time>2011-09-04T08:42:29Z</time>
      </trkpt>
      <trkpt lat="45.63709" lon="5.84219">
        <ele>510.59729</ele>
        <time>2011-09-04T08:42:35Z</time>
      </trkpt>
      <trkpt lat="45.63696" lon="5.84217">
        <ele>512.5200195</ele>
        <time>2011-09-04T08:42:40Z</time>
      </trkpt>
      <trkpt lat="45.63683" lon="5.84215">
        <ele>513.4814453</ele>
        <time>2011-09-04T08:42:45Z</time>
      </trkpt>
      <trkpt lat="45.6367" lon="5.84215">
        <ele>515.8846436</ele>
        <time>2011-09-04T08:42:50Z</time>
      </trkpt>
      <trkpt lat="45.63653" lon="5.84216">
        <ele>517.3266602</ele>
        <time>2011-09-04T08:42:57Z</time>
      </trkpt>
      <trkpt lat="45.63633" lon="5.84216">
        <ele>518.7685547</ele>
        <time>2011-09-04T08:43:05Z</time>
      </trkpt>
      <trkpt lat="45.63615" lon="5.84219">
        <ele>520.2105713</ele>
        <time>2011-09-04T08:43:13Z</time>
      </trkpt>
      <trkpt lat="45.63595" lon="5.84224">
        <ele>522.1331787</ele>
        <time>2011-09-04T08:43:21Z</time>
      </trkpt>
      <trkpt lat="45.63566" lon="5.84231">
        <ele>525.9783936</ele>
        <time>2011-09-04T08:43:30Z</time>
      </trkpt>
      <trkpt lat="45.63552" lon="5.84235">
        <ele>527.901001</ele>
        <time>2011-09-04T08:43:35Z</time>
      </trkpt>
      <trkpt lat="45.6353" lon="5.8424">
        <ele>528.8625488</ele>
        <time>2011-09-04T08:43:43Z</time>
      </trkpt>
      <trkpt lat="45.63504" lon="5.84247">
        <ele>528.3818359</ele>
        <time>2011-09-04T08:43:52Z</time>
      </trkpt>
      <trkpt lat="45.63481" lon="5.84251">
        <ele>533.6689453</ele>
        <time>2011-09-04T08:43:59Z</time>
      </trkpt>
      <trkpt lat="45.63453" lon="5.84257">
        <ele>537.9949951</ele>
        <time>2011-09-04T08:44:06Z</time>
      </trkpt>
      <trkpt lat="45.63419" lon="5.84258">
        <ele>540.3983154</ele>
        <time>2011-09-04T08:44:14Z</time>
      </trkpt>
      <trkpt lat="45.63383" lon="5.84256">
        <ele>538.475708</ele>
        <time>2011-09-04T08:44:23Z</time>
      </trkpt>
      <trkpt lat="45.63362" lon="5.84256">
        <ele>535.5915527</ele>
        <time>2011-09-04T08:44:27Z</time>
      </trkpt>
      <trkpt lat="45.63324" lon="5.84256">
        <ele>531.7463379</ele>
        <time>2011-09-04T08:44:32Z</time>
      </trkpt>
      <trkpt lat="45.63276" lon="5.84254">
        <ele>526.4591064</ele>
        <time>2011-09-04T08:44:37Z</time>
      </trkpt>
      <trkpt lat="45.63209" lon="5.84245">
        <ele>520.2105713</ele>
        <time>2011-09-04T08:44:43Z</time>
      </trkpt>
      <trkpt lat="45.63135" lon="5.84228">
        <ele>512.0394287</ele>
        <time>2011-09-04T08:44:49Z</time>
      </trkpt>
      <trkpt lat="45.63044" lon="5.84215">
        <ele>501.9455566</ele>
        <time>2011-09-04T08:44:56Z</time>
      </trkpt>
      <trkpt lat="45.62978" lon="5.84202">
        <ele>493.2935791</ele>
        <time>2011-09-04T08:45:01Z</time>
      </trkpt>
      <trkpt lat="45.62925" lon="5.84206">
        <ele>487.0450439</ele>
        <time>2011-09-04T08:45:05Z</time>
      </trkpt>
      <trkpt lat="45.62865" lon="5.84218">
        <ele>483.6804199</ele>
        <time>2011-09-04T08:45:10Z</time>
      </trkpt>
      <trkpt lat="45.628" lon="5.84225">
        <ele>477.9124756</ele>
        <time>2011-09-04T08:45:16Z</time>
      </trkpt>
      <trkpt lat="45.62778" lon="5.84228">
        <ele>475.5092773</ele>
        <time>2011-09-04T08:45:18Z</time>
      </trkpt>
      <trkpt lat="45.62725" lon="5.84253">
        <ele>469.2607422</ele>
        <time>2011-09-04T08:45:23Z</time>
      </trkpt>
      <trkpt lat="45.62682" lon="5.84258">
        <ele>465.4155273</ele>
        <time>2011-09-04T08:45:27Z</time>
      </trkpt>
      <trkpt lat="45.62636" lon="5.84254">
        <ele>461.0894775</ele>
        <time>2011-09-04T08:45:32Z</time>
      </trkpt>
      <trkpt lat="45.62622" lon="5.84252">
        <ele>458.2055664</ele>
        <time>2011-09-04T08:45:34Z</time>
      </trkpt>
      <trkpt lat="45.62601" lon="5.84259">
        <ele>457.7249756</ele>
        <time>2011-09-04T08:45:39Z</time>
      </trkpt>
      <trkpt lat="45.626" lon="5.84271">
        <ele>456.7635498</ele>
        <time>2011-09-04T08:45:42Z</time>
      </trkpt>
      <trkpt lat="45.62602" lon="5.84276">
        <ele>456.282959</ele>
        <time>2011-09-04T08:45:43Z</time>
      </trkpt>
      <trkpt lat="45.62608" lon="5.84314">
        <ele>454.8408203</ele>
        <time>2011-09-04T08:45:50Z</time>
      </trkpt>
      <trkpt lat="45.6261" lon="5.84327">
        <ele>456.282959</ele>
        <time>2011-09-04T08:45:53Z</time>
      </trkpt>
      <trkpt lat="45.62616" lon="5.84353">
        <ele>458.6861572</ele>
        <time>2011-09-04T08:45:58Z</time>
      </trkpt>
      <trkpt lat="45.62619" lon="5.84362">
        <ele>458.2055664</ele>
        <time>2011-09-04T08:46:00Z</time>
      </trkpt>
      <trkpt lat="45.62608" lon="5.8437">
        <ele>455.8022461</ele>
        <time>2011-09-04T08:46:04Z</time>
      </trkpt>
      <trkpt lat="45.62606" lon="5.8438">
        <ele>454.8408203</ele>
        <time>2011-09-04T08:46:07Z</time>
      </trkpt>
      <trkpt lat="45.62617" lon="5.844">
        <ele>454.8408203</ele>
        <time>2011-09-04T08:46:11Z</time>
      </trkpt>
      <trkpt lat="45.62627" lon="5.84418">
        <ele>451.4763184</ele>
        <time>2011-09-04T08:46:14Z</time>
      </trkpt>
      <trkpt lat="45.62634" lon="5.84432">
        <ele>449.5537109</ele>
        <time>2011-09-04T08:46:16Z</time>
      </trkpt>
      <trkpt lat="45.62643" lon="5.84455">
        <ele>444.7470703</ele>
        <time>2011-09-04T08:46:19Z</time>
      </trkpt>
      <trkpt lat="45.62685" lon="5.84453">
        <ele>440.9018555</ele>
        <time>2011-09-04T08:46:23Z</time>
      </trkpt>
      <trkpt lat="45.62718" lon="5.84445">
        <ele>438.4985352</ele>
        <time>2011-09-04T08:46:27Z</time>
      </trkpt>
      <trkpt lat="45.62742" lon="5.84441">
        <ele>437.0565186</ele>
        <time>2011-09-04T08:46:30Z</time>
      </trkpt>
      <trkpt lat="45.62775" lon="5.84454">
        <ele>437.5371094</ele>
        <time>2011-09-04T08:46:34Z</time>
      </trkpt>
      <trkpt lat="45.62816" lon="5.84476">
        <ele>435.614502</ele>
        <time>2011-09-04T08:46:40Z</time>
      </trkpt>
      <trkpt lat="45.62831" lon="5.84494">
        <ele>437.0565186</ele>
        <time>2011-09-04T08:46:44Z</time>
      </trkpt>
      <trkpt lat="45.62857" lon="5.84501">
        <ele>437.0565186</ele>
        <time>2011-09-04T08:46:49Z</time>
      </trkpt>
      <trkpt lat="45.6287" lon="5.84506">
        <ele>437.0565186</ele>
        <time>2011-09-04T08:46:52Z</time>
      </trkpt>
      <trkpt lat="45.62898" lon="5.84511">
        <ele>435.614502</ele>
        <time>2011-09-04T08:46:58Z</time>
      </trkpt>
      <trkpt lat="45.62911" lon="5.84509">
        <ele>436.5759277</ele>
        <time>2011-09-04T08:47:00Z</time>
      </trkpt>
      <trkpt lat="45.62932" lon="5.84509">
        <ele>436.5759277</ele>
        <time>2011-09-04T08:47:06Z</time>
      </trkpt>
      <trkpt lat="45.62934" lon="5.84506">
        <ele>436.5759277</ele>
        <time>2011-09-04T08:47:07Z</time>
      </trkpt>
      <trkpt lat="45.62954" lon="5.84507">
        <ele>436.0952148</ele>
        <time>2011-09-04T08:47:13Z</time>
      </trkpt>
      <trkpt lat="45.62975" lon="5.84528">
        <ele>430.8079834</ele>
        <time>2011-09-04T08:47:18Z</time>
      </trkpt>
      <trkpt lat="45.6299" lon="5.84531">
        <ele>429.3659668</ele>
        <time>2011-09-04T08:47:21Z</time>
      </trkpt>
      <trkpt lat="45.63006" lon="5.84537">
        <ele>428.885376</ele>
        <time>2011-09-04T08:47:26Z</time>
      </trkpt>
      <trkpt lat="45.63024" lon="5.84534">
        <ele>430.3272705</ele>
        <time>2011-09-04T08:47:32Z</time>
      </trkpt>
      <trkpt lat="45.63034" lon="5.84534">
        <ele>432.7307129</ele>
        <time>2011-09-04T08:47:34Z</time>
      </trkpt>
      <trkpt lat="45.63076" lon="5.84515">
        <ele>440.4212646</ele>
        <time>2011-09-04T08:47:38Z</time>
      </trkpt>
      <trkpt lat="45.63088" lon="5.84515">
        <ele>439.4597168</ele>
        <time>2011-09-04T08:47:41Z</time>
      </trkpt>
      <trkpt lat="45.63091" lon="5.84515">
        <ele>439.4597168</ele>
        <time>2011-09-04T08:47:42Z</time>
      </trkpt>
      <trkpt lat="45.631" lon="5.84528">
        <ele>437.5371094</ele>
        <time>2011-09-04T08:47:46Z</time>
      </trkpt>
      <trkpt lat="45.6311" lon="5.84539">
        <ele>436.0952148</ele>
        <time>2011-09-04T08:47:50Z</time>
      </trkpt>
      <trkpt lat="45.63116" lon="5.84559">
        <ele>428.4046631</ele>
        <time>2011-09-04T08:47:56Z</time>
      </trkpt>
      <trkpt lat="45.63124" lon="5.8458">
        <ele>416.8688965</ele>
        <time>2011-09-04T08:48:01Z</time>
      </trkpt>
      <trkpt lat="45.63134" lon="5.84592">
        <ele>409.1783447</ele>
        <time>2011-09-04T08:48:05Z</time>
      </trkpt>
      <trkpt lat="45.63153" lon="5.84595">
        <ele>401.487793</ele>
        <time>2011-09-04T08:48:09Z</time>
      </trkpt>
      <trkpt lat="45.63162" lon="5.84596">
        <ele>397.6424561</ele>
        <time>2011-09-04T08:48:11Z</time>
      </trkpt>
      <trkpt lat="45.63181" lon="5.84598">
        <ele>388.0292969</ele>
        <time>2011-09-04T08:48:16Z</time>
      </trkpt>
      <trkpt lat="45.63198" lon="5.84603">
        <ele>379.3774414</ele>
        <time>2011-09-04T08:48:21Z</time>
      </trkpt>
      <trkpt lat="45.63209" lon="5.84606">
        <ele>375.0515137</ele>
        <time>2011-09-04T08:48:24Z</time>
      </trkpt>
      <trkpt lat="45.6323" lon="5.84621">
        <ele>367.3609619</ele>
        <time>2011-09-04T08:48:30Z</time>
      </trkpt>
      <trkpt lat="45.63247" lon="5.84629">
        <ele>363.5157471</ele>
        <time>2011-09-04T08:48:34Z</time>
      </trkpt>
      <trkpt lat="45.63264" lon="5.84643">
        <ele>359.6704102</ele>
        <time>2011-09-04T08:48:39Z</time>
      </trkpt>
      <trkpt lat="45.63271" lon="5.84652">
        <ele>358.7089844</ele>
        <time>2011-09-04T08:48:41Z</time>
      </trkpt>
      <trkpt lat="45.63306" lon="5.84668">
        <ele>352.9411621</ele>
        <time>2011-09-04T08:48:47Z</time>
      </trkpt>
      <trkpt lat="45.63319" lon="5.84672">
        <ele>349.5765381</ele>
        <time>2011-09-04T08:48:49Z</time>
      </trkpt>
      <trkpt lat="45.63331" lon="5.84677">
        <ele>348.1346436</ele>
        <time>2011-09-04T08:48:51Z</time>
      </trkpt>
      <trkpt lat="45.63346" lon="5.8469">
        <ele>344.2894287</ele>
        <time>2011-09-04T08:48:54Z</time>
      </trkpt>
      <trkpt lat="45.63369" lon="5.84714">
        <ele>338.0407715</ele>
        <time>2011-09-04T08:48:59Z</time>
      </trkpt>
      <trkpt lat="45.63388" lon="5.84735">
        <ele>337.0794678</ele>
        <time>2011-09-04T08:49:03Z</time>
      </trkpt>
      <trkpt lat="45.63396" lon="5.84742">
        <ele>336.598877</ele>
        <time>2011-09-04T08:49:05Z</time>
      </trkpt>
      <trkpt lat="45.63417" lon="5.84758">
        <ele>339.482666</ele>
        <time>2011-09-04T08:49:08Z</time>
      </trkpt>
      <trkpt lat="45.63447" lon="5.84764">
        <ele>339.0020752</ele>
        <time>2011-09-04T08:49:13Z</time>
      </trkpt>
      <trkpt lat="45.63458" lon="5.84767">
        <ele>339.0020752</ele>
        <time>2011-09-04T08:49:15Z</time>
      </trkpt>
      <trkpt lat="45.63476" lon="5.84768">
        <ele>338.0407715</ele>
        <time>2011-09-04T08:49:18Z</time>
      </trkpt>
      <trkpt lat="45.63494" lon="5.8477">
        <ele>338.5214844</ele>
        <time>2011-09-04T08:49:21Z</time>
      </trkpt>
      <trkpt lat="45.63515" lon="5.84778">
        <ele>337.5600586</ele>
        <time>2011-09-04T08:49:25Z</time>
      </trkpt>
      <trkpt lat="45.63554" lon="5.84784">
        <ele>341.8859863</ele>
        <time>2011-09-04T08:49:32Z</time>
      </trkpt>
      <trkpt lat="45.6358" lon="5.84781">
        <ele>343.8085938</ele>
        <time>2011-09-04T08:49:35Z</time>
      </trkpt>
      <trkpt lat="45.63616" lon="5.84769">
        <ele>345.2506104</ele>
        <time>2011-09-04T08:49:38Z</time>
      </trkpt>
      <trkpt lat="45.63655" lon="5.84747">
        <ele>349.5765381</ele>
        <time>2011-09-04T08:49:40Z</time>
      </trkpt>
      <trkpt lat="45.63685" lon="5.84758">
        <ele>350.057251</ele>
        <time>2011-09-04T08:49:44Z</time>
      </trkpt>
      <trkpt lat="45.63716" lon="5.84775">
        <ele>349.5765381</ele>
        <time>2011-09-04T08:49:48Z</time>
      </trkpt>
      <trkpt lat="45.63751" lon="5.84802">
        <ele>347.6539307</ele>
        <time>2011-09-04T08:49:53Z</time>
      </trkpt>
      <trkpt lat="45.63773" lon="5.84819">
        <ele>344.7700195</ele>
        <time>2011-09-04T08:49:56Z</time>
      </trkpt>
      <trkpt lat="45.63795" lon="5.84857">
        <ele>342.3666992</ele>
        <time>2011-09-04T08:50:01Z</time>
      </trkpt>
      <trkpt lat="45.63819" lon="5.84901">
        <ele>340.9246826</ele>
        <time>2011-09-04T08:50:07Z</time>
      </trkpt>
      <trkpt lat="45.63825" lon="5.84914">
        <ele>339.9633789</ele>
        <time>2011-09-04T08:50:09Z</time>
      </trkpt>
      <trkpt lat="45.6382" lon="5.84927">
        <ele>339.0020752</ele>
        <time>2011-09-04T08:50:12Z</time>
      </trkpt>
      <trkpt lat="45.63808" lon="5.84925">
        <ele>337.5600586</ele>
        <time>2011-09-04T08:50:14Z</time>
      </trkpt>
      <trkpt lat="45.63794" lon="5.84918">
        <ele>336.1181641</ele>
        <time>2011-09-04T08:50:16Z</time>
      </trkpt>
      <trkpt lat="45.63749" lon="5.84915">
        <ele>331.3115234</ele>
        <time>2011-09-04T08:50:21Z</time>
      </trkpt>
      <trkpt lat="45.63729" lon="5.84921">
        <ele>330.3502197</ele>
        <time>2011-09-04T08:50:23Z</time>
      </trkpt>
      <trkpt lat="45.63681" lon="5.84937">
        <ele>327.9467773</ele>
        <time>2011-09-04T08:50:28Z</time>
      </trkpt>
      <trkpt lat="45.63635" lon="5.84939">
        <ele>328.9083252</ele>
        <time>2011-09-04T08:50:33Z</time>
      </trkpt>
      <trkpt lat="45.63584" lon="5.84932">
        <ele>329.8695068</ele>
        <time>2011-09-04T08:50:39Z</time>
      </trkpt>
      <trkpt lat="45.63534" lon="5.84925">
        <ele>330.8309326</ele>
        <time>2011-09-04T08:50:45Z</time>
      </trkpt>
      <trkpt lat="45.63497" lon="5.84924">
        <ele>332.2728271</ele>
        <time>2011-09-04T08:50:50Z</time>
      </trkpt>
      <trkpt lat="45.63458" lon="5.84932">
        <ele>332.2728271</ele>
        <time>2011-09-04T08:50:56Z</time>
      </trkpt>
      <trkpt lat="45.63408" lon="5.84935">
        <ele>330.3502197</ele>
        <time>2011-09-04T08:51:03Z</time>
      </trkpt>
      <trkpt lat="45.63361" lon="5.84931">
        <ele>328.4276123</ele>
        <time>2011-09-04T08:51:09Z</time>
      </trkpt>
      <trkpt lat="45.6331" lon="5.84911">
        <ele>327.4661865</ele>
        <time>2011-09-04T08:51:15Z</time>
      </trkpt>
      <trkpt lat="45.63258" lon="5.84895">
        <ele>326.9855957</ele>
        <time>2011-09-04T08:51:21Z</time>
      </trkpt>
      <trkpt lat="45.6325" lon="5.84895">
        <ele>327.4661865</ele>
        <time>2011-09-04T08:51:22Z</time>
      </trkpt>
      <trkpt lat="45.63229" lon="5.8492">
        <ele>327.4661865</ele>
        <time>2011-09-04T08:51:26Z</time>
      </trkpt>
      <trkpt lat="45.63197" lon="5.84953">
        <ele>326.0241699</ele>
        <time>2011-09-04T08:51:32Z</time>
      </trkpt>
      <trkpt lat="45.63168" lon="5.84975">
        <ele>326.0241699</ele>
        <time>2011-09-04T08:51:36Z</time>
      </trkpt>
      <trkpt lat="45.63143" lon="5.84985">
        <ele>328.9083252</ele>
        <time>2011-09-04T08:51:39Z</time>
      </trkpt>
      <trkpt lat="45.63106" lon="5.84982">
        <ele>327.9467773</ele>
        <time>2011-09-04T08:51:43Z</time>
      </trkpt>
      <trkpt lat="45.63076" lon="5.84969">
        <ele>325.5435791</ele>
        <time>2011-09-04T08:51:46Z</time>
      </trkpt>
      <trkpt lat="45.63029" lon="5.84966">
        <ele>326.0241699</ele>
        <time>2011-09-04T08:51:51Z</time>
      </trkpt>
      <trkpt lat="45.62989" lon="5.84965">
        <ele>325.5435791</ele>
        <time>2011-09-04T08:51:56Z</time>
      </trkpt>
      <trkpt lat="45.62952" lon="5.84961">
        <ele>326.9855957</ele>
        <time>2011-09-04T08:52:02Z</time>
      </trkpt>
      <trkpt lat="45.62923" lon="5.84958">
        <ele>328.4276123</ele>
        <time>2011-09-04T08:52:08Z</time>
      </trkpt>
      <trkpt lat="45.62897" lon="5.8495">
        <ele>328.9083252</ele>
        <time>2011-09-04T08:52:14Z</time>
      </trkpt>
      <trkpt lat="45.62868" lon="5.84952">
        <ele>331.7921143</ele>
        <time>2011-09-04T08:52:21Z</time>
      </trkpt>
      <trkpt lat="45.62834" lon="5.84955">
        <ele>333.2341309</ele>
        <time>2011-09-04T08:52:29Z</time>
      </trkpt>
      <trkpt lat="45.62799" lon="5.84959">
        <ele>335.1567383</ele>
        <time>2011-09-04T08:52:37Z</time>
      </trkpt>
      <trkpt lat="45.62765" lon="5.84961">
        <ele>336.1181641</ele>
        <time>2011-09-04T08:52:46Z</time>
      </trkpt>
      <trkpt lat="45.62739" lon="5.84963">
        <ele>337.5600586</ele>
        <time>2011-09-04T08:52:53Z</time>
      </trkpt>
      <trkpt lat="45.62704" lon="5.84968">
        <ele>339.482666</ele>
        <time>2011-09-04T08:53:02Z</time>
      </trkpt>
      <trkpt lat="45.62693" lon="5.84982">
        <ele>340.4440918</ele>
        <time>2011-09-04T08:53:06Z</time>
      </trkpt>
      <trkpt lat="45.62691" lon="5.84988">
        <ele>341.4052734</ele>
        <time>2011-09-04T08:53:07Z</time>
      </trkpt>
      <trkpt lat="45.62687" lon="5.85025">
        <ele>341.4052734</ele>
        <time>2011-09-04T08:53:11Z</time>
      </trkpt>
      <trkpt lat="45.62686" lon="5.85049">
        <ele>340.4440918</ele>
        <time>2011-09-04T08:53:13Z</time>
      </trkpt>
      <trkpt lat="45.62689" lon="5.85106">
        <ele>339.482666</ele>
        <time>2011-09-04T08:53:18Z</time>
      </trkpt>
      <trkpt lat="45.62687" lon="5.85139">
        <ele>340.4440918</ele>
        <time>2011-09-04T08:53:22Z</time>
      </trkpt>
      <trkpt lat="45.62677" lon="5.85178">
        <ele>340.4440918</ele>
        <time>2011-09-04T08:53:28Z</time>
      </trkpt>
      <trkpt lat="45.62676" lon="5.85219">
        <ele>341.4052734</ele>
        <time>2011-09-04T08:53:34Z</time>
      </trkpt>
      <trkpt lat="45.62682" lon="5.85241">
        <ele>340.9246826</ele>
        <time>2011-09-04T08:53:37Z</time>
      </trkpt>
      <trkpt lat="45.62698" lon="5.85278">
        <ele>341.4052734</ele>
        <time>2011-09-04T08:53:42Z</time>
      </trkpt>
      <trkpt lat="45.62705" lon="5.85318">
        <ele>340.9246826</ele>
        <time>2011-09-04T08:53:47Z</time>
      </trkpt>
      <trkpt lat="45.62704" lon="5.8537">
        <ele>341.4052734</ele>
        <time>2011-09-04T08:53:53Z</time>
      </trkpt>
      <trkpt lat="45.62716" lon="5.85419">
        <ele>339.482666</ele>
        <time>2011-09-04T08:53:59Z</time>
      </trkpt>
      <trkpt lat="45.62721" lon="5.85451">
        <ele>336.1181641</ele>
        <time>2011-09-04T08:54:04Z</time>
      </trkpt>
      <trkpt lat="45.62721" lon="5.85456">
        <ele>335.6373291</ele>
        <time>2011-09-04T08:54:05Z</time>
      </trkpt>
      <trkpt lat="45.62714" lon="5.85473">
        <ele>332.75354</ele>
        <time>2011-09-04T08:54:10Z</time>
      </trkpt>
      <trkpt lat="45.62705" lon="5.85479">
        <ele>328.9083252</ele>
        <time>2011-09-04T08:54:13Z</time>
      </trkpt>
      <trkpt lat="45.6268" lon="5.85487">
        <ele>328.4276123</ele>
        <time>2011-09-04T08:54:18Z</time>
      </trkpt>
      <trkpt lat="45.62671" lon="5.85501">
        <ele>326.0241699</ele>
        <time>2011-09-04T08:54:22Z</time>
      </trkpt>
      <trkpt lat="45.62654" lon="5.85525">
        <ele>318.3336182</ele>
        <time>2011-09-04T08:54:27Z</time>
      </trkpt>
      <trkpt lat="45.62649" lon="5.85526">
        <ele>317.8530273</ele>
        <time>2011-09-04T08:54:28Z</time>
      </trkpt>
      <trkpt lat="45.62616" lon="5.85541">
        <ele>312.0852051</ele>
        <time>2011-09-04T08:54:34Z</time>
      </trkpt>
      <trkpt lat="45.626" lon="5.85549">
        <ele>311.6044922</ele>
        <time>2011-09-04T08:54:37Z</time>
      </trkpt>
      <trkpt lat="45.62574" lon="5.85549">
        <ele>306.3172607</ele>
        <time>2011-09-04T08:54:43Z</time>
      </trkpt>
      <trkpt lat="45.62555" lon="5.85556">
        <ele>305.355957</ele>
        <time>2011-09-04T08:54:46Z</time>
      </trkpt>
      <trkpt lat="45.62517" lon="5.85571">
        <ele>299.5880127</ele>
        <time>2011-09-04T08:54:52Z</time>
      </trkpt>
      <trkpt lat="45.62511" lon="5.85573">
        <ele>299.1072998</ele>
        <time>2011-09-04T08:54:53Z</time>
      </trkpt>
      <trkpt lat="45.62487" lon="5.85582">
        <ele>293.8200684</ele>
        <time>2011-09-04T08:54:58Z</time>
      </trkpt>
      <trkpt lat="45.6248" lon="5.85604">
        <ele>292.3781738</ele>
        <time>2011-09-04T08:55:01Z</time>
      </trkpt>
      <trkpt lat="45.62478" lon="5.85613">
        <ele>290.9361572</ele>
        <time>2011-09-04T08:55:02Z</time>
      </trkpt>
      <trkpt lat="45.62474" lon="5.85651">
        <ele>288.0522461</ele>
        <time>2011-09-04T08:55:06Z</time>
      </trkpt>
      <trkpt lat="45.62477" lon="5.85692">
        <ele>288.0522461</ele>
        <time>2011-09-04T08:55:12Z</time>
      </trkpt>
      <trkpt lat="45.62477" lon="5.85699">
        <ele>289.0135498</ele>
        <time>2011-09-04T08:55:13Z</time>
      </trkpt>
      <trkpt lat="45.62489" lon="5.85734">
        <ele>290.4555664</ele>
        <time>2011-09-04T08:55:20Z</time>
      </trkpt>
      <trkpt lat="45.625" lon="5.8575">
        <ele>291.416748</ele>
        <time>2011-09-04T08:55:25Z</time>
      </trkpt>
      <trkpt lat="45.62523" lon="5.85772">
        <ele>295.2619629</ele>
        <time>2011-09-04T08:55:33Z</time>
      </trkpt>
      <trkpt lat="45.62531" lon="5.85787">
        <ele>297.6654053</ele>
        <time>2011-09-04T08:55:37Z</time>
      </trkpt>
      <trkpt lat="45.6254" lon="5.85805">
        <ele>300.0687256</ele>
        <time>2011-09-04T08:55:41Z</time>
      </trkpt>
      <trkpt lat="45.62552" lon="5.8582">
        <ele>300.5493164</ele>
        <time>2011-09-04T08:55:46Z</time>
      </trkpt>
      <trkpt lat="45.62556" lon="5.85833">
        <ele>301.991333</ele>
        <time>2011-09-04T08:55:50Z</time>
      </trkpt>
      <trkpt lat="45.62562" lon="5.85847">
        <ele>301.991333</ele>
        <time>2011-09-04T08:55:55Z</time>
      </trkpt>
      <trkpt lat="45.62565" lon="5.85852">
        <ele>301.991333</ele>
        <time>2011-09-04T08:55:57Z</time>
      </trkpt>
      <trkpt lat="45.62573" lon="5.85866">
        <ele>301.0299072</ele>
        <time>2011-09-04T08:56:03Z</time>
      </trkpt>
      <trkpt lat="45.62582" lon="5.85875">
        <ele>300.5493164</ele>
        <time>2011-09-04T08:56:08Z</time>
      </trkpt>
      <trkpt lat="45.62588" lon="5.85881">
        <ele>300.5493164</ele>
        <time>2011-09-04T08:56:11Z</time>
      </trkpt>
      <trkpt lat="45.62604" lon="5.85893">
        <ele>301.0299072</ele>
        <time>2011-09-04T08:56:18Z</time>
      </trkpt>
      <trkpt lat="45.62618" lon="5.859">
        <ele>303.4332275</ele>
        <time>2011-09-04T08:56:23Z</time>
      </trkpt>
      <trkpt lat="45.62622" lon="5.85904">
        <ele>304.3946533</ele>
        <time>2011-09-04T08:56:25Z</time>
      </trkpt>
      <trkpt lat="45.62639" lon="5.85916">
        <ele>308.2398682</ele>
        <time>2011-09-04T08:56:32Z</time>
      </trkpt>
      <trkpt lat="45.62651" lon="5.85927">
        <ele>309.6818848</ele>
        <time>2011-09-04T08:56:37Z</time>
      </trkpt>
      <trkpt lat="45.62666" lon="5.85936">
        <ele>316.4110107</ele>
        <time>2011-09-04T08:56:43Z</time>
      </trkpt>
      <trkpt lat="45.62668" lon="5.85938">
        <ele>317.3724365</ele>
        <time>2011-09-04T08:56:44Z</time>
      </trkpt>
      <trkpt lat="45.62683" lon="5.85955">
        <ele>322.659668</ele>
        <time>2011-09-04T08:56:51Z</time>
      </trkpt>
      <trkpt lat="45.62691" lon="5.85976">
        <ele>324.1015625</ele>
        <time>2011-09-04T08:56:57Z</time>
      </trkpt>
      <trkpt lat="45.62691" lon="5.85995">
        <ele>323.6209717</ele>
        <time>2011-09-04T08:57:01Z</time>
      </trkpt>
      <trkpt lat="45.62681" lon="5.86004">
        <ele>323.1403809</ele>
        <time>2011-09-04T08:57:04Z</time>
      </trkpt>
      <trkpt lat="45.62655" lon="5.86009">
        <ele>320.2563477</ele>
        <time>2011-09-04T08:57:10Z</time>
      </trkpt>
      <trkpt lat="45.62632" lon="5.86019">
        <ele>320.2563477</ele>
        <time>2011-09-04T08:57:15Z</time>
      </trkpt>
      <trkpt lat="45.62618" lon="5.86044">
        <ele>320.7370605</ele>
        <time>2011-09-04T08:57:19Z</time>
      </trkpt>
      <trkpt lat="45.62599" lon="5.86113">
        <ele>320.7370605</ele>
        <time>2011-09-04T08:57:27Z</time>
      </trkpt>
      <trkpt lat="45.62596" lon="5.86149">
        <ele>320.7370605</ele>
        <time>2011-09-04T08:57:31Z</time>
      </trkpt>
      <trkpt lat="45.62585" lon="5.86179">
        <ele>319.7756348</ele>
        <time>2011-09-04T08:57:35Z</time>
      </trkpt>
      <trkpt lat="45.62571" lon="5.86198">
        <ele>317.8530273</ele>
        <time>2011-09-04T08:57:38Z</time>
      </trkpt>
      <trkpt lat="45.62555" lon="5.86235">
        <ele>316.4110107</ele>
        <time>2011-09-04T08:57:43Z</time>
      </trkpt>
      <trkpt lat="45.6254" lon="5.86264">
        <ele>315.9304199</ele>
        <time>2011-09-04T08:57:47Z</time>
      </trkpt>
      <trkpt lat="45.62516" lon="5.86279">
        <ele>315.9304199</ele>
        <time>2011-09-04T08:57:51Z</time>
      </trkpt>
      <trkpt lat="45.62458" lon="5.86286">
        <ele>315.9304199</ele>
        <time>2011-09-04T08:57:59Z</time>
      </trkpt>
      <trkpt lat="45.62412" lon="5.86274">
        <ele>316.4110107</ele>
        <time>2011-09-04T08:58:05Z</time>
      </trkpt>
      <trkpt lat="45.62364" lon="5.8625">
        <ele>315.4498291</ele>
        <time>2011-09-04T08:58:11Z</time>
      </trkpt>
      <trkpt lat="45.62291" lon="5.86215">
        <ele>314.4884033</ele>
        <time>2011-09-04T08:58:20Z</time>
      </trkpt>
      <trkpt lat="45.62226" lon="5.86182">
        <ele>315.9304199</ele>
        <time>2011-09-04T08:58:28Z</time>
      </trkpt>
      <trkpt lat="45.62163" lon="5.86152">
        <ele>317.3724365</ele>
        <time>2011-09-04T08:58:36Z</time>
      </trkpt>
      <trkpt lat="45.6213" lon="5.86136">
        <ele>316.8917236</ele>
        <time>2011-09-04T08:58:41Z</time>
      </trkpt>
      <trkpt lat="45.62109" lon="5.86141">
        <ele>316.4110107</ele>
        <time>2011-09-04T08:58:45Z</time>
      </trkpt>
      <trkpt lat="45.62107" lon="5.86148">
        <ele>316.4110107</ele>
        <time>2011-09-04T08:58:46Z</time>
      </trkpt>
      <trkpt lat="45.62099" lon="5.86213">
        <ele>316.8917236</ele>
        <time>2011-09-04T08:58:54Z</time>
      </trkpt>
      <trkpt lat="45.62096" lon="5.86244">
        <ele>317.3724365</ele>
        <time>2011-09-04T08:58:58Z</time>
      </trkpt>
      <trkpt lat="45.62083" lon="5.86269">
        <ele>317.8530273</ele>
        <time>2011-09-04T08:59:03Z</time>
      </trkpt>
      <trkpt lat="45.6208" lon="5.86273">
        <ele>317.8530273</ele>
        <time>2011-09-04T08:59:04Z</time>
      </trkpt>
      <trkpt lat="45.62045" lon="5.86309">
        <ele>316.8917236</ele>
        <time>2011-09-04T08:59:14Z</time>
      </trkpt>
      <trkpt lat="45.62018" lon="5.86337">
        <ele>315.4498291</ele>
        <time>2011-09-04T08:59:21Z</time>
      </trkpt>
      <trkpt lat="45.62008" lon="5.86358">
        <ele>314.9691162</ele>
        <time>2011-09-04T08:59:25Z</time>
      </trkpt>
      <trkpt lat="45.6199" lon="5.86383">
        <ele>314.0078125</ele>
        <time>2011-09-04T08:59:30Z</time>
      </trkpt>
      <trkpt lat="45.61981" lon="5.86389">
        <ele>313.0465088</ele>
        <time>2011-09-04T08:59:32Z</time>
      </trkpt>
      <trkpt lat="45.61936" lon="5.86401">
        <ele>312.0852051</ele>
        <time>2011-09-04T08:59:40Z</time>
      </trkpt>
      <trkpt lat="45.61925" lon="5.86402">
        <ele>312.5657959</ele>
        <time>2011-09-04T08:59:42Z</time>
      </trkpt>
      <trkpt lat="45.61917" lon="5.86415">
        <ele>311.6044922</ele>
        <time>2011-09-04T08:59:46Z</time>
      </trkpt>
      <trkpt lat="45.61928" lon="5.86473">
        <ele>312.5657959</ele>
        <time>2011-09-04T08:59:55Z</time>
      </trkpt>
      <trkpt lat="45.61934" lon="5.86506">
        <ele>313.0465088</ele>
        <time>2011-09-04T09:00:00Z</time>
      </trkpt>
      <trkpt lat="45.6194" lon="5.86558">
        <ele>312.5657959</ele>
        <time>2011-09-04T09:00:07Z</time>
      </trkpt>
      <trkpt lat="45.61947" lon="5.86616">
        <ele>314.4884033</ele>
        <time>2011-09-04T09:00:14Z</time>
      </trkpt>
      <trkpt lat="45.61959" lon="5.86654">
        <ele>314.4884033</ele>
        <time>2011-09-04T09:00:19Z</time>
      </trkpt>
      <trkpt lat="45.61963" lon="5.86661">
        <ele>313.5272217</ele>
        <time>2011-09-04T09:00:20Z</time>
      </trkpt>
      <trkpt lat="45.61987" lon="5.86685">
        <ele>313.0465088</ele>
        <time>2011-09-04T09:00:24Z</time>
      </trkpt>
      <trkpt lat="45.61998" lon="5.86697">
        <ele>312.0852051</ele>
        <time>2011-09-04T09:00:26Z</time>
      </trkpt>
      <trkpt lat="45.62044" lon="5.86755">
        <ele>305.8366699</ele>
        <time>2011-09-04T09:00:33Z</time>
      </trkpt>
      <trkpt lat="45.62072" lon="5.86796">
        <ele>301.0299072</ele>
        <time>2011-09-04T09:00:38Z</time>
      </trkpt>
      <trkpt lat="45.62085" lon="5.86817">
        <ele>298.1461182</ele>
        <time>2011-09-04T09:00:41Z</time>
      </trkpt>
      <trkpt lat="45.62127" lon="5.8683">
        <ele>291.416748</ele>
        <time>2011-09-04T09:00:46Z</time>
      </trkpt>
      <trkpt lat="45.62136" lon="5.86829">
        <ele>289.4941406</ele>
        <time>2011-09-04T09:00:47Z</time>
      </trkpt>
      <trkpt lat="45.62191" lon="5.86822">
        <ele>288.0522461</ele>
        <time>2011-09-04T09:00:54Z</time>
      </trkpt>
      <trkpt lat="45.62222" lon="5.86812">
        <ele>286.1295166</ele>
        <time>2011-09-04T09:00:59Z</time>
      </trkpt>
      <trkpt lat="45.62234" lon="5.86807">
        <ele>286.1295166</ele>
        <time>2011-09-04T09:01:01Z</time>
      </trkpt>
      <trkpt lat="45.62255" lon="5.86808">
        <ele>284.6876221</ele>
        <time>2011-09-04T09:01:05Z</time>
      </trkpt>
      <trkpt lat="45.6229" lon="5.86809">
        <ele>281.8035889</ele>
        <time>2011-09-04T09:01:11Z</time>
      </trkpt>
      <trkpt lat="45.6231" lon="5.86808">
        <ele>279.4002686</ele>
        <time>2011-09-04T09:01:15Z</time>
      </trkpt>
      <trkpt lat="45.62322" lon="5.86826">
        <ele>276.5163574</ele>
        <time>2011-09-04T09:01:19Z</time>
      </trkpt>
      <trkpt lat="45.62324" lon="5.86888">
        <ele>276.9970703</ele>
        <time>2011-09-04T09:01:25Z</time>
      </trkpt>
      <trkpt lat="45.62321" lon="5.86902">
        <ele>276.5163574</ele>
        <time>2011-09-04T09:01:27Z</time>
      </trkpt>
      <trkpt lat="45.62307" lon="5.86924">
        <ele>276.0356445</ele>
        <time>2011-09-04T09:01:30Z</time>
      </trkpt>
      <trkpt lat="45.62293" lon="5.86956">
        <ele>275.5550537</ele>
        <time>2011-09-04T09:01:35Z</time>
      </trkpt>
      <trkpt lat="45.62296" lon="5.86983">
        <ele>275.0744629</ele>
        <time>2011-09-04T09:01:39Z</time>
      </trkpt>
      <trkpt lat="45.62306" lon="5.87038">
        <ele>273.6324463</ele>
        <time>2011-09-04T09:01:46Z</time>
      </trkpt>
      <trkpt lat="45.62308" lon="5.87049">
        <ele>272.6711426</ele>
        <time>2011-09-04T09:01:48Z</time>
      </trkpt>
      <trkpt lat="45.6231" lon="5.87059">
        <ele>272.6711426</ele>
        <time>2011-09-04T09:01:51Z</time>
      </trkpt>
      <trkpt lat="45.6232" lon="5.87089">
        <ele>269.3065186</ele>
        <time>2011-09-04T09:01:57Z</time>
      </trkpt>
      <trkpt lat="45.62328" lon="5.87111">
        <ele>265.9418945</ele>
        <time>2011-09-04T09:02:01Z</time>
      </trkpt>
      <trkpt lat="45.62343" lon="5.87146">
        <ele>261.6159668</ele>
        <time>2011-09-04T09:02:06Z</time>
      </trkpt>
      <trkpt lat="45.62346" lon="5.87153">
        <ele>261.1352539</ele>
        <time>2011-09-04T09:02:07Z</time>
      </trkpt>
      <trkpt lat="45.6235" lon="5.87168">
        <ele>260.654541</ele>
        <time>2011-09-04T09:02:09Z</time>
      </trkpt>
      <trkpt lat="45.62355" lon="5.87186">
        <ele>257.770752</ele>
        <time>2011-09-04T09:02:11Z</time>
      </trkpt>
      <trkpt lat="45.62343" lon="5.87209">
        <ele>254.8865967</ele>
        <time>2011-09-04T09:02:14Z</time>
      </trkpt>
      <trkpt lat="45.62336" lon="5.87214">
        <ele>254.4060059</ele>
        <time>2011-09-04T09:02:15Z</time>
      </trkpt>
      <trkpt lat="45.62291" lon="5.87236">
        <ele>252.0028076</ele>
        <time>2011-09-04T09:02:22Z</time>
      </trkpt>
      <trkpt lat="45.62244" lon="5.87258">
        <ele>249.1187744</ele>
        <time>2011-09-04T09:02:29Z</time>
      </trkpt>
      <trkpt lat="45.62231" lon="5.8727">
        <ele>248.1575928</ele>
        <time>2011-09-04T09:02:31Z</time>
      </trkpt>
      <trkpt lat="45.62206" lon="5.873">
        <ele>244.7928467</ele>
        <time>2011-09-04T09:02:36Z</time>
      </trkpt>
      <trkpt lat="45.622" lon="5.87313">
        <ele>244.3122559</ele>
        <time>2011-09-04T09:02:37Z</time>
      </trkpt>
      <trkpt lat="45.62202" lon="5.87357">
        <ele>241.9089355</ele>
        <time>2011-09-04T09:02:42Z</time>
      </trkpt>
      <trkpt lat="45.62198" lon="5.87375">
        <ele>239.9862061</ele>
        <time>2011-09-04T09:02:45Z</time>
      </trkpt>
      <trkpt lat="45.62193" lon="5.87377">
        <ele>239.5054932</ele>
        <time>2011-09-04T09:02:46Z</time>
      </trkpt>
      <trkpt lat="45.62152" lon="5.8739">
        <ele>238.5443115</ele>
        <time>2011-09-04T09:02:54Z</time>
      </trkpt>
      <trkpt lat="45.62117" lon="5.87397">
        <ele>236.1409912</ele>
        <time>2011-09-04T09:03:00Z</time>
      </trkpt>
      <trkpt lat="45.62077" lon="5.87394">
        <ele>235.6602783</ele>
        <time>2011-09-04T09:03:07Z</time>
      </trkpt>
      <trkpt lat="45.62049" lon="5.87395">
        <ele>235.6602783</ele>
        <time>2011-09-04T09:03:12Z</time>
      </trkpt>
      <trkpt lat="45.62022" lon="5.874">
        <ele>235.6602783</ele>
        <time>2011-09-04T09:03:17Z</time>
      </trkpt>
      <trkpt lat="45.61993" lon="5.87411">
        <ele>238.5443115</ele>
        <time>2011-09-04T09:03:23Z</time>
      </trkpt>
      <trkpt lat="45.61976" lon="5.87417">
        <ele>241.9089355</ele>
        <time>2011-09-04T09:03:26Z</time>
      </trkpt>
      <trkpt lat="45.6195" lon="5.87428">
        <ele>241.9089355</ele>
        <time>2011-09-04T09:03:32Z</time>
      </trkpt>
      <trkpt lat="45.61936" lon="5.87435">
        <ele>241.9089355</ele>
        <time>2011-09-04T09:03:35Z</time>
      </trkpt>
      <trkpt lat="45.61904" lon="5.87445">
        <ele>243.3508301</ele>
        <time>2011-09-04T09:03:41Z</time>
      </trkpt>
      <trkpt lat="45.61888" lon="5.87447">
        <ele>243.831543</ele>
        <time>2011-09-04T09:03:44Z</time>
      </trkpt>
      <trkpt lat="45.61842" lon="5.87452">
        <ele>243.3508301</ele>
        <time>2011-09-04T09:03:53Z</time>
      </trkpt>
      <trkpt lat="45.61832" lon="5.87454">
        <ele>241.9089355</ele>
        <time>2011-09-04T09:03:55Z</time>
      </trkpt>
      <trkpt lat="45.61797" lon="5.87457">
        <ele>240.9476318</ele>
        <time>2011-09-04T09:04:02Z</time>
      </trkpt>
      <trkpt lat="45.61788" lon="5.87458">
        <ele>240.467041</ele>
        <time>2011-09-04T09:04:04Z</time>
      </trkpt>
      <trkpt lat="45.61757" lon="5.87466">
        <ele>239.9862061</ele>
        <time>2011-09-04T09:04:11Z</time>
      </trkpt>
      <trkpt lat="45.61748" lon="5.8747">
        <ele>239.9862061</ele>
        <time>2011-09-04T09:04:13Z</time>
      </trkpt>
      <trkpt lat="45.61728" lon="5.87482">
        <ele>238.5443115</ele>
        <time>2011-09-04T09:04:18Z</time>
      </trkpt>
      <trkpt lat="45.61701" lon="5.87501">
        <ele>239.0249023</ele>
        <time>2011-09-04T09:04:25Z</time>
      </trkpt>
      <trkpt lat="45.61682" lon="5.87515">
        <ele>239.5054932</ele>
        <time>2011-09-04T09:04:30Z</time>
      </trkpt>
      <trkpt lat="45.61678" lon="5.87518">
        <ele>238.5443115</ele>
        <time>2011-09-04T09:04:31Z</time>
      </trkpt>
      <trkpt lat="45.61656" lon="5.87528">
        <ele>236.6217041</ele>
        <time>2011-09-04T09:04:36Z</time>
      </trkpt>
      <trkpt lat="45.61622" lon="5.87547">
        <ele>236.1409912</ele>
        <time>2011-09-04T09:04:43Z</time>
      </trkpt>
      <trkpt lat="45.61598" lon="5.87558">
        <ele>237.1022949</ele>
        <time>2011-09-04T09:04:48Z</time>
      </trkpt>
      <trkpt lat="45.61587" lon="5.87564">
        <ele>237.1022949</ele>
        <time>2011-09-04T09:04:50Z</time>
      </trkpt>
      <trkpt lat="45.61554" lon="5.87582">
        <ele>237.1022949</ele>
        <time>2011-09-04T09:04:57Z</time>
      </trkpt>
      <trkpt lat="45.61521" lon="5.87603">
        <ele>235.6602783</ele>
        <time>2011-09-04T09:05:04Z</time>
      </trkpt>
      <trkpt lat="45.61491" lon="5.87626">
        <ele>235.6602783</ele>
        <time>2011-09-04T09:05:11Z</time>
      </trkpt>
      <trkpt lat="45.6147" lon="5.87642">
        <ele>236.1409912</ele>
        <time>2011-09-04T09:05:16Z</time>
      </trkpt>
      <trkpt lat="45.61438" lon="5.87663">
        <ele>239.9862061</ele>
        <time>2011-09-04T09:05:23Z</time>
      </trkpt>
      <trkpt lat="45.61429" lon="5.87669">
        <ele>240.467041</ele>
        <time>2011-09-04T09:05:25Z</time>
      </trkpt>
      <trkpt lat="45.61416" lon="5.87678">
        <ele>239.9862061</ele>
        <time>2011-09-04T09:05:28Z</time>
      </trkpt>
      <trkpt lat="45.61395" lon="5.87692">
        <ele>239.9862061</ele>
        <time>2011-09-04T09:05:32Z</time>
      </trkpt>
      <trkpt lat="45.61351" lon="5.8772">
        <ele>236.6217041</ele>
        <time>2011-09-04T09:05:40Z</time>
      </trkpt>
      <trkpt lat="45.61345" lon="5.87724">
        <ele>236.6217041</ele>
        <time>2011-09-04T09:05:41Z</time>
      </trkpt>
      <trkpt lat="45.61296" lon="5.87745">
        <ele>238.5443115</ele>
        <time>2011-09-04T09:05:50Z</time>
      </trkpt>
      <trkpt lat="45.61258" lon="5.87758">
        <ele>237.5828857</ele>
        <time>2011-09-04T09:05:57Z</time>
      </trkpt>
      <trkpt lat="45.61221" lon="5.8777">
        <ele>237.1022949</ele>
        <time>2011-09-04T09:06:04Z</time>
      </trkpt>
      <trkpt lat="45.6118" lon="5.87784">
        <ele>235.6602783</ele>
        <time>2011-09-04T09:06:12Z</time>
      </trkpt>
      <trkpt lat="45.61138" lon="5.87799">
        <ele>234.6990967</ele>
        <time>2011-09-04T09:06:20Z</time>
      </trkpt>
      <trkpt lat="45.61091" lon="5.8782">
        <ele>235.6602783</ele>
        <time>2011-09-04T09:06:29Z</time>
      </trkpt>
      <trkpt lat="45.61039" lon="5.87843">
        <ele>237.5828857</ele>
        <time>2011-09-04T09:06:39Z</time>
      </trkpt>
      <trkpt lat="45.61006" lon="5.87857">
        <ele>238.0635986</ele>
        <time>2011-09-04T09:06:45Z</time>
      </trkpt>
      <trkpt lat="45.60947" lon="5.87883">
        <ele>239.9862061</ele>
        <time>2011-09-04T09:06:56Z</time>
      </trkpt>
      <trkpt lat="45.60924" lon="5.87894">
        <ele>241.4282227</ele>
        <time>2011-09-04T09:07:01Z</time>
      </trkpt>
      <trkpt lat="45.60917" lon="5.87901">
        <ele>241.4282227</ele>
        <time>2011-09-04T09:07:03Z</time>
      </trkpt>
      <trkpt lat="45.60903" lon="5.87913">
        <ele>243.831543</ele>
        <time>2011-09-04T09:07:06Z</time>
      </trkpt>
      <trkpt lat="45.60878" lon="5.87928">
        <ele>244.3122559</ele>
        <time>2011-09-04T09:07:11Z</time>
      </trkpt>
      <trkpt lat="45.60847" lon="5.87949">
        <ele>242.8702393</ele>
        <time>2011-09-04T09:07:17Z</time>
      </trkpt>
      <trkpt lat="45.60836" lon="5.87955">
        <ele>242.3896484</ele>
        <time>2011-09-04T09:07:19Z</time>
      </trkpt>
      <trkpt lat="45.60807" lon="5.87975">
        <ele>245.2734375</ele>
        <time>2011-09-04T09:07:25Z</time>
      </trkpt>
      <trkpt lat="45.60789" lon="5.8799">
        <ele>246.7154541</ele>
        <time>2011-09-04T09:07:29Z</time>
      </trkpt>
      <trkpt lat="45.60781" lon="5.87999">
        <ele>248.1575928</ele>
        <time>2011-09-04T09:07:31Z</time>
      </trkpt>
      <trkpt lat="45.6077" lon="5.88011">
        <ele>249.1187744</ele>
        <time>2011-09-04T09:07:34Z</time>
      </trkpt>
      <trkpt lat="45.60748" lon="5.88027">
        <ele>248.6381836</ele>
        <time>2011-09-04T09:07:39Z</time>
      </trkpt>
      <trkpt lat="45.60722" lon="5.88048">
        <ele>247.6767578</ele>
        <time>2011-09-04T09:07:44Z</time>
      </trkpt>
      <trkpt lat="45.60699" lon="5.88066">
        <ele>246.7154541</ele>
        <time>2011-09-04T09:07:48Z</time>
      </trkpt>
      <trkpt lat="45.60682" lon="5.88078">
        <ele>247.1960449</ele>
        <time>2011-09-04T09:07:51Z</time>
      </trkpt>
      <trkpt lat="45.60658" lon="5.88096">
        <ele>247.1960449</ele>
        <time>2011-09-04T09:07:56Z</time>
      </trkpt>
      <trkpt lat="45.60629" lon="5.88117">
        <ele>247.6767578</ele>
        <time>2011-09-04T09:08:01Z</time>
      </trkpt>
      <trkpt lat="45.60598" lon="5.88128">
        <ele>246.2348633</ele>
        <time>2011-09-04T09:08:06Z</time>
      </trkpt>
      <trkpt lat="45.60591" lon="5.8813">
        <ele>246.2348633</ele>
        <time>2011-09-04T09:08:07Z</time>
      </trkpt>
      <trkpt lat="45.60572" lon="5.88133">
        <ele>245.7541504</ele>
        <time>2011-09-04T09:08:10Z</time>
      </trkpt>
      <trkpt lat="45.6056" lon="5.88136">
        <ele>246.2348633</ele>
        <time>2011-09-04T09:08:12Z</time>
      </trkpt>
      <trkpt lat="45.60516" lon="5.8814">
        <ele>246.7154541</ele>
        <time>2011-09-04T09:08:19Z</time>
      </trkpt>
      <trkpt lat="45.60488" lon="5.88135">
        <ele>247.1960449</ele>
        <time>2011-09-04T09:08:24Z</time>
      </trkpt>
      <trkpt lat="45.6045" lon="5.88124">
        <ele>248.6381836</ele>
        <time>2011-09-04T09:08:31Z</time>
      </trkpt>
      <trkpt lat="45.60435" lon="5.8812">
        <ele>248.6381836</ele>
        <time>2011-09-04T09:08:34Z</time>
      </trkpt>
      <trkpt lat="45.60418" lon="5.88117">
        <ele>248.6381836</ele>
        <time>2011-09-04T09:08:37Z</time>
      </trkpt>
      <trkpt lat="45.60403" lon="5.88116">
        <ele>248.6381836</ele>
        <time>2011-09-04T09:08:40Z</time>
      </trkpt>
      <trkpt lat="45.60394" lon="5.88115">
        <ele>249.1187744</ele>
        <time>2011-09-04T09:08:42Z</time>
      </trkpt>
      <trkpt lat="45.6038" lon="5.88101">
        <ele>248.6381836</ele>
        <time>2011-09-04T09:08:46Z</time>
      </trkpt>
      <trkpt lat="45.60366" lon="5.88069">
        <ele>248.1575928</ele>
        <time>2011-09-04T09:08:51Z</time>
      </trkpt>
      <trkpt lat="45.60358" lon="5.88039">
        <ele>248.6381836</ele>
        <time>2011-09-04T09:08:55Z</time>
      </trkpt>
      <trkpt lat="45.60347" lon="5.8798">
        <ele>247.6767578</ele>
        <time>2011-09-04T09:09:02Z</time>
      </trkpt>
      <trkpt lat="45.60334" lon="5.87918">
        <ele>249.1187744</ele>
        <time>2011-09-04T09:09:10Z</time>
      </trkpt>
      <trkpt lat="45.60322" lon="5.87859">
        <ele>250.560791</ele>
        <time>2011-09-04T09:09:18Z</time>
      </trkpt>
      <trkpt lat="45.60314" lon="5.87809">
        <ele>251.0413818</ele>
        <time>2011-09-04T09:09:25Z</time>
      </trkpt>
      <trkpt lat="45.60308" lon="5.87752">
        <ele>250.560791</ele>
        <time>2011-09-04T09:09:32Z</time>
      </trkpt>
      <trkpt lat="45.60303" lon="5.87688">
        <ele>252.9639893</ele>
        <time>2011-09-04T09:09:40Z</time>
      </trkpt>
      <trkpt lat="45.603" lon="5.87667">
        <ele>254.4060059</ele>
        <time>2011-09-04T09:09:43Z</time>
      </trkpt>
      <trkpt lat="45.6029" lon="5.87651">
        <ele>255.3673096</ele>
        <time>2011-09-04T09:09:47Z</time>
      </trkpt>
      <trkpt lat="45.60286" lon="5.8765">
        <ele>255.3673096</ele>
        <time>2011-09-04T09:09:48Z</time>
      </trkpt>
      <trkpt lat="45.60271" lon="5.87649">
        <ele>256.3287354</ele>
        <time>2011-09-04T09:09:52Z</time>
      </trkpt>
      <trkpt lat="45.60249" lon="5.87647">
        <ele>254.8865967</ele>
        <time>2011-09-04T09:09:55Z</time>
      </trkpt>
      <trkpt lat="45.60229" lon="5.87625">
        <ele>254.8865967</ele>
        <time>2011-09-04T09:10:00Z</time>
      </trkpt>
      <trkpt lat="45.60217" lon="5.87619">
        <ele>254.8865967</ele>
        <time>2011-09-04T09:10:03Z</time>
      </trkpt>
      <trkpt lat="45.60208" lon="5.87623">
        <ele>255.3673096</ele>
        <time>2011-09-04T09:10:05Z</time>
      </trkpt>
      <trkpt lat="45.60188" lon="5.87645">
        <ele>256.3287354</ele>
        <time>2011-09-04T09:10:10Z</time>
      </trkpt>
      <trkpt lat="45.60167" lon="5.87651">
        <ele>257.770752</ele>
        <time>2011-09-04T09:10:14Z</time>
      </trkpt>
      <trkpt lat="45.60136" lon="5.87651">
        <ele>264.0192871</ele>
        <time>2011-09-04T09:10:19Z</time>
      </trkpt>
      <trkpt lat="45.60111" lon="5.87638">
        <ele>263.5385742</ele>
        <time>2011-09-04T09:10:23Z</time>
      </trkpt>
      <trkpt lat="45.60094" lon="5.87623">
        <ele>261.1352539</ele>
        <time>2011-09-04T09:10:27Z</time>
      </trkpt>
      <trkpt lat="45.6008" lon="5.87627">
        <ele>259.6933594</ele>
        <time>2011-09-04T09:10:30Z</time>
      </trkpt>
      <trkpt lat="45.60071" lon="5.87645">
        <ele>258.7319336</ele>
        <time>2011-09-04T09:10:33Z</time>
      </trkpt>
      <trkpt lat="45.60066" lon="5.8765">
        <ele>258.7319336</ele>
        <time>2011-09-04T09:10:34Z</time>
      </trkpt>
      <trkpt lat="45.60018" lon="5.87701">
        <ele>256.8093262</ele>
        <time>2011-09-04T09:10:44Z</time>
      </trkpt>
      <trkpt lat="45.60004" lon="5.87715">
        <ele>255.8480225</ele>
        <time>2011-09-04T09:10:47Z</time>
      </trkpt>
      <trkpt lat="45.59975" lon="5.87726">
        <ele>255.8480225</ele>
        <time>2011-09-04T09:10:52Z</time>
      </trkpt>
      <trkpt lat="45.59935" lon="5.87717">
        <ele>256.3287354</ele>
        <time>2011-09-04T09:10:59Z</time>
      </trkpt>
      <trkpt lat="45.59929" lon="5.87716">
        <ele>256.3287354</ele>
        <time>2011-09-04T09:11:00Z</time>
      </trkpt>
      <trkpt lat="45.59913" lon="5.87699">
        <ele>256.3287354</ele>
        <time>2011-09-04T09:11:04Z</time>
      </trkpt>
      <trkpt lat="45.59909" lon="5.87676">
        <ele>256.3287354</ele>
        <time>2011-09-04T09:11:07Z</time>
      </trkpt>
      <trkpt lat="45.59896" lon="5.87666">
        <ele>256.8093262</ele>
        <time>2011-09-04T09:11:10Z</time>
      </trkpt>
      <trkpt lat="45.59876" lon="5.87666">
        <ele>257.770752</ele>
        <time>2011-09-04T09:11:14Z</time>
      </trkpt>
      <trkpt lat="45.59866" lon="5.87667">
        <ele>257.770752</ele>
        <time>2011-09-04T09:11:16Z</time>
      </trkpt>
      <trkpt lat="45.59829" lon="5.87671">
        <ele>261.6159668</ele>
        <time>2011-09-04T09:11:23Z</time>
      </trkpt>
      <trkpt lat="45.59788" lon="5.87675">
        <ele>262.5771484</ele>
        <time>2011-09-04T09:11:31Z</time>
      </trkpt>
      <trkpt lat="45.59775" lon="5.87673">
        <ele>263.0578613</ele>
        <time>2011-09-04T09:11:34Z</time>
      </trkpt>
      <trkpt lat="45.59754" lon="5.87657">
        <ele>262.0965576</ele>
        <time>2011-09-04T09:11:39Z</time>
      </trkpt>
      <trkpt lat="45.59745" lon="5.87654">
        <ele>261.1352539</ele>
        <time>2011-09-04T09:11:41Z</time>
      </trkpt>
      <trkpt lat="45.59722" lon="5.8765">
        <ele>262.0965576</ele>
        <time>2011-09-04T09:11:46Z</time>
      </trkpt>
      <trkpt lat="45.59714" lon="5.87651">
        <ele>263.5385742</ele>
        <time>2011-09-04T09:11:48Z</time>
      </trkpt>
      <trkpt lat="45.59708" lon="5.87653">
        <ele>263.5385742</ele>
        <time>2011-09-04T09:11:50Z</time>
      </trkpt>
      <trkpt lat="45.59698" lon="5.87653">
        <ele>263.0578613</ele>
        <time>2011-09-04T09:11:53Z</time>
      </trkpt>
      <trkpt lat="45.59681" lon="5.87647">
        <ele>262.5771484</ele>
        <time>2011-09-04T09:12:00Z</time>
      </trkpt>
      <trkpt lat="45.59667" lon="5.87645">
        <ele>262.5771484</ele>
        <time>2011-09-04T09:12:06Z</time>
      </trkpt>
      <trkpt lat="45.59658" lon="5.87641">
        <ele>262.5771484</ele>
        <time>2011-09-04T09:12:13Z</time>
      </trkpt>
      <trkpt lat="45.59653" lon="5.87639">
        <ele>261.6159668</ele>
        <time>2011-09-04T09:12:18Z</time>
      </trkpt>
      <trkpt lat="45.59652" lon="5.87637">
        <ele>262.0965576</ele>
        <time>2011-09-04T09:12:24Z</time>
      </trkpt>
      <trkpt lat="45.59653" lon="5.87637">
        <ele>262.5771484</ele>
        <time>2011-09-04T09:12:33Z</time>
      </trkpt>
      <trkpt lat="45.59652" lon="5.87637">
        <ele>263.5385742</ele>
        <time>2011-09-04T09:12:39Z</time>
      </trkpt>
      <trkpt lat="45.59674" lon="5.87634">
        <ele>268.3450928</ele>
        <time>2011-09-04T09:24:32Z</time>
      </trkpt>
      <trkpt lat="45.59674" lon="5.87634">
        <ele>268.3450928</ele>
        <time>2011-09-04T09:24:33Z</time>
      </trkpt>
    </trkseg>
  </trk>
</gpx>